GFSMW_925_temp_000.txt.gz
Temp
22 20 17 16 16 15 15 15 14 13 13 13 14 14 14 13 13 13 12 12 12 12 12 12 12 12 11 11 11 11 11 12 11 12 12 12 12 13 12 12 13 11 12
22 19 18 16 15 16 15 15 15 14 14 14 14 14 14 14 14 13 12 12 12 12 12 12 12 12 12 11 11 11 11 11 11 10 11 13 15 13 12 13 12 13 11
21 20 18 16 15 15 15 15 15 15 14 14 13 13 13 12 13 13 13 12 11 11 11 11 11 11 11 11 11 11 11 11 11 10 11 12 12 10 12 13 12 12 11
21 19 19 17 16 15 15 14 15 14 14 13 14 13 14 15 14 13 13 12 11 11 11 10 10 10 10 10 10 11 10 10 11 11 11 10 10 11 12 11 10 11 11
20 19 19 17 17 15 15 14 14 14 14 13 12 13 13 13 13 12 11 11 11 10 10 10 10 9 9 10 9 9 10 10 10 10 11 11 10 10 10 11 12 10 9
21 20 17 16 16 15 14 13 13 14 13 12 12 11 12 12 12 11 11 11 10 10 10 9 8 8 8 8 8 9 9 9 9 9 10 10 10 11 11 11 11 11 10
20 20 20 17 16 16 14 13 13 13 13 11 11 10 10 10 10 10 10 9 9 9 8 8 7 7 7 7 7 7 8 8 8 9 9 9 9 9 9 10 10 11 10
21 20 19 17 17 15 15 14 13 13 13 11 10 9 8 9 9 7 8 7 7 6 6 6 6 6 6 6 6 6 7 7 8 8 8 9 9 9 9 9 9 10 11
20 20 19 17 16 16 15 13 13 12 11 9 8 8 7 7 7 7 6 6 6 6 6 5 4 4 4 4 5 5 6 6 7 7 7 7 8 8 8 8 8 9 9
20 20 19 18 16 16 15 13 11 11 10 8 7 7 7 6 6 6 5 5 5 5 4 4 4 4 3 4 4 4 5 5 6 6 7 7 7 8 7 7 7 7 8
20 19 19 18 17 14 12 10 10 10 9 7 6 6 6 6 5 5 5 4 4 4 3 3 3 3 3 3 3 3 3 4 4 5 6 6 6 6 7 7 7 7 7
20 19 18 17 15 12 11 10 9 9 8 7 6 6 6 5 5 5 4 4 3 3 2 2 2 2 2 2 2 2 2 3 3 4 4 5 6 6 6 6 6 6 7
19 19 18 16 14 12 11 9 9 8 7 7 6 5 5 5 5 4 4 3 2 2 2 2 2 1 1 1 1 1 1 2 2 2 3 4 4 5 5 5 6 6 6
18 17 16 16 13 11 10 9 8 8 7 6 6 5 5 4 4 3 3 2 2 1 1 1 1 1 0 0 0 0 0 0 -0 -0 -0 0 1 2 3 4 5 5 5
16 15 15 15 12 10 9 9 8 7 6 6 6 6 4 4 3 3 2 1 1 1 1 0 0 0 -0 -0 -0 -1 -1 -2 -2 -2 -2 -1 -1 -1 -0 1 2 4 5
15 14 14 13 11 10 9 9 7 7 7 6 6 5 3 3 3 2 1 1 1 1 1 0 -0 -0 -1 -1 -3 -4 -4 -4 -4 -3 -2 -2 -2 -2 -2 -1 -1 -1 1
12 10 12 12 10 9 9 8 8 7 6 6 5 4 3 2 2 1 1 1 0 0 -0 -0 -1 -1 -2 -2 -4 -4 -5 -4 -4 -3 -3 -2 -2 -2 -1 -2 -2 -2 -1
8 10 10 10 9 8 9 7 7 6 5 5 4 3 2 2 1 1 1 0 -0 -1 -1 -1 -2 -2 -3 -4 -4 -5 -5 -5 -4 -4 -3 -3 -2 -2 -1 -1 -1 -1 -1
8 9 7 8 7 7 6 6 6 6 5 4 3 2 1 1 1 0 -0 -1 -1 -2 -2 -2 -3 -3 -4 -4 -5 -5 -5 -5 -4 -4 -4 -3 -3 -3 -2 -2 -2 -1 -1
9 7 5 4 4 4 6 6 6 6 5 3 2 1 1 0 -0 -1 -1 -1 -2 -2 -3 -4 -5 -4 -5 -5 -5 -5 -5 -4 -4 -3 -3 -3 -3 -3 -3 -3 -3 -2 -1
8 5 3 4 6 6 5 5 6 5 2 1 1 1 -0 -0 -1 -2 -2 -2 -3 -4 -5 -5 -5 -5 -5 -5 -4 -4 -4 -4 -3 -3 -2 -2 -2 -3 -3 -3 -3 -2 -1
3 2 4 6 6 6 5 6 5 2 1 1 0 -0 -1 -1 -2 -2 -2 -3 -3 -4 -4 -5 -4 -3 -3 -3 -3 -3 -4 -4 -4 -3 -2 -3 -3 -4 -3 -3 -3 -3 -2
3 5 6 6 6 4 4 5 2 1 0 0 -0 -1 -1 -2 -2 -3 -3 -3 -3 -4 -4 -4 -3 -3 -2 -3 -3 -4 -4 -4 -5 -4 -4 -5 -5 -5 -4 -3 -3 -3 -3
4 6 6 6 5 4 2 2 0 -1 -0 -1 -1 -2 -2 -3 -3 -4 -3 -3 -4 -5 -4 -4 -3 -3 -3 -3 -4 -4 -4 -4 -4 -4 -4 -4 -4 -3 -2 -2 -3 -3 -3
5 5 5 5 5 3 2 0 -1 -1 -1 -2 -3 -3 -3 -4 -4 -4 -4 -4 -5 -6 -6 -5 -5 -5 -4 -4 -5 -5 -5 -5 -5 -5 -4 -3 -4 -3 -2 -2 -2 -2 -2
5 5 5 4 4 2 1 -0 -1 -2 -2 -3 -3 -4 -5 -4 -4 -4 -4 -4 -5 -6 -6 -6 -6 -6 -6 -5 -5 -5 -5 -5 -5 -4 -4 -4 -4 -4 -3 -3 -2 -2 -2

GFSMW_925_temp_003.txt.gz
Temp
28 26 23 21 19 19 18 18 17 17 16 16 16 16 16 16 16 15 14 14 14 13 13 14 14 13 13 12 12 12 12 12 12 12 13 13 14 13 14 13 14 14 13
26 25 23 21 19 19 18 18 18 17 16 17 17 17 17 16 16 16 14 13 13 13 13 13 13 13 13 13 12 12 12 12 13 12 12 13 14 15 13 13 14 14 14
25 24 22 21 20 19 18 18 18 18 17 16 17 16 15 15 15 15 14 14 13 13 13 13 13 12 12 12 12 12 12 12 12 12 13 12 13 13 13 14 13 12 12
24 24 22 22 20 19 18 18 18 18 17 16 16 16 16 16 17 17 16 15 14 13 13 13 12 12 12 12 11 12 11 11 11 12 12 12 12 12 11 12 12 13 12
24 24 23 22 21 20 18 17 17 17 17 16 15 15 15 15 15 15 14 13 13 13 12 12 12 11 11 11 11 11 11 11 11 11 11 12 12 12 13 12 13 12 13
24 24 23 22 21 20 18 17 17 17 16 16 15 14 14 14 14 14 13 12 12 12 12 11 10 10 10 10 10 10 10 10 10 10 10 11 11 12 12 13 13 13 13
23 23 23 22 21 20 19 17 17 16 16 16 15 14 13 13 12 12 11 11 10 10 10 9 9 8 8 8 8 8 8 8 8 9 9 10 10 11 11 12 12 12 12
23 22 22 21 20 20 19 18 18 17 16 16 15 13 12 11 11 11 9 9 9 9 8 7 7 7 7 7 7 7 7 7 8 8 8 9 10 10 11 11 12 12 12
22 22 22 21 20 19 19 19 18 17 16 15 15 13 11 10 10 9 8 8 8 8 8 7 6 6 6 6 6 6 6 6 7 7 8 8 8 9 9 10 10 11 10
22 22 21 20 19 19 18 18 17 17 16 15 13 10 9 8 8 8 7 7 7 7 7 6 6 6 6 5 5 5 5 6 6 6 7 7 7 8 9 9 9 9 10
22 21 21 20 19 18 17 16 16 15 14 13 10 9 8 8 7 7 7 7 6 6 6 5 5 5 5 5 5 5 5 5 5 5 5 6 6 7 7 7 7 7 8
21 21 20 19 18 18 17 16 14 13 13 10 9 8 7 7 7 6 6 6 5 5 5 5 4 4 4 4 4 4 4 4 4 5 5 5 6 6 7 7 7 7 7
21 20 19 18 17 17 16 14 13 12 11 9 8 7 7 7 6 6 6 5 5 5 5 4 4 4 4 4 3 3 3 3 3 3 4 4 4 5 5 6 6 6 7
20 19 18 17 15 16 15 13 12 10 10 9 8 8 7 6 6 5 5 5 5 4 4 3 3 3 3 3 3 3 2 2 2 2 1 1 1 2 2 3 4 5 6
19 18 16 14 13 14 14 12 11 10 9 8 8 7 6 6 5 5 5 4 4 3 3 3 3 3 2 2 2 2 1 0 -0 -1 -1 -2 -1 -1 -1 -0 0 1 3
18 16 13 12 13 13 13 12 10 10 9 8 7 7 6 6 5 5 4 4 3 3 3 3 2 2 2 2 0 -1 -1 -2 -3 -3 -3 -3 -2 -2 -2 -2 -2 -1 -0
16 13 11 12 12 11 11 11 10 8 6 7 6 6 6 5 4 4 4 3 3 2 2 2 2 1 1 -0 -1 -3 -3 -4 -4 -4 -4 -3 -2 -2 -2 -1 -2 -2 -2
12 9 11 11 11 9 10 9 6 6 6 6 7 6 5 4 4 4 3 3 2 2 1 1 0 -0 -1 -2 -3 -4 -4 -5 -5 -4 -4 -3 -3 -3 -2 -2 -2 -1 -1
8 11 10 10 7 7 6 5 4 6 7 7 6 5 4 4 3 3 3 2 1 1 0 -0 -1 -3 -3 -4 -4 -5 -5 -4 -4 -4 -4 -3 -3 -3 -3 -3 -3 -2 -2
11 11 9 6 4 4 4 6 7 7 7 6 5 4 4 3 3 2 1 1 1 0 -1 -2 -3 -4 -4 -4 -4 -4 -4 -3 -3 -3 -3 -3 -3 -4 -3 -3 -3 -2 -2
10 8 4 4 6 6 7 7 7 7 6 4 4 3 3 3 2 1 1 0 -0 -2 -3 -3 -4 -4 -4 -3 -3 -3 -3 -3 -3 -3 -3 -2 -3 -3 -3 -3 -3 -3 -2
10 5 4 6 6 6 7 7 8 6 4 3 3 3 3 2 1 1 0 -1 -1 -1 -3 -3 -3 -3 -3 -3 -2 -3 -4 -4 -4 -4 -4 -3 -3 -3 -4 -4 -4 -3 -3
5 5 6 6 6 7 6 7 5 4 3 3 3 2 1 1 0 -0 -1 -1 -1 -2 -3 -4 -4 -3 -3 -3 -3 -4 -4 -4 -4 -4 -4 -4 -4 -4 -4 -4 -4 -4 -3
3 5 5 6 7 6 5 5 3 2 2 2 1 1 0 -0 -1 -1 -1 -1 -2 -3 -4 -4 -4 -4 -4 -4 -4 -4 -4 -4 -4 -4 -4 -4 -4 -3 -3 -2 -2 -3 -3
4 5 6 6 7 6 4 3 2 1 1 1 0 -0 -0 -1 -2 -2 -2 -3 -3 -4 -5 -5 -5 -5 -5 -5 -5 -5 -5 -5 -4 -5 -3 -3 -2 -2 -2 -1 -2 -3 -2
4 5 6 6 6 5 4 3 2 1 -0 -1 -1 -2 -2 -2 -2 -2 -2 -3 -4 -5 -5 -6 -6 -6 -6 -5 -5 -4 -4 -4 -4 -3 -3 -3 -3 -3 -3 -2 -2 -2 -2

GFSMW_925_temp_006.txt.gz
Temp
28 28 26 24 22 21 20 19 19 18 17 17 16 16 16 16 16 16 16 15 14 14 13 14 14 14 13 13 13 12 12 12 12 12 12 12 12 12 13 13 13 13 14
26 26 25 23 22 21 20 19 18 18 17 17 17 17 17 17 16 16 16 14 14 14 14 13 13 13 13 12 12 12 12 12 12 11 11 9 11 13 12 12 13 13 13
24 24 24 23 22 20 20 19 19 18 18 17 17 17 17 16 16 16 15 14 14 14 13 13 13 13 12 12 12 12 12 11 11 11 11 9 9 10 12 12 12 12 12
25 24 24 23 22 21 20 19 19 19 18 18 17 16 17 15 15 15 15 15 15 13 13 13 13 12 12 12 12 11 11 11 10 11 11 11 11 9 9 11 12 12 12
23 23 23 23 22 21 20 19 18 18 18 18 17 16 16 16 16 15 15 15 14 13 13 12 12 12 11 11 10 10 10 10 10 10 10 10 10 10 9 9 10 12 12
22 22 23 23 22 21 20 19 18 18 17 17 17 17 15 15 14 14 13 13 13 12 12 11 10 10 9 9 9 9 9 9 9 8 8 9 9 9 9 9 9 10 11
22 21 21 21 21 21 20 19 18 17 17 17 17 16 15 14 13 13 12 12 11 10 10 9 8 8 8 8 8 8 7 7 7 7 7 8 8 8 9 9 9 9 10
22 22 22 21 21 20 20 20 19 19 18 17 17 16 15 14 13 12 12 10 9 9 9 8 8 7 7 7 7 6 6 6 7 7 7 7 7 8 8 9 9 8 8
22 22 22 21 20 20 19 19 18 18 18 17 17 16 15 14 12 11 10 9 8 8 8 7 7 6 6 6 6 6 6 6 6 6 6 6 6 7 7 7 8 8 7
22 21 21 20 19 19 18 18 18 17 16 16 16 15 13 11 10 9 8 8 7 6 6 6 6 6 6 5 5 5 5 5 5 5 5 5 5 6 6 6 7 7 7
22 21 20 20 18 18 17 16 17 16 15 14 13 12 10 9 8 7 7 6 6 5 5 6 5 5 5 5 5 5 5 4 4 4 4 4 5 5 5 5 6 6 6
21 20 19 19 18 17 15 15 16 15 14 13 11 9 9 8 7 7 6 5 6 5 5 5 5 5 5 5 4 4 4 4 4 4 4 4 4 4 4 5 5 5 6
19 19 19 17 16 15 14 14 15 14 13 11 10 8 8 7 7 6 5 4 5 5 5 5 5 4 4 4 4 3 3 3 3 3 3 3 3 3 3 3 4 4 5
19 19 17 16 15 14 13 14 14 13 11 10 9 8 7 7 7 6 5 5 5 5 4 4 4 3 3 3 3 3 3 3 2 2 2 1 1 1 1 1 1 2 2
17 15 14 15 14 13 13 13 13 12 11 10 9 9 7 6 5 6 5 5 4 4 4 3 3 3 3 3 3 2 1 0 0 -0 -1 -1 -1 -1 -1 -1 -1 -1 -0
14 13 14 12 12 12 12 11 11 11 10 9 7 5 5 6 6 5 5 4 4 4 3 3 3 2 2 2 1 0 -1 -2 -2 -2 -2 -3 -3 -3 -2 -2 -2 -2 -2
13 13 11 11 12 11 10 9 9 7 6 5 4 4 4 6 5 5 4 4 4 3 3 2 2 1 1 0 -1 -2 -3 -3 -3 -4 -4 -4 -3 -3 -3 -3 -2 -2 -2
11 11 11 11 11 9 7 7 6 6 5 4 4 5 6 5 5 4 4 3 3 2 2 1 1 -0 -1 -2 -3 -3 -4 -4 -4 -4 -4 -4 -4 -4 -3 -3 -3 -3 -2
11 10 11 10 8 7 5 5 4 4 3 6 7 6 5 5 4 4 3 2 2 1 1 0 -1 -2 -3 -3 -3 -3 -4 -4 -4 -4 -4 -4 -4 -3 -3 -3 -3 -3 -3
11 11 10 8 7 5 5 6 6 6 7 7 6 5 4 4 4 3 2 1 1 1 -0 -1 -2 -3 -3 -3 -3 -3 -3 -3 -3 -3 -3 -3 -3 -3 -3 -3 -3 -3 -3
11 10 8 6 5 7 6 7 7 7 6 5 5 4 4 4 3 2 1 1 0 -1 -1 -2 -3 -3 -3 -3 -3 -3 -4 -4 -4 -4 -3 -3 -3 -3 -4 -3 -3 -3 -3
10 8 6 6 6 6 5 7 7 5 4 4 4 3 3 2 2 1 0 -0 -1 -1 -2 -3 -4 -4 -4 -4 -4 -4 -4 -4 -4 -4 -4 -4 -4 -4 -4 -4 -4 -3 -3
7 6 6 6 5 6 7 7 4 5 4 3 3 2 1 1 1 -0 -0 -1 -1 -2 -3 -4 -4 -4 -4 -4 -4 -5 -5 -4 -5 -5 -4 -4 -4 -4 -4 -4 -3 -4 -4
5 5 5 5 6 6 6 4 3 3 3 2 2 1 1 0 -1 -1 -1 -1 -2 -3 -4 -5 -5 -5 -5 -5 -5 -5 -4 -4 -4 -4 -4 -4 -4 -3 -3 -3 -3 -3 -3
4 4 5 6 6 6 5 4 3 2 2 1 0 0 -1 -2 -2 -2 -2 -2 -3 -4 -5 -5 -5 -5 -6 -6 -5 -4 -4 -4 -4 -4 -4 -4 -4 -4 -4 -4 -2 -3 -3
4 5 5 7 6 6 5 4 3 1 -1 -2 -1 -2 -2 -3 -2 -2 -3 -3 -4 -4 -4 -5 -5 -6 -6 -6 -5 -5 -4 -4 -4 -4 -4 -5 -5 -4 -4 -4 -2 -2 -2

GFSMW_925_temp_009.txt.gz
Temp
21 22 23 22 22 21 21 20 19 19 18 18 17 17 16 16 16 16 16 15 14 14 14 14 13 13 13 13 12 12 12 12 12 11 11 11 12 11 12 11 12 12 12
19 21 22 22 22 21 20 20 19 19 18 18 17 17 16 16 16 16 16 15 14 14 14 14 13 13 13 13 12 12 11 11 11 11 10 7 10 11 11 11 11 11 12
21 20 22 22 21 21 21 20 19 19 18 18 17 17 16 16 16 16 15 15 15 15 14 13 13 13 13 12 12 12 11 11 11 11 10 7 7 8 10 10 11 11 11
20 20 21 22 21 21 21 20 20 19 19 18 17 17 17 16 16 17 16 15 14 14 14 13 13 13 12 12 11 10 10 10 9 10 10 10 9 8 8 9 9 10 10
18 20 21 21 21 21 21 20 19 19 19 18 18 17 17 17 16 16 16 15 15 14 13 13 12 11 11 11 10 9 10 9 8 8 8 8 8 8 7 7 8 9 9
19 19 21 21 21 20 20 20 20 19 19 18 18 17 17 16 16 15 14 14 13 12 12 12 11 11 9 9 8 8 9 9 8 8 8 7 7 7 7 6 7 7 8
17 20 20 19 20 20 20 19 18 18 18 18 18 17 17 17 16 16 14 13 12 11 10 9 9 8 8 8 7 6 6 7 7 7 7 6 6 6 6 6 6 6 7
19 19 19 18 18 19 19 18 18 18 18 18 17 16 16 16 16 15 13 12 10 9 8 8 7 6 5 5 4 4 6 6 6 6 6 6 5 5 6 6 6 5 6
20 20 18 18 18 18 17 16 16 16 16 17 16 15 15 14 13 12 11 9 8 8 7 6 5 4 4 4 5 6 6 6 5 5 5 5 5 5 5 5 5 5 4
18 16 16 17 17 17 16 15 14 14 15 15 14 13 13 11 10 9 8 7 6 6 5 4 4 3 5 5 5 5 5 5 5 5 4 4 4 4 4 4 4 4 4
15 15 16 17 16 15 14 13 13 13 14 14 13 12 10 10 9 8 7 7 6 5 4 4 4 4 5 5 5 5 5 4 4 4 4 4 4 3 3 3 4 4 4
16 15 14 15 15 14 13 12 12 13 13 12 11 9 9 8 8 7 6 6 5 5 4 5 5 5 5 5 4 4 4 3 3 3 3 3 3 3 3 2 2 3 3
14 13 13 13 13 13 12 12 12 12 12 11 9 8 8 8 7 6 6 6 5 4 5 5 5 4 4 4 3 3 3 3 3 3 2 2 2 2 2 1 1 1 2
13 12 12 12 12 12 11 12 11 11 12 10 9 8 8 7 7 6 5 5 5 5 5 4 4 4 3 3 3 2 2 2 1 1 0 0 0 -0 -0 -1 -1 -1 -1
12 12 12 11 11 11 10 11 10 10 10 10 8 6 5 5 5 5 5 5 5 5 4 4 3 3 3 2 2 1 0 -1 -1 -1 -1 -1 -1 -1 -1 -1 -1 -2 -2
12 12 11 11 11 10 10 9 8 8 7 6 5 4 4 4 3 3 3 4 5 4 3 3 3 2 2 1 0 -1 -2 -2 -3 -3 -3 -3 -3 -3 -3 -3 -3 -3 -3
11 11 10 10 10 10 8 7 7 6 6 4 4 3 3 3 3 3 4 4 4 3 2 2 1 1 -0 -1 -1 -2 -3 -3 -4 -4 -4 -4 -4 -4 -4 -4 -3 -3 -3
10 9 10 9 8 7 7 6 5 4 4 3 4 4 4 4 5 5 4 3 3 2 1 1 0 -1 -1 -2 -2 -3 -3 -4 -4 -4 -4 -4 -4 -4 -4 -4 -4 -4 -4
9 10 9 8 7 6 6 5 5 4 4 4 5 5 5 4 4 4 3 2 2 1 1 -0 -1 -2 -2 -3 -3 -4 -4 -4 -4 -4 -4 -4 -4 -4 -4 -3 -4 -4 -4
11 10 8 7 6 6 6 6 6 6 5 5 5 4 4 4 3 2 2 1 1 -0 -1 -1 -2 -3 -3 -3 -4 -4 -4 -4 -4 -4 -4 -4 -4 -4 -3 -3 -3 -3 -3
10 8 7 6 6 6 5 5 6 5 5 4 4 4 3 3 2 1 1 -0 -1 -1 -2 -3 -3 -4 -4 -4 -4 -4 -5 -5 -5 -5 -4 -4 -4 -4 -4 -4 -4 -3 -3
6 5 5 5 6 5 5 5 4 4 4 4 3 3 2 1 1 -0 -1 -1 -1 -2 -3 -4 -4 -5 -5 -5 -5 -5 -5 -5 -5 -4 -4 -4 -4 -4 -4 -4 -4 -4 -4
4 4 4 5 4 6 6 5 3 3 3 2 2 1 1 0 -1 -1 -2 -2 -2 -3 -4 -5 -6 -6 -5 -5 -6 -5 -5 -4 -4 -4 -4 -4 -4 -4 -4 -4 -4 -4 -4
3 4 5 5 5 6 5 4 3 3 2 1 0 -0 -1 -2 -2 -2 -2 -2 -4 -4 -5 -5 -6 -6 -5 -6 -6 -5 -5 -4 -4 -4 -4 -4 -5 -4 -4 -4 -4 -3 -3
4 4 4 5 5 5 4 4 3 2 1 -0 -1 -2 -2 -3 -3 -3 -3 -3 -4 -4 -5 -5 -5 -6 -6 -6 -6 -5 -4 -4 -4 -4 -5 -5 -6 -6 -5 -5 -4 -3 -3
4 3 4 5 4 4 3 2 1 1 -0 -2 -3 -4 -3 -3 -4 -4 -4 -4 -4 -4 -5 -5 -6 -7 -7 -6 -6 -6 -5 -5 -4 -5 -5 -6 -6 -6 -6 -5 -4 -3 -3

GFSMW_925_temp_012.txt.gz
Temp
18 19 21 21 21 20 20 20 20 19 19 18 17 17 17 16 16 16 16 15 15 15 14 14 13 13 13 13 12 12 12 11 11 11 11 11 11 11 11 11 12 11 11
17 18 19 21 21 21 21 20 20 20 19 18 18 18 17 17 17 16 16 15 15 15 15 14 14 13 13 12 12 12 11 11 11 10 8 6 9 10 10 10 10 10 10
18 18 19 21 21 21 21 21 21 20 20 19 18 18 17 16 16 16 16 16 15 14 14 14 14 13 13 13 12 12 11 10 10 10 9 6 5 7 9 9 9 10 9
18 19 20 19 20 21 21 20 20 20 19 18 18 17 17 16 17 17 16 16 16 15 14 14 13 13 12 12 11 10 9 9 8 8 9 8 7 5 6 8 8 8 9
17 17 18 21 21 21 21 21 20 20 19 18 18 17 16 17 17 17 16 16 15 15 14 13 12 12 11 10 9 9 8 7 7 7 7 7 7 7 5 5 7 7 7
17 17 20 20 20 20 19 19 19 19 18 18 18 17 17 16 15 16 15 15 14 14 14 12 11 10 9 9 8 7 6 5 6 7 6 5 5 5 5 4 5 5 6
15 16 18 17 18 18 18 17 17 17 17 16 16 16 16 16 15 15 14 13 11 11 10 9 8 7 5 5 5 5 6 6 6 6 6 6 5 5 5 4 4 4 5
16 17 16 16 17 17 16 16 16 15 15 15 16 16 15 15 15 15 14 12 11 9 7 6 6 5 4 4 3 3 4 4 5 6 5 5 5 5 4 4 3 3 4
14 14 15 16 15 15 14 14 14 14 14 14 14 14 14 14 14 13 11 9 8 6 5 5 4 4 3 4 3 4 5 5 5 5 5 5 4 4 4 4 4 3 2
14 13 14 15 15 15 14 14 14 13 12 13 13 13 13 13 12 10 8 7 6 5 5 5 4 3 3 4 4 5 5 5 5 4 4 4 4 3 3 3 3 3 2
13 12 13 14 14 14 14 13 12 11 11 12 12 12 10 10 9 8 7 7 6 6 6 4 5 5 5 5 5 4 4 4 4 3 3 3 3 3 2 3 2 2 2
12 11 12 13 12 12 12 11 11 11 11 11 11 10 9 8 7 7 6 6 6 6 5 4 4 5 5 4 4 4 3 3 3 2 2 2 2 2 2 2 1 1 1
12 10 11 12 12 12 11 11 10 10 10 11 10 9 7 7 7 6 6 5 5 5 5 5 5 4 4 4 3 3 3 2 2 2 1 1 0 0 0 0 -0 -0 -0
11 11 10 10 11 10 10 10 9 9 9 9 7 6 6 6 6 5 5 5 5 5 5 5 4 4 3 3 2 2 1 1 0 -0 -0 -1 -1 -1 -1 -1 -1 -1 -1
11 10 9 10 10 10 9 9 8 7 8 8 7 5 5 4 4 4 4 3 4 4 4 4 3 3 2 1 1 0 -0 -1 -2 -2 -2 -3 -3 -3 -2 -2 -2 -2 -2
11 11 10 10 9 9 9 8 7 6 6 7 5 4 3 3 2 2 3 3 4 3 3 3 2 1 1 0 -1 -1 -2 -2 -3 -4 -4 -4 -4 -3 -3 -3 -3 -3 -3
10 10 9 9 9 8 7 7 5 4 4 4 3 3 3 2 3 3 3 3 3 3 2 1 1 0 -1 -1 -2 -2 -3 -3 -4 -4 -4 -4 -4 -4 -4 -4 -4 -4 -4
10 10 9 8 8 7 7 6 5 5 4 4 3 3 3 3 3 3 3 3 2 1 1 0 -1 -1 -2 -2 -3 -3 -4 -4 -4 -4 -4 -5 -5 -4 -4 -4 -4 -4 -4
9 9 9 8 7 6 6 5 5 6 5 4 4 4 4 4 3 3 2 1 1 0 -0 -1 -2 -3 -3 -3 -4 -4 -4 -5 -5 -5 -5 -5 -4 -4 -4 -4 -4 -4 -4
9 8 7 6 6 6 5 5 5 5 4 4 4 4 3 2 2 1 1 -0 -1 -1 -2 -2 -3 -3 -4 -4 -5 -5 -5 -5 -5 -5 -5 -5 -5 -5 -4 -4 -4 -4 -3
7 5 5 5 5 5 5 5 4 4 4 4 3 2 2 1 1 0 -1 -1 -2 -2 -3 -3 -4 -4 -4 -5 -5 -5 -5 -5 -5 -5 -5 -5 -4 -4 -4 -4 -4 -4 -4
4 4 4 4 4 4 4 4 4 4 3 3 2 1 1 -0 -1 -1 -2 -2 -2 -3 -4 -4 -5 -5 -4 -5 -5 -5 -5 -5 -5 -4 -4 -4 -4 -4 -4 -4 -4 -4 -4
3 3 3 4 5 5 5 5 3 3 3 2 1 0 -1 -1 -2 -2 -3 -3 -4 -4 -4 -5 -6 -6 -5 -6 -6 -6 -6 -5 -4 -5 -5 -5 -5 -5 -5 -5 -5 -4 -4
3 3 3 3 3 4 4 4 3 2 1 0 -0 -2 -2 -3 -3 -3 -3 -4 -4 -5 -5 -5 -6 -6 -6 -6 -6 -5 -5 -4 -4 -4 -5 -5 -5 -6 -6 -5 -5 -4 -3
3 2 1 2 3 4 3 2 1 1 1 -1 -2 -3 -3 -3 -3 -4 -4 -4 -4 -5 -5 -5 -6 -7 -7 -7 -6 -6 -5 -5 -5 -5 -5 -6 -7 -7 -6 -6 -5 -4 -3
1 2 3 3 3 3 1 1 0 -0 -1 -2 -3 -3 -4 -4 -4 -4 -5 -4 -5 -5 -5 -6 -7 -7 -7 -6 -7 -7 -6 -6 -6 -6 -7 -7 -7 -7 -7 -6 -6 -5 -5

GFSMW_925_temp_015.txt.gz
Temp
16 17 19 20 20 20 20 20 20 20 19 18 17 17 17 17 17 17 17 17 16 15 14 15 14 13 13 13 13 12 12 12 11 10 11 11 11 11 11 10 10 10 10
15 15 17 19 20 21 20 20 20 19 19 19 19 18 18 18 17 17 17 16 16 16 15 14 14 14 13 13 13 12 12 11 11 10 8 6 8 10 10 10 9 9 9
16 16 17 19 20 20 20 20 20 20 19 19 18 18 17 17 17 17 17 17 16 16 15 15 14 14 14 13 13 12 11 11 10 9 9 5 5 5 9 9 9 9 8
17 17 18 18 20 21 20 20 20 20 19 18 17 17 16 15 17 18 17 17 16 16 15 15 14 14 13 13 12 11 10 10 8 8 8 8 7 4 3 7 7 7 7
16 16 18 20 21 20 20 20 19 18 17 17 16 16 15 16 15 15 15 15 15 14 15 15 14 12 12 11 10 9 8 7 7 6 6 6 6 5 3 4 5 5 5
16 16 17 18 19 18 17 17 17 17 17 16 15 15 14 15 14 14 14 14 13 13 13 13 11 11 10 8 6 5 5 5 4 4 4 4 4 4 4 2 4 4 4
14 14 14 15 16 16 16 16 15 15 15 15 15 15 14 14 13 14 14 13 12 11 10 9 8 7 5 4 3 3 3 3 3 3 3 2 2 3 4 3 3 3 4
14 14 13 13 14 14 15 15 15 14 14 13 13 13 13 13 13 13 13 12 9 8 6 5 4 3 3 4 4 4 4 3 2 2 4 4 4 4 4 3 3 2 3
11 11 13 13 14 14 15 14 14 13 12 11 11 12 12 12 13 12 12 10 7 5 4 4 4 4 4 3 3 3 4 4 4 4 4 4 4 4 4 3 3 2 1
11 11 12 13 14 13 13 13 12 11 11 11 11 11 11 11 11 11 10 8 6 5 5 5 5 5 4 3 3 4 4 4 4 4 3 3 3 3 3 3 2 2 1
11 11 11 13 13 12 12 11 11 10 10 10 10 10 10 10 9 8 8 6 5 6 6 6 5 4 4 4 4 4 4 3 3 3 3 2 2 2 2 2 2 1 1
11 10 11 12 12 11 11 10 10 9 10 9 9 10 9 7 6 6 6 6 6 6 6 5 5 5 4 4 4 3 3 3 2 2 2 2 1 1 1 1 1 0 0
12 11 11 11 11 11 10 10 9 9 8 8 8 8 8 6 6 5 5 5 5 5 5 5 4 4 4 3 3 2 2 2 1 1 1 0 -0 -1 -1 -1 -1 -1 -1
11 11 10 10 10 10 10 9 9 8 7 7 6 7 6 5 5 4 4 3 3 3 3 4 3 3 3 2 2 1 1 1 -0 -1 -1 -1 -2 -2 -3 -3 -2 -2 -2
11 10 10 9 10 9 9 9 8 7 6 5 5 4 4 3 3 2 2 2 1 3 3 3 3 2 2 1 1 0 -1 -1 -2 -2 -2 -3 -3 -3 -3 -3 -3 -3 -3
10 9 10 10 9 9 9 8 7 6 5 4 4 3 3 2 1 1 2 2 2 2 2 2 1 1 0 -0 -1 -1 -2 -3 -3 -3 -4 -4 -4 -4 -3 -4 -4 -4 -4
10 10 9 9 9 8 7 6 6 5 5 4 4 4 3 2 2 2 2 2 2 2 1 1 -0 -1 -1 -2 -2 -3 -3 -3 -4 -4 -5 -5 -5 -5 -5 -5 -5 -5 -4
10 9 10 8 7 6 6 6 5 5 4 4 4 3 3 3 3 3 2 2 1 0 -0 -1 -2 -2 -3 -3 -3 -4 -4 -5 -5 -5 -5 -5 -5 -5 -5 -4 -5 -4 -4
9 9 7 5 6 6 6 5 4 4 4 3 4 4 3 3 2 1 1 0 -0 -1 -2 -2 -3 -3 -3 -4 -4 -5 -5 -5 -5 -5 -5 -5 -5 -5 -5 -5 -5 -5 -4
7 6 5 5 4 5 4 4 3 4 4 4 3 3 2 2 1 0 -0 -1 -2 -2 -3 -3 -4 -4 -4 -4 -4 -5 -5 -5 -6 -6 -5 -5 -5 -5 -5 -5 -4 -4 -4
5 4 3 2 3 4 4 2 2 3 3 3 2 2 1 0 -0 -1 -2 -2 -3 -3 -4 -4 -4 -4 -4 -5 -5 -5 -5 -6 -6 -6 -5 -5 -5 -5 -4 -4 -5 -4 -4
4 3 3 2 3 4 4 4 3 3 2 2 1 1 -0 -1 -2 -2 -3 -3 -3 -4 -4 -5 -5 -5 -5 -5 -6 -6 -5 -6 -5 -5 -5 -5 -5 -5 -5 -5 -5 -5 -5
3 3 3 3 2 3 4 3 3 3 2 1 0 -1 -2 -2 -3 -3 -3 -4 -4 -5 -5 -5 -6 -6 -6 -6 -6 -6 -6 -5 -5 -5 -5 -5 -6 -6 -6 -6 -6 -5 -5
2 2 1 1 2 2 2 2 2 1 1 -0 -1 -2 -3 -3 -4 -4 -4 -5 -5 -5 -6 -6 -7 -7 -7 -7 -6 -6 -6 -5 -5 -5 -6 -5 -6 -7 -7 -6 -6 -5 -5
2 2 2 2 2 3 2 1 0 -0 -1 -1 -2 -3 -3 -4 -4 -4 -5 -5 -5 -5 -6 -6 -6 -7 -7 -7 -6 -7 -6 -6 -6 -6 -6 -7 -7 -8 -7 -7 -7 -6 -6
2 2 2 2 2 1 1 0 -0 -1 -2 -2 -3 -3 -3 -4 -4 -4 -5 -5 -5 -6 -6 -6 -7 -7 -7 -7 -7 -7 -7 -7 -7 -7 -8 -9 -9 -8 -8 -8 -8 -7 -7

GFSMW_925_temp_018.txt.gz
Temp
16 16 18 19 19 20 20 20 20 20 19 19 18 18 18 18 18 18 18 17 17 16 15 15 14 14 14 14 14 13 12 12 12 11 11 11 11 11 11 10 10 10 10
15 15 16 18 19 20 20 20 20 20 20 19 18 17 17 17 17 18 18 17 17 17 16 15 14 14 14 14 13 13 12 12 11 10 7 6 8 10 10 10 9 9 9
16 16 16 18 19 20 20 21 20 19 17 17 16 16 16 16 16 17 17 17 16 15 16 16 15 15 14 13 14 13 12 11 11 10 10 4 5 4 9 9 9 8 8
17 16 17 17 19 19 18 18 17 17 16 15 15 14 14 13 15 14 15 15 15 15 14 13 13 14 12 12 12 12 11 10 9 7 8 7 7 4 5 7 7 7 7
14 14 16 16 16 16 16 16 15 14 14 14 14 14 13 13 12 13 13 13 14 13 13 12 11 11 10 10 10 9 9 8 8 7 5 5 5 6 4 3 4 5 5
14 14 15 15 15 15 15 15 15 15 15 15 14 12 12 12 12 12 12 12 12 12 12 11 10 9 8 8 7 7 6 5 5 4 4 3 3 2 2 1 2 3 4
11 11 10 12 13 14 15 15 14 14 13 13 12 12 12 11 11 12 12 11 11 11 10 9 7 6 5 4 4 4 3 3 3 2 2 2 1 0 -0 -0 1 2 3
10 9 10 12 13 13 14 13 13 12 12 12 11 11 11 10 11 11 10 10 10 8 6 5 4 4 3 3 3 2 3 2 2 1 0 -0 0 0 0 2 2 2 2
9 10 11 13 14 14 13 12 12 11 11 11 10 10 10 10 10 11 11 9 8 6 4 4 4 4 4 4 3 2 1 0 0 -0 0 0 1 1 2 2 2 1 1
10 11 12 13 13 12 12 11 11 10 10 10 10 9 9 9 9 10 9 7 6 4 4 5 5 5 5 4 3 2 2 1 2 2 2 2 2 2 2 2 2 2 1
11 10 11 12 12 12 11 11 10 10 10 9 9 8 8 8 8 7 6 5 4 5 5 5 4 5 5 4 3 3 3 3 3 3 2 2 2 2 2 1 1 1 0
10 10 11 11 11 12 11 11 10 10 9 8 8 7 7 6 5 5 4 4 4 4 4 3 4 4 3 3 3 3 3 2 2 2 2 1 1 0 -0 -0 -1 -1 -1
10 10 11 11 11 11 11 10 10 9 8 7 7 6 5 5 4 4 3 3 3 3 1 1 2 2 3 3 3 2 2 1 1 1 0 -0 -1 -1 -1 -1 -2 -2 -2
12 11 9 10 10 10 10 9 9 8 7 6 6 5 4 3 2 1 1 1 1 1 1 2 2 2 2 2 1 1 0 -0 -1 -1 -1 -2 -2 -3 -3 -3 -3 -4 -4
9 9 9 10 10 9 9 8 7 6 6 5 5 4 3 2 1 1 1 1 1 2 1 2 2 1 1 0 -0 -1 -1 -1 -2 -2 -2 -3 -3 -3 -3 -4 -4 -4 -4
8 9 10 10 10 8 7 6 6 6 5 5 4 3 3 2 2 2 2 1 1 1 0 1 1 0 -0 -1 -1 -2 -3 -3 -3 -4 -4 -4 -5 -4 -5 -5 -4 -4 -4
9 9 9 8 6 5 5 5 5 5 4 4 4 3 2 2 2 2 2 1 1 1 0 -0 -1 -1 -2 -3 -3 -4 -4 -4 -5 -5 -5 -5 -5 -5 -5 -5 -5 -4 -4
7 7 6 5 4 3 3 4 4 4 3 3 2 2 3 3 3 2 1 1 0 -0 -1 -2 -2 -3 -3 -3 -4 -5 -5 -5 -5 -5 -5 -6 -6 -6 -6 -5 -5 -5 -5
6 5 4 3 3 4 3 3 3 3 3 2 2 2 2 2 1 1 0 -0 -1 -2 -2 -3 -3 -4 -4 -4 -5 -5 -5 -5 -5 -5 -6 -6 -6 -5 -5 -5 -5 -5 -5
6 5 3 3 3 3 3 3 3 3 3 2 2 1 1 1 0 -1 -1 -2 -3 -3 -3 -4 -4 -5 -5 -5 -5 -6 -6 -6 -6 -6 -6 -6 -5 -5 -5 -5 -5 -4 -4
5 3 3 2 3 3 3 3 3 2 2 2 1 1 0 -1 -2 -2 -3 -3 -3 -4 -4 -5 -5 -5 -5 -5 -5 -6 -6 -6 -6 -6 -6 -5 -5 -5 -5 -5 -5 -6 -6
4 3 2 3 2 2 2 2 2 2 1 1 0 -0 -1 -2 -3 -3 -3 -4 -4 -5 -5 -5 -5 -5 -6 -6 -6 -7 -6 -6 -6 -6 -5 -5 -5 -6 -6 -6 -6 -6 -6
3 2 2 2 2 2 2 2 2 2 1 -0 -1 -1 -2 -3 -4 -4 -4 -5 -5 -5 -6 -6 -7 -7 -7 -7 -6 -6 -6 -6 -6 -6 -6 -6 -6 -6 -6 -6 -7 -6 -6
2 2 2 2 2 2 2 2 1 1 -0 -1 -2 -2 -3 -4 -4 -4 -4 -5 -5 -6 -6 -7 -7 -7 -8 -8 -7 -7 -7 -7 -6 -6 -7 -7 -7 -7 -7 -7 -7 -7 -7
3 2 2 1 2 2 2 1 0 -0 -1 -2 -2 -3 -3 -4 -4 -4 -5 -5 -5 -6 -6 -7 -7 -7 -8 -8 -7 -7 -7 -7 -7 -7 -8 -8 -9 -9 -9 -8 -8 -8 -8
3 2 2 1 1 1 0 -0 -1 -1 -2 -3 -3 -4 -4 -4 -5 -5 -5 -5 -6 -6 -7 -7 -7 -7 -8 -8 -8 -8 -8 -8 -8 -8 -9 -10 -10 -11 -10 -10 -9 -8 -8

GFSMW_925_temp_021.txt.gz
Temp
18 17 19 19 19 19 19 20 20 20 18 17 16 17 17 17 17 17 17 16 16 16 15 14 14 14 13 14 14 13 11 11 11 10 11 11 10 10 10 10 10 10 10
19 17 17 18 18 19 19 18 16 16 16 15 15 15 15 16 16 16 16 16 15 15 14 14 14 13 11 12 12 11 11 10 10 12 12 13 13 10 9 9 9 9 9
19 18 17 15 15 15 15 15 15 15 15 14 14 15 15 14 14 14 14 15 14 14 14 13 12 12 11 10 11 10 10 12 11 10 13 13 13 13 9 8 9 8 8
18 17 16 15 13 14 15 15 14 14 14 14 14 13 12 12 12 11 11 12 13 13 13 13 12 11 10 9 9 10 9 10 11 9 9 9 10 12 13 9 8 7 7
16 16 15 13 12 14 13 14 14 14 14 13 13 11 10 10 10 10 10 10 11 12 12 12 12 11 9 8 8 8 7 8 8 10 10 7 8 7 10 12 10 6 6
14 14 13 13 13 14 14 14 14 14 12 12 11 11 11 10 10 10 10 10 10 10 11 11 10 9 8 7 5 5 5 5 6 5 5 6 8 8 7 7 7 7 6
13 14 14 14 13 13 13 12 13 11 11 12 13 12 11 10 9 9 9 9 8 8 8 8 7 5 4 3 4 3 3 3 3 2 2 1 1 1 0 0 2 3 5
13 14 13 13 13 12 12 11 11 12 13 12 11 11 10 9 8 8 8 7 6 6 6 5 4 3 4 3 3 3 2 2 1 1 0 0 -0 -0 -0 0 1 2 4
14 14 14 13 12 12 11 12 12 12 11 11 10 10 9 9 7 7 7 6 5 5 3 3 4 5 5 4 4 3 2 0 0 0 0 0 0 0 0 1 1 2 3
15 15 14 13 12 12 11 11 11 10 10 9 9 8 7 6 6 6 5 4 4 3 4 4 3 3 3 2 2 2 1 1 1 1 1 1 1 1 1 1 2 2 3
14 14 13 12 11 11 11 10 9 9 8 7 7 7 6 5 5 4 4 3 2 3 3 3 3 2 1 1 2 3 2 2 2 2 2 2 1 2 2 2 2 2 2
13 13 12 11 11 11 11 10 9 9 8 8 7 6 6 5 5 3 3 2 2 2 1 1 0 0 1 1 2 2 1 1 1 2 1 1 1 1 1 0 0 1 1
13 13 12 12 11 11 10 9 8 7 6 6 5 5 4 4 2 2 1 1 1 1 1 0 1 2 1 2 2 1 1 1 1 0 -0 -0 -1 -1 -1 -1 -1 -1 -0
12 12 12 11 11 10 9 7 7 6 6 5 5 4 3 2 2 1 1 1 1 1 1 1 1 1 1 0 0 -0 -0 -1 -1 -1 -2 -2 -2 -2 -2 -2 -2 -2 -2
11 11 11 10 9 8 7 6 5 5 5 4 4 3 2 2 2 1 1 1 1 1 1 1 0 0 0 -1 -2 -1 -2 -2 -2 -2 -2 -2 -3 -3 -4 -3 -2 -2 -2
10 10 9 8 7 6 5 4 4 4 4 4 3 3 2 2 2 1 2 1 1 1 0 -0 -1 -1 -2 -2 -2 -3 -3 -3 -3 -3 -3 -3 -4 -4 -4 -5 -4 -4 -4
9 8 8 6 5 4 3 3 3 3 3 3 3 3 2 2 2 1 1 1 0 -1 -1 -1 -2 -2 -3 -3 -4 -4 -4 -4 -4 -4 -4 -4 -4 -4 -4 -4 -5 -5 -5
8 7 6 5 4 3 3 2 3 3 3 3 2 2 1 1 1 1 0 -1 -1 -2 -2 -2 -3 -3 -3 -4 -5 -5 -4 -4 -5 -4 -4 -4 -5 -5 -5 -5 -5 -4 -4
7 6 5 4 3 3 3 3 3 3 3 2 2 1 0 0 -0 -0 -1 -2 -2 -2 -3 -3 -4 -4 -4 -5 -5 -6 -5 -5 -5 -5 -5 -5 -5 -5 -5 -5 -4 -4 -3
6 5 4 3 3 3 2 3 3 2 1 1 1 1 0 -1 -1 -2 -2 -3 -3 -3 -4 -4 -5 -5 -5 -6 -6 -6 -5 -5 -5 -5 -4 -5 -5 -5 -5 -5 -5 -4 -4
5 4 3 3 3 2 2 3 3 2 1 1 1 -0 -1 -2 -2 -3 -3 -3 -3 -4 -5 -5 -5 -6 -6 -6 -7 -6 -6 -6 -5 -5 -4 -5 -5 -5 -5 -6 -6 -5 -5
5 4 3 3 2 2 2 2 2 2 1 1 -0 -1 -2 -3 -3 -3 -3 -4 -4 -5 -6 -6 -6 -6 -7 -7 -7 -7 -7 -6 -6 -5 -5 -5 -6 -6 -6 -7 -6 -6 -6
5 3 2 2 2 2 2 2 2 1 1 -0 -1 -2 -3 -3 -4 -4 -4 -4 -4 -5 -5 -5 -5 -6 -6 -6 -7 -7 -7 -7 -7 -6 -6 -7 -8 -8 -7 -7 -7 -7 -6
4 3 2 2 2 2 2 1 1 0 -1 -1 -2 -2 -3 -3 -4 -4 -4 -5 -5 -5 -5 -6 -6 -6 -6 -6 -7 -7 -7 -7 -7 -7 -7 -8 -8 -8 -8 -7 -7 -7 -7
3 3 2 2 2 2 1 0 0 -1 -1 -2 -3 -3 -4 -4 -4 -5 -5 -5 -6 -6 -6 -6 -7 -7 -7 -7 -7 -8 -8 -7 -8 -8 -8 -8 -8 -8 -8 -8 -7 -7 -7
3 2 2 2 1 1 0 -0 -1 -2 -2 -3 -3 -4 -4 -5 -5 -5 -5 -6 -6 -7 -7 -8 -8 -8 -8 -8 -8 -9 -9 -9 -9 -9 -9 -9 -9 -9 -8 -8 -8 -8 -7

GFSMW_925_temp_024.txt.gz
Temp
24 22 20 20 20 19 19 19 19 18 17 18 18 19 19 18 18 17 16 15 15 14 14 15 15 15 15 15 15 15 15 15 15 14 15 15 15 14 14 14 14 14 12
24 22 20 19 18 18 17 18 17 17 17 17 16 16 16 16 16 16 16 15 14 14 14 14 14 14 14 14 14 14 14 14 14 15 15 16 17 15 14 14 14 13 13
23 22 20 18 18 17 17 17 16 16 15 15 16 16 17 17 17 16 15 14 13 13 13 13 13 13 13 13 13 13 13 14 14 14 14 16 16 17 16 13 13 13 12
22 21 20 18 17 16 16 16 16 16 15 14 15 15 15 15 14 14 14 13 13 12 12 12 12 12 12 12 12 13 12 13 13 14 14 13 14 16 15 14 13 12 12
20 20 18 17 16 15 15 15 16 15 14 14 13 14 14 14 14 13 13 12 13 12 12 11 10 10 11 11 10 10 10 11 11 12 12 12 12 12 12 14 13 11 11
19 18 18 18 17 16 15 15 15 15 13 13 12 12 11 12 12 12 12 12 12 12 12 11 9 9 8 8 8 8 8 8 8 8 8 8 8 8 10 11 12 11 10
19 19 18 18 17 16 15 15 15 15 14 13 13 12 12 12 12 11 11 10 10 10 10 8 8 8 7 6 6 5 4 3 3 2 2 1 1 1 1 1 3 5 6
19 19 18 17 17 15 15 14 14 14 14 13 13 12 11 11 11 10 9 9 9 9 8 7 6 6 6 5 4 4 3 2 1 1 1 0 0 0 0 0 1 2 3
18 19 18 17 16 16 15 14 14 14 14 13 12 11 11 10 9 9 8 8 7 7 6 6 6 5 4 4 3 3 2 1 2 2 1 1 1 1 0 0 1 1 3
18 18 17 16 15 15 15 13 13 13 12 12 11 10 9 9 8 7 7 7 6 6 5 5 4 3 2 2 2 2 2 2 2 2 2 2 2 2 2 2 2 2 4
17 17 16 15 14 14 14 13 12 12 11 11 10 9 9 8 7 7 6 6 5 4 3 2 1 1 1 1 1 1 2 2 3 3 3 4 4 4 4 4 4 4 4
17 17 16 15 15 14 13 12 11 10 10 9 9 8 8 7 7 6 5 5 4 2 1 1 1 2 2 2 2 3 3 3 3 3 3 3 3 3 3 3 3 3 4
17 17 16 15 14 13 12 11 10 10 9 9 8 8 7 6 6 5 3 2 2 2 2 3 3 3 3 3 3 3 2 2 2 2 2 2 2 2 2 2 2 2 2
17 16 15 14 13 11 10 10 9 8 7 7 7 7 6 5 4 3 3 3 4 4 3 3 2 2 2 2 2 1 1 1 1 1 1 1 1 1 1 1 1 1 1
15 14 13 13 11 10 9 8 7 7 7 7 7 6 5 3 2 2 2 3 3 3 3 2 2 2 2 2 -1 -1 -0 0 1 0 -0 -0 -0 -2 -2 -2 -1 -0 1
14 12 11 11 10 9 8 7 7 6 6 6 6 5 4 3 3 3 3 3 3 3 2 2 2 1 1 -1 -2 -3 -2 -1 -1 -0 -1 -1 -1 -1 -2 -3 -4 -4 -3
11 11 11 10 9 8 7 7 6 6 6 6 5 5 4 4 4 3 3 3 2 2 2 1 1 0 0 -2 -3 -4 -3 -2 -1 -1 -1 -1 -1 -2 -2 -3 -4 -4 -4
9 11 10 9 8 7 7 6 6 6 5 5 5 4 4 3 3 3 2 2 2 1 1 1 -0 -0 -1 -3 -5 -5 -4 -2 -2 -2 -2 -2 -3 -3 -4 -4 -4 -4 -3
8 10 9 8 7 7 7 6 6 6 5 4 3 3 3 3 2 2 2 1 1 1 0 -1 -1 -2 -2 -4 -5 -6 -4 -3 -3 -4 -4 -4 -4 -4 -4 -4 -4 -3 -2
10 9 8 8 8 7 6 6 6 5 5 4 4 3 2 2 2 1 1 0 0 -0 -1 -2 -3 -3 -3 -5 -6 -6 -5 -5 -4 -4 -4 -4 -4 -4 -5 -5 -4 -4 -3
9 9 8 8 7 6 5 5 5 5 5 4 3 3 2 2 1 1 0 -0 -1 -1 -3 -4 -4 -4 -4 -5 -6 -6 -6 -6 -5 -5 -4 -4 -4 -5 -6 -6 -5 -5 -5
10 9 8 8 7 6 5 5 5 5 4 3 3 2 1 1 0 0 -0 -0 -1 -2 -4 -4 -4 -4 -5 -5 -5 -6 -6 -6 -6 -5 -5 -5 -6 -6 -7 -7 -6 -7 -6
9 8 8 7 6 6 5 5 5 4 3 3 2 2 1 0 0 -0 -1 -1 -2 -3 -4 -4 -4 -5 -5 -4 -6 -6 -6 -6 -6 -6 -6 -6 -7 -7 -7 -6 -7 -7 -5
8 7 7 7 6 6 5 5 4 3 3 2 2 1 1 -0 -0 -1 -1 -2 -3 -4 -4 -4 -5 -5 -5 -5 -6 -6 -7 -7 -6 -7 -6 -7 -7 -7 -7 -6 -6 -6 -5
7 6 6 6 6 5 5 4 3 2 2 1 1 0 -0 -1 -1 -2 -2 -3 -4 -5 -6 -5 -6 -6 -6 -7 -8 -8 -8 -8 -8 -8 -7 -7 -7 -6 -6 -6 -6 -6 -6
5 5 5 5 5 5 4 3 2 1 1 0 -0 -0 -2 -1 -2 -2 -3 -4 -5 -6 -7 -8 -8 -8 -8 -8 -8 -9 -9 -9 -9 -7 -7 -8 -8 -7 -7 -6 -6 -6 -6

GFSMW_925_temp_030.txt.gz
Temp
24 23 22 22 22 22 22 21 20 19 20 21 20 20 19 19 19 19 18 17 17 16 15 15 15 15 15 15 15 15 15 15 15 15 15 15 15 16 16 16 17 16 16
23 22 21 20 21 21 21 20 19 19 19 19 19 19 18 19 18 18 18 17 17 16 15 15 14 14 14 13 13 13 14 14 14 14 14 13 14 15 15 16 16 16 16
23 22 21 20 19 19 20 19 19 18 17 18 18 18 18 18 18 17 17 16 15 15 14 14 14 13 13 12 12 12 12 12 12 13 13 12 12 13 14 15 15 15 15
23 22 21 19 19 18 19 19 18 18 17 16 16 16 16 16 15 16 15 15 14 14 13 13 12 12 11 11 11 11 10 10 10 10 10 9 9 9 9 12 13 13 13
22 22 21 19 18 18 18 18 18 18 17 16 16 15 15 14 14 14 14 13 13 12 12 11 11 11 10 10 10 9 8 7 7 6 5 6 6 7 7 8 9 10 10
22 22 21 21 19 18 18 18 18 18 18 17 16 15 15 14 14 14 13 12 11 11 10 10 10 9 8 7 7 7 6 5 5 5 5 3 3 3 3 3 4 4 5
22 22 21 21 20 19 18 18 17 17 17 16 16 15 14 13 13 12 12 11 10 10 9 9 8 7 7 6 6 6 5 4 4 2 2 2 1 1 1 1 1 2 2
22 22 21 20 19 19 18 17 17 16 16 15 15 13 13 12 12 12 10 10 9 9 7 7 6 6 5 5 5 4 4 3 3 2 2 2 2 2 1 1 1 2 2
21 21 21 20 19 18 17 17 16 16 15 14 13 13 12 12 12 11 10 9 9 7 6 5 4 4 4 4 4 3 2 2 2 2 2 2 2 2 2 1 1 1 1
22 21 20 19 19 18 17 16 15 15 14 13 12 12 11 11 10 10 9 8 7 6 5 5 4 3 3 3 3 3 3 3 3 2 2 2 3 3 3 2 1 1 1
21 21 20 19 18 17 16 16 14 14 13 12 11 11 10 10 10 9 7 6 6 6 5 5 4 3 4 4 4 4 4 3 3 3 4 3 3 4 4 4 4 3 2
21 20 19 18 16 16 16 15 13 12 11 10 10 10 10 9 8 7 7 5 5 5 5 4 3 3 4 4 4 4 4 4 4 3 3 3 3 3 3 3 3 4 4
21 19 18 17 16 15 15 13 12 11 10 10 10 9 9 7 6 5 5 4 4 4 4 4 4 4 4 5 4 4 4 2 2 1 2 2 2 2 2 2 2 2 3
19 18 17 16 15 14 13 12 11 11 10 10 9 9 8 6 5 5 4 4 4 4 4 4 4 4 4 4 3 3 2 1 0 -0 0 1 1 2 2 1 1 1 -0
16 15 14 14 13 13 12 12 11 10 10 9 9 9 7 6 5 5 5 5 5 4 4 4 4 4 3 2 1 1 -1 -1 -1 -1 -1 -0 0 1 1 1 0 -0 -0
13 13 13 12 11 11 12 11 11 10 9 9 9 9 7 6 6 5 5 5 4 4 4 4 3 3 3 1 -0 -1 -2 -2 -3 -3 -2 -1 -1 0 -0 -0 -1 -2 -2
12 12 11 11 11 11 12 10 10 10 10 9 9 9 7 6 5 5 5 4 4 4 3 3 3 2 1 -1 -1 -3 -3 -4 -3 -3 -3 -2 -2 -2 -2 -2 -2 -2 -3
11 10 10 10 11 12 11 11 11 10 9 9 9 8 7 6 5 5 5 4 4 3 3 2 1 -0 -1 -1 -3 -3 -4 -4 -4 -4 -4 -4 -4 -3 -3 -3 -3 -3 -3
10 10 11 12 12 12 12 11 11 10 9 9 9 8 7 6 5 5 4 3 3 3 2 1 -0 -1 -2 -2 -3 -4 -4 -5 -5 -5 -5 -4 -4 -4 -4 -4 -4 -4 -4
11 12 12 13 12 12 11 10 10 10 10 8 7 5 5 5 5 4 3 3 3 2 1 -0 -1 -2 -2 -3 -3 -4 -5 -5 -5 -5 -5 -5 -5 -5 -5 -6 -5 -5 -5
12 12 12 12 11 10 9 9 9 9 7 6 5 5 5 4 4 3 3 3 2 2 -0 -1 -2 -3 -3 -3 -4 -5 -6 -6 -6 -6 -6 -6 -5 -6 -5 -6 -6 -6 -6
12 11 11 10 10 9 9 9 9 8 7 6 5 4 2 3 3 3 3 2 2 1 -2 -3 -3 -3 -3 -4 -4 -6 -6 -6 -7 -7 -7 -6 -7 -6 -6 -6 -6 -6 -6
11 10 10 9 9 8 8 8 7 6 5 4 3 3 3 2 2 2 2 1 0 -1 -3 -3 -3 -4 -4 -5 -5 -7 -7 -7 -7 -8 -7 -7 -7 -6 -6 -6 -5 -5 -5
10 9 8 8 8 8 7 7 6 4 3 3 2 1 0 0 2 1 1 0 -1 -2 -3 -3 -4 -5 -6 -6 -7 -8 -8 -8 -8 -8 -8 -7 -7 -7 -7 -6 -6 -6 -5
9 8 8 8 8 7 6 5 4 3 2 0 0 -0 -0 1 -0 -0 -0 -1 -2 -2 -3 -4 -5 -6 -7 -7 -8 -8 -8 -8 -8 -8 -7 -7 -8 -8 -8 -7 -7 -6 -6
7 7 7 6 6 6 5 4 3 2 0 -1 -1 -1 -1 -1 -1 -1 -1 -2 -3 -3 -4 -5 -6 -6 -7 -8 -8 -8 -8 -8 -8 -8 -8 -8 -8 -8 -8 -8 -8 -8 -7

GFSMW_925_temp_033.txt.gz
Temp
19 19 19 20 20 20 19 19 19 18 19 19 19 19 19 19 19 18 18 17 17 16 15 15 14 14 14 13 13 13 12 12 12 12 12 13 13 14 14 14 15 15 15
18 18 18 19 19 19 19 18 19 18 18 18 18 18 18 18 18 16 16 16 15 14 14 13 13 13 12 12 12 11 11 11 10 10 10 10 11 12 12 13 13 12 13
17 17 17 18 19 19 19 18 18 18 18 17 17 18 18 17 16 15 14 14 14 13 12 12 12 11 11 11 10 10 10 9 8 8 7 7 7 8 10 11 11 11 10
17 17 17 17 18 18 18 18 18 18 17 17 16 16 15 15 14 14 14 13 13 12 11 10 10 10 10 10 9 8 8 8 6 7 7 6 4 6 6 9 8 9 7
16 16 17 18 18 17 17 18 18 17 17 16 16 15 15 14 14 13 13 12 11 11 10 10 10 9 8 7 7 7 6 6 6 4 4 4 4 4 2 4 5 4 4
17 18 18 18 18 18 18 17 17 17 16 15 15 14 14 13 13 12 11 11 10 9 9 9 8 7 7 7 6 6 5 5 4 4 4 2 3 3 2 3 3 2 3
16 16 17 17 17 17 17 17 16 16 15 15 14 13 12 12 12 11 10 10 9 8 8 7 7 6 6 5 5 5 5 4 4 3 2 1 2 2 1 1 1 1 1
18 16 18 18 18 17 17 17 16 16 14 13 13 12 12 11 11 10 10 9 9 8 7 7 6 5 4 4 4 4 3 3 2 2 2 2 1 2 1 1 1 1 1
18 16 17 18 18 18 17 16 15 14 13 12 12 11 11 10 10 10 9 8 7 7 6 5 4 4 4 3 3 3 3 3 3 3 3 2 2 2 2 1 1 -0 0
19 17 17 17 17 16 16 15 14 13 12 11 11 10 10 10 9 8 8 7 6 6 5 5 4 5 4 4 3 3 3 3 3 3 3 3 3 3 3 3 3 1 1
17 16 16 16 16 16 15 14 13 12 11 11 10 10 9 9 8 7 7 6 6 5 5 5 4 4 4 4 4 4 4 4 4 3 2 2 2 2 2 3 3 3 2
17 15 16 16 15 15 14 12 12 11 11 10 10 10 9 8 8 7 6 5 5 5 4 5 4 4 4 4 4 4 3 3 2 2 1 1 1 1 1 2 2 2 2
14 13 13 13 13 13 12 12 12 11 10 10 9 9 9 8 7 6 5 5 5 4 4 4 4 4 4 4 3 3 2 1 1 0 -0 -1 -0 -0 -0 1 1 1 1
13 12 12 12 11 11 12 12 11 11 10 10 9 9 9 7 6 5 5 5 4 4 4 4 4 3 3 3 2 1 0 -0 -1 -2 -2 -2 -2 -1 -1 -1 -0 1 1
12 11 10 10 10 11 11 11 11 10 10 10 9 9 9 7 6 5 5 5 4 4 4 4 3 3 2 1 0 -1 -2 -2 -3 -3 -3 -3 -3 -2 -2 -2 -2 -1 -1
10 10 10 10 10 10 11 11 11 11 10 10 9 9 9 7 6 5 5 4 4 4 4 3 2 2 1 -0 -1 -2 -3 -3 -4 -4 -4 -4 -4 -3 -3 -3 -3 -3 -3
9 9 8 9 10 10 11 11 11 10 10 8 9 8 7 6 5 5 4 4 4 3 3 2 1 1 -0 -1 -2 -3 -3 -4 -4 -4 -4 -5 -5 -5 -4 -4 -4 -4 -3
8 8 9 9 10 11 10 10 9 9 9 9 8 7 6 5 4 2 4 4 3 3 3 1 0 -0 -1 -2 -2 -3 -3 -4 -4 -5 -5 -5 -5 -5 -5 -4 -5 -4 -4
8 9 10 9 10 10 9 9 9 8 8 7 7 5 4 3 1 2 1 3 3 3 2 1 -0 -1 -2 -3 -3 -3 -4 -4 -5 -6 -6 -6 -6 -6 -5 -5 -6 -5 -5
9 9 10 10 10 9 9 8 8 8 7 6 5 5 3 1 0 1 2 3 3 1 0 -1 -2 -2 -3 -3 -4 -4 -5 -6 -6 -7 -7 -7 -6 -6 -6 -6 -5 -6 -6
10 10 10 9 8 8 8 8 7 6 5 4 4 3 2 2 1 2 3 2 1 -0 -1 -2 -2 -3 -4 -4 -5 -6 -7 -7 -7 -8 -7 -7 -7 -7 -6 -6 -6 -6 -6
9 9 9 8 8 8 8 7 6 5 4 3 3 2 2 1 2 2 2 1 0 -1 -2 -2 -3 -4 -4 -5 -6 -7 -7 -7 -8 -8 -8 -8 -8 -7 -6 -6 -6 -6 -5
9 8 7 7 7 7 7 6 5 4 3 2 1 1 0 1 1 1 0 -0 -1 -1 -2 -3 -4 -4 -5 -6 -7 -7 -8 -8 -8 -8 -8 -8 -7 -8 -7 -7 -7 -6 -5
7 7 6 6 6 6 5 5 5 3 2 1 0 -0 -0 -0 -0 -0 -0 -1 -1 -2 -3 -3 -4 -5 -6 -7 -8 -8 -8 -8 -8 -8 -8 -8 -8 -8 -8 -8 -8 -7 -7
6 6 5 5 4 4 4 4 3 2 1 1 -0 -1 -1 -2 -1 -1 -1 -2 -2 -3 -3 -4 -5 -5 -6 -7 -7 -7 -8 -8 -8 -8 -8 -9 -9 -9 -8 -8 -8 -8 -8
5 5 4 3 3 2 2 2 1 0 -0 -0 -1 -1 -2 -2 -2 -2 -2 -2 -3 -3 -3 -4 -4 -5 -7 -7 -7 -7 -8 -8 -8 -9 -9 -9 -9 -9 -9 -9 -9 -9 -8

GFSMW_925_temp_036.txt.gz
Temp
16 16 17 18 18 18 17 16 16 16 16 16 17 17 17 16 16 15 15 15 14 14 14 13 13 13 12 11 11 11 11 11 10 10 10 10 11 11 11 11 10 10 11
15 15 16 17 17 17 17 17 17 17 17 17 16 16 16 15 15 14 14 14 14 13 12 12 12 11 11 11 10 10 9 9 8 8 8 7 9 9 9 9 9 9 9
15 15 15 16 17 17 17 17 17 17 17 17 17 17 17 16 15 13 13 12 12 12 12 11 11 10 10 10 9 8 8 7 8 7 7 5 5 6 8 8 8 8 7
15 15 15 17 17 17 17 17 17 16 16 16 15 15 15 14 14 13 12 12 11 11 11 10 10 9 8 8 7 7 7 6 6 6 5 5 5 3 5 6 6 5 5
14 14 15 17 18 18 18 17 17 16 16 15 15 14 14 13 13 12 12 12 11 11 10 10 9 8 7 7 6 6 5 5 5 4 3 3 3 4 2 2 3 2 3
14 15 17 17 17 17 17 16 16 16 15 15 15 14 13 12 12 11 11 10 10 9 9 8 7 7 6 5 4 4 4 3 3 3 2 1 2 2 2 3 3 2 2
14 14 15 15 16 16 16 17 16 15 14 14 13 12 12 11 11 11 10 10 9 8 7 6 6 6 5 4 4 4 3 3 3 2 2 2 2 2 1 1 1 2 2
15 14 15 16 16 16 17 16 15 13 13 12 12 11 11 11 10 10 9 8 7 6 6 6 5 5 4 4 4 3 3 3 3 3 2 2 1 1 1 0 0 1 1
15 15 15 15 15 15 15 15 14 12 12 11 11 10 10 10 9 8 8 7 6 6 5 5 4 4 4 4 4 3 3 3 3 3 3 2 2 2 2 2 1 1 1
18 15 15 15 14 14 14 13 13 13 12 11 10 10 9 9 9 8 7 6 6 5 5 5 5 4 4 4 4 3 3 3 3 3 3 2 2 2 2 1 2 2 0
14 13 13 13 13 13 13 13 12 11 11 11 10 10 9 9 9 8 7 6 6 6 5 4 4 4 4 4 3 3 3 3 2 1 1 1 1 0 0 1 1 1 1
12 12 12 12 12 12 12 11 11 11 11 10 10 10 9 9 8 8 7 6 6 5 4 4 4 4 4 3 3 3 1 1 0 -0 -0 -1 -1 -1 -1 -1 -1 -1 -0
11 11 11 11 11 11 11 11 11 10 10 10 10 10 9 9 8 7 6 6 5 5 4 4 4 3 3 3 2 1 0 -0 -1 -1 -2 -2 -2 -2 -2 -2 -2 -1 -1
10 10 9 9 10 10 10 10 11 10 10 10 10 9 9 9 7 6 6 5 5 4 4 4 3 3 3 2 1 0 -1 -1 -2 -2 -3 -3 -4 -4 -3 -3 -2 -3 -2
9 9 8 9 9 10 10 11 11 11 10 10 9 9 9 8 7 6 5 5 4 4 4 3 3 3 2 1 -0 -1 -2 -2 -3 -3 -4 -4 -4 -4 -4 -4 -4 -4 -4
9 8 8 8 9 10 9 9 9 9 9 9 9 8 8 7 7 6 5 4 3 1 3 3 3 2 0 -1 -1 -2 -3 -3 -4 -4 -4 -4 -5 -5 -5 -5 -5 -4 -4
8 7 7 8 8 8 9 9 9 8 8 8 7 7 6 6 5 4 3 1 0 0 3 2 1 -0 -1 -2 -3 -3 -3 -4 -4 -5 -5 -5 -6 -5 -6 -5 -5 -5 -5
7 7 8 8 9 9 8 8 8 8 7 6 5 5 4 4 4 2 0 -0 -0 -0 1 1 -1 -1 -2 -3 -3 -4 -4 -5 -5 -5 -6 -6 -6 -6 -6 -6 -6 -5 -5
7 8 9 9 8 8 8 7 7 6 6 5 4 4 4 3 3 1 0 2 1 1 0 -1 -2 -2 -3 -4 -4 -5 -5 -6 -6 -6 -7 -7 -7 -7 -6 -6 -6 -6 -5
8 9 8 7 7 7 7 7 6 6 5 4 4 3 3 2 1 1 1 1 1 1 -1 -2 -2 -3 -4 -4 -5 -6 -7 -7 -8 -8 -8 -8 -7 -7 -7 -6 -6 -6 -6
8 8 7 7 7 7 6 6 6 5 4 4 3 2 1 1 0 -0 0 0 0 -1 -1 -2 -3 -4 -4 -5 -6 -7 -7 -8 -8 -8 -8 -8 -8 -7 -7 -7 -6 -6 -6
7 7 6 6 6 6 5 5 5 4 4 3 2 1 1 1 0 0 0 -1 -1 -1 -2 -3 -4 -4 -5 -6 -7 -7 -8 -8 -8 -8 -8 -8 -7 -7 -7 -7 -7 -6 -6
6 6 5 5 5 4 4 3 3 3 2 1 0 -0 -1 -0 -0 -0 -0 -1 -2 -2 -3 -4 -4 -5 -5 -6 -7 -7 -8 -8 -8 -8 -8 -8 -8 -8 -8 -8 -8 -7 -7
5 5 5 4 3 3 2 2 2 2 1 0 -1 -0 -1 -1 -2 -2 -2 -2 -3 -3 -3 -4 -4 -5 -5 -6 -7 -7 -8 -8 -8 -8 -8 -9 -9 -9 -9 -9 -8 -8 -8
4 4 3 3 2 1 1 0 0 -0 -1 -1 -1 -1 -1 -2 -3 -2 -2 -3 -3 -3 -4 -4 -4 -5 -6 -7 -7 -7 -7 -8 -8 -9 -9 -9 -9 -10 -9 -9 -9 -9 -8
3 3 2 2 1 0 -0 -1 -1 -2 -2 -2 -2 -2 -2 -3 -3 -3 -3 -3 -3 -4 -4 -4 -4 -5 -6 -7 -7 -7 -8 -8 -9 -9 -10 -10 -10 -10 -10 -10 -10 -10 -9

GFSMW_925_temp_042.txt.gz
Temp
12 12 13 13 14 14 15 15 15 15 15 13 14 15 15 15 16 16 15 15 14 14 13 13 12 11 11 10 9 9 8 8 7 7 7 8 8 8 8 8 7 7 7
12 12 14 15 15 15 15 15 16 16 15 16 15 16 16 15 15 15 15 14 13 13 12 11 11 10 10 9 8 7 7 6 6 6 6 4 6 6 7 7 6 6 6
12 12 13 13 14 15 16 16 16 17 17 17 16 15 15 15 15 14 13 12 12 11 10 10 9 9 8 8 7 7 6 5 5 5 5 3 3 3 6 6 4 4 4
12 12 12 14 16 16 16 17 17 17 17 16 16 16 15 15 14 12 11 11 10 10 9 9 8 8 7 7 7 6 6 4 4 4 4 4 3 2 3 4 4 3 3
12 12 14 14 16 16 16 16 16 16 16 15 15 15 14 13 11 11 10 10 9 9 8 8 7 7 6 6 5 5 4 4 3 3 2 2 1 2 2 2 3 2 2
13 14 14 14 15 14 15 15 15 14 14 14 13 13 12 12 11 11 10 9 9 8 8 7 7 6 5 5 4 4 4 3 3 2 1 1 1 2 2 2 2 2 2
12 12 13 13 13 14 14 13 14 13 12 12 12 11 11 11 11 10 10 10 9 9 8 7 7 6 5 5 4 4 4 3 3 2 2 2 1 1 1 1 1 -0 1
12 12 14 14 13 13 13 14 12 12 11 11 11 11 11 11 10 10 9 9 8 8 8 7 7 6 5 4 4 3 3 3 3 3 2 2 2 2 1 0 0 0 1
13 12 12 13 13 13 13 12 12 11 11 11 11 11 10 10 10 9 9 8 8 8 7 6 5 5 4 4 3 3 3 3 3 3 2 2 1 0 -0 -0 -1 -1 -2
11 10 11 11 11 11 11 11 11 11 11 10 10 10 10 10 9 9 9 8 8 7 6 5 5 4 3 3 3 3 3 2 2 2 1 0 -0 -0 -0 -0 -1 -1 -2
9 8 9 10 11 11 12 11 10 10 11 11 10 10 9 9 8 8 8 8 7 6 5 5 4 4 3 3 3 3 2 2 2 0 -0 -0 -1 -1 -1 -2 -2 -3 -3
8 8 9 10 10 10 10 10 10 10 10 9 9 9 8 8 7 7 7 6 6 5 4 4 4 3 3 3 3 2 2 1 -0 -1 -1 -1 -2 -3 -3 -3 -4 -4 -4
8 8 8 9 9 9 9 9 9 9 9 9 8 9 8 8 7 7 7 6 6 5 4 4 3 2 2 2 2 1 0 -1 -1 -2 -2 -3 -3 -4 -4 -4 -5 -5 -5
8 8 7 8 8 8 9 9 9 9 8 8 8 7 7 6 6 6 6 6 6 4 3 2 2 1 -0 0 0 -1 -1 -2 -2 -3 -3 -4 -4 -5 -5 -5 -5 -5 -5
8 8 7 7 8 8 8 8 8 8 7 7 7 6 6 6 5 5 5 4 3 2 1 1 0 -1 -0 -0 -1 -2 -2 -2 -3 -4 -4 -4 -5 -5 -5 -5 -6 -6 -6
8 8 7 7 7 7 7 7 7 7 7 7 6 5 5 5 4 4 3 2 2 1 1 -1 -1 -1 -1 -1 -2 -3 -3 -4 -4 -5 -5 -6 -6 -6 -6 -6 -6 -6 -6
7 7 6 6 7 7 7 7 6 6 6 6 6 5 4 4 3 2 2 1 -0 -0 -0 -1 -1 -1 -2 -2 -3 -3 -4 -5 -5 -6 -7 -7 -7 -7 -8 -8 -7 -7 -7
7 6 6 6 6 6 6 6 6 5 5 5 5 4 3 3 2 2 1 0 0 0 -1 -1 -2 -2 -2 -3 -3 -4 -5 -6 -6 -7 -8 -8 -8 -8 -8 -7 -7 -7 -7
7 6 6 6 6 6 5 5 4 4 3 3 3 3 2 2 2 1 1 0 -0 -1 -1 -2 -2 -2 -3 -4 -5 -6 -6 -7 -7 -8 -8 -8 -8 -8 -7 -7 -7 -7 -7
7 6 6 6 5 5 4 3 3 2 1 1 2 2 2 1 1 -0 -0 -0 -1 -1 -2 -2 -2 -3 -4 -5 -6 -6 -7 -7 -8 -8 -8 -8 -8 -8 -7 -7 -7 -7 -7
6 6 5 5 4 3 3 2 1 1 0 1 1 1 1 -0 -1 -1 -1 -1 -1 -2 -2 -3 -3 -4 -5 -5 -6 -7 -7 -7 -8 -8 -9 -8 -8 -8 -7 -8 -8 -8 -8
5 5 4 4 3 2 2 1 1 0 -0 -0 -0 -1 -1 -1 -2 -2 -1 -3 -2 -3 -3 -3 -4 -4 -5 -6 -6 -7 -7 -7 -8 -8 -9 -9 -8 -8 -8 -9 -9 -9 -8
4 4 3 3 3 2 1 1 0 -0 -1 -2 -3 -3 -2 -2 -2 -2 -3 -3 -3 -3 -3 -4 -4 -4 -5 -6 -6 -7 -7 -8 -8 -9 -9 -10 -10 -10 -10 -10 -9 -9 -9
4 3 2 2 2 1 1 -0 -1 -2 -2 -2 -2 -2 -3 -3 -3 -3 -3 -3 -3 -4 -4 -4 -5 -5 -5 -6 -6 -7 -7 -8 -9 -9 -10 -10 -10 -10 -10 -10 -10 -10 -10
3 2 1 1 1 0 -0 -1 -2 -3 -3 -3 -2 -3 -3 -3 -3 -4 -3 -4 -4 -5 -4 -4 -5 -5 -5 -6 -6 -7 -7 -8 -9 -10 -10 -10 -11 -11 -11 -11 -11 -11 -11
2 1 1 -0 -1 -1 -2 -2 -2 -2 -3 -3 -3 -4 -3 -4 -4 -4 -4 -4 -4 -4 -5 -5 -5 -5 -5 -6 -7 -7 -8 -9 -9 -10 -11 -11 -11 -12 -12 -12 -12 -12 -13

GFSMW_925_temp_045.txt.gz
Temp
13 13 13 13 13 13 14 15 16 14 15 15 14 13 14 14 15 15 15 15 14 13 12 12 11 10 10 9 8 8 7 8 7 8 9 9 8 7 7 7 6 6 5
15 13 13 13 14 14 15 14 14 14 15 15 13 15 14 14 15 14 14 13 12 12 11 11 10 10 8 8 7 6 7 7 6 7 8 10 10 8 7 6 5 5 5
16 15 14 13 14 14 15 15 16 16 16 15 15 15 14 13 12 12 13 12 11 11 11 10 9 9 8 7 7 6 5 6 6 5 6 9 9 7 7 6 5 4 4
15 14 14 14 14 15 16 16 16 15 15 15 15 15 14 14 13 12 11 11 11 10 9 9 9 8 8 7 6 5 5 4 6 5 4 4 4 5 5 6 5 5 4
16 15 15 15 13 14 15 15 15 15 14 14 14 14 13 12 11 11 10 10 10 9 9 8 8 8 7 6 6 5 4 4 4 4 3 3 3 3 4 5 6 5 4
15 15 14 14 13 14 14 14 14 14 14 14 14 13 12 11 10 10 9 9 9 9 9 8 8 7 7 5 4 4 3 3 3 3 3 3 4 4 3 3 4 3 4
16 16 15 14 13 13 13 13 14 13 12 12 12 12 11 11 11 10 9 9 9 9 9 8 7 6 5 5 4 3 3 3 3 3 3 2 2 2 2 2 1 1 2
15 15 15 14 14 12 12 13 12 12 12 12 11 11 11 10 10 10 9 9 9 8 8 7 6 6 5 5 4 3 3 2 2 2 2 2 2 1 1 0 -0 1 3
15 15 14 13 12 12 11 11 11 11 11 11 11 11 10 10 9 9 9 8 8 7 7 6 6 5 5 4 4 3 3 3 3 2 2 1 1 0 -0 0 0 0 1
14 13 12 11 10 10 11 11 11 10 10 10 10 9 9 9 8 8 8 7 7 6 6 6 5 5 5 4 3 3 3 3 2 1 0 0 0 -0 -1 -1 -1 -1 -0
12 12 11 10 10 9 10 10 10 10 10 9 9 9 9 8 8 8 7 7 6 6 6 5 5 4 3 3 3 2 2 1 1 -0 -0 -0 -1 -1 -1 -1 -2 -2 -2
11 11 10 10 10 9 9 9 9 9 9 9 9 9 9 8 7 7 6 6 6 6 5 3 2 2 2 2 1 1 1 1 -0 -1 -1 -1 -1 -2 -2 -2 -2 -2 -3
11 10 10 10 9 8 8 8 8 8 9 8 8 8 8 7 6 6 5 5 4 4 4 2 1 1 1 1 -0 -0 0 -1 -1 -2 -2 -2 -2 -2 -2 -3 -3 -3 -3
11 10 10 9 9 8 7 8 8 8 8 8 8 7 6 6 5 5 4 4 3 2 2 1 1 0 -0 -1 -2 -1 -1 -2 -2 -3 -3 -3 -3 -3 -3 -4 -4 -4 -4
10 10 10 9 8 7 7 8 8 8 7 7 6 6 5 5 5 4 4 3 2 1 0 -0 -1 -1 -1 -1 -1 -2 -2 -2 -3 -3 -4 -4 -5 -5 -5 -5 -4 -5 -5
10 9 8 8 7 7 7 7 7 7 6 6 6 5 5 4 4 3 3 1 0 -0 0 0 -1 -1 -1 -2 -2 -2 -2 -3 -4 -4 -4 -5 -5 -5 -6 -7 -7 -7 -6
9 8 8 7 7 6 7 6 6 5 5 5 4 4 4 3 3 2 1 1 0 0 0 -1 -1 -2 -2 -2 -2 -3 -4 -4 -5 -5 -5 -5 -6 -7 -6 -7 -7 -6 -6
9 8 7 6 6 6 6 5 4 4 3 3 2 2 2 2 1 1 1 0 -0 -0 -0 -1 -2 -2 -3 -3 -3 -4 -5 -5 -5 -6 -6 -6 -6 -7 -7 -6 -6 -6 -5
8 7 6 6 6 5 5 4 3 2 2 2 1 1 1 1 0 0 -0 -0 -1 -1 -1 -2 -3 -3 -3 -3 -4 -5 -5 -6 -6 -6 -7 -7 -7 -8 -7 -7 -7 -6 -6
6 6 5 5 5 4 4 3 2 1 1 0 0 0 0 -0 -0 -1 -1 -1 -1 -2 -2 -3 -3 -3 -3 -4 -5 -6 -6 -6 -6 -6 -7 -7 -8 -8 -7 -7 -7 -7 -6
5 5 5 5 4 4 3 2 1 1 -0 -1 -1 -1 -1 -1 -1 -1 -1 -1 -2 -3 -3 -3 -3 -3 -4 -4 -5 -6 -6 -6 -6 -6 -7 -7 -8 -8 -8 -8 -8 -8 -8
5 5 4 4 3 3 2 1 1 -0 -1 -1 -2 -2 -2 -2 -2 -2 -2 -2 -3 -3 -3 -3 -3 -4 -4 -5 -5 -6 -7 -7 -7 -7 -8 -8 -9 -9 -9 -9 -9 -9 -9
4 4 3 3 2 2 1 0 -0 -1 -2 -2 -2 -2 -2 -2 -2 -3 -3 -3 -3 -3 -4 -4 -4 -4 -5 -5 -5 -6 -7 -7 -8 -8 -9 -10 -10 -10 -10 -10 -10 -10 -9
4 3 2 2 1 1 0 -1 -1 -2 -2 -3 -2 -2 -2 -2 -3 -3 -3 -3 -4 -4 -4 -4 -4 -4 -5 -5 -6 -6 -7 -7 -8 -9 -9 -10 -10 -10 -10 -10 -10 -10 -11
2 2 1 1 0 -1 -1 -2 -2 -2 -2 -3 -3 -3 -3 -3 -3 -3 -3 -4 -4 -4 -4 -4 -4 -5 -4 -5 -5 -6 -6 -7 -8 -9 -10 -10 -10 -10 -10 -10 -10 -10 -11
2 1 0 -0 -1 -2 -2 -3 -2 -2 -2 -3 -3 -3 -4 -3 -4 -3 -3 -4 -4 -4 -4 -5 -5 -5 -5 -5 -6 -7 -7 -8 -8 -9 -9 -10 -11 -11 -10 -10 -10 -11 -12

GFSMW_925_temp_048.txt.gz
Temp
20 19 18 18 17 16 16 15 14 15 15 15 14 13 14 14 14 15 13 13 13 12 12 13 12 11 11 10 10 10 10 11 10 10 12 12 12 11 11 11 10 9 9
20 18 18 18 18 17 16 16 15 15 15 15 16 16 16 16 15 14 12 12 12 11 11 11 11 10 11 10 9 9 9 10 10 9 9 13 13 13 11 10 9 8 7
20 20 18 18 17 17 17 17 17 16 16 17 16 15 14 15 15 14 13 11 11 11 10 10 10 10 10 10 9 9 8 9 9 9 8 10 11 10 10 10 9 8 8
21 20 19 19 19 18 18 18 17 17 16 16 16 16 17 17 15 14 13 12 10 10 10 10 10 9 9 9 9 8 7 8 8 8 8 8 7 7 8 8 8 8 8
21 21 20 19 19 17 17 16 16 16 15 15 15 15 15 14 14 13 12 11 11 10 10 9 9 9 9 8 7 7 7 7 7 7 7 7 7 7 6 6 7 7 7
21 21 20 19 17 15 15 15 15 15 14 14 14 14 14 13 13 13 12 12 11 11 10 9 9 9 8 8 7 7 6 6 6 6 6 5 4 4 4 5 5 5 6
21 21 20 19 18 16 16 15 16 15 14 13 13 13 12 12 12 12 12 11 11 11 11 10 9 9 8 7 6 6 6 5 5 5 5 4 4 4 4 4 4 5 4
21 21 20 19 18 16 16 16 15 14 13 13 12 12 12 12 12 11 11 11 10 10 9 8 8 7 7 6 6 5 5 5 5 4 4 4 4 3 3 3 3 3 5
21 20 19 18 18 17 15 15 14 13 12 11 11 11 10 10 10 10 9 9 9 8 8 7 7 7 6 6 5 5 5 5 4 4 3 3 4 3 3 3 3 3 3
20 20 19 17 16 15 14 13 13 11 11 10 9 10 10 10 9 9 9 8 8 8 7 7 7 7 6 6 5 5 5 4 4 4 3 3 3 3 3 3 3 3 3
19 18 17 15 14 14 13 12 12 11 10 9 9 10 10 9 9 8 8 7 7 7 7 7 6 6 6 5 5 4 4 3 3 3 3 2 2 2 2 2 2 2 2
18 17 15 14 14 13 12 11 11 9 9 9 10 10 9 9 8 8 7 7 6 6 6 5 5 5 5 4 3 3 2 2 2 3 2 2 2 1 1 1 1 1 1
17 16 15 14 13 11 11 9 9 9 10 10 10 9 9 8 8 7 7 6 5 5 5 4 4 4 3 3 2 1 -0 0 1 1 1 1 1 1 1 1 0 0 0
16 16 15 14 12 11 11 10 9 10 9 9 9 9 8 7 7 6 6 5 5 4 4 4 3 1 0 -0 -1 -0 1 1 1 1 0 0 -0 -0 -1 -1 -1 -1 -1
16 15 15 13 12 11 10 10 10 9 9 9 8 8 7 7 6 5 5 4 4 4 3 2 1 0 0 1 1 1 1 1 1 0 -0 -1 -2 -4 -5 -5 -4 -3 -3
15 15 14 13 12 10 11 9 9 8 8 8 7 7 6 6 5 5 4 4 4 4 3 2 2 2 1 -0 -1 -1 0 0 -0 -1 -1 -2 -2 -3 -5 -5 -6 -6 -5
15 14 13 11 11 10 9 10 8 7 7 6 6 6 5 5 5 4 4 4 3 3 2 2 2 1 1 -1 -2 -2 -1 -1 -1 -2 -2 -2 -3 -4 -4 -5 -6 -5 -6
14 13 11 10 10 9 9 8 7 7 6 5 5 5 4 4 4 4 4 3 3 2 1 0 0 1 0 -2 -2 -3 -2 -2 -2 -3 -3 -3 -4 -4 -6 -6 -6 -5 -5
14 12 11 10 9 9 8 7 7 6 5 5 4 4 3 3 4 4 3 3 2 2 2 -0 -0 -0 -0 -3 -3 -4 -3 -3 -3 -3 -3 -4 -5 -6 -7 -7 -6 -6 -5
12 11 9 8 8 7 6 6 6 5 5 4 3 3 3 3 3 2 2 2 1 1 1 1 -0 -1 -1 -3 -4 -4 -4 -4 -4 -4 -3 -4 -6 -8 -8 -7 -7 -7 -6
10 8 8 8 8 6 5 5 5 5 4 3 2 2 2 2 1 -0 0 1 1 -1 -2 -2 -2 -2 -2 -3 -4 -5 -5 -4 -5 -4 -4 -4 -6 -8 -8 -8 -8 -8 -8
7 7 7 7 6 5 4 5 5 4 3 2 2 1 1 1 1 0 1 1 0 -2 -3 -3 -3 -2 -3 -3 -4 -5 -5 -6 -5 -5 -5 -6 -8 -9 -9 -9 -9 -9 -8
7 6 7 6 5 4 4 4 4 2 2 1 1 1 1 1 1 0 -0 -1 -1 -1 -2 -2 -2 -2 -3 -3 -4 -5 -6 -6 -6 -6 -7 -8 -9 -9 -8 -8 -9 -9 -7
6 6 5 5 5 4 3 3 2 1 1 1 0 -2 -2 -1 -0 -0 -1 -1 -1 -2 -2 -2 -3 -3 -3 -3 -3 -4 -5 -6 -6 -6 -6 -8 -8 -8 -8 -7 -7 -8 -8
4 5 4 4 4 3 2 2 1 1 1 1 -0 -1 -2 -2 -2 -1 -1 -1 -1 -2 -2 -3 -3 -4 -3 -4 -4 -4 -5 -5 -5 -7 -7 -6 -6 -6 -6 -6 -7 -7 -8
5 4 4 3 3 2 2 1 1 1 1 0 0 -1 -2 -2 -2 -2 -2 -2 -2 -3 -4 -4 -4 -4 -4 -4 -5 -5 -6 -6 -7 -7 -6 -5 -6 -7 -7 -7 -7 -7 -8

GFSMW_925_temp_051.txt.gz
Temp
24 23 22 22 23 22 21 16 14 15 14 15 15 15 15 14 14 15 15 15 14 14 14 15 14 13 13 12 12 11 12 12 12 12 12 12 12 14 14 13 13 12 11
24 22 22 21 21 20 19 16 16 16 17 18 18 18 17 17 17 16 14 14 13 13 14 13 13 13 12 12 12 11 11 11 11 11 11 12 12 13 12 11 11 12 11
24 23 22 20 18 17 18 18 18 18 19 19 18 18 18 17 17 16 15 14 13 13 13 12 12 12 11 12 11 10 10 10 10 10 10 10 11 11 11 10 10 10 10
24 23 22 21 20 20 20 20 20 19 19 19 19 18 19 18 17 16 15 15 13 13 12 12 11 11 11 10 10 10 9 9 9 9 10 9 9 9 9 8 8 8 9
24 23 22 22 21 20 20 20 19 19 18 18 18 18 18 17 16 15 14 14 13 13 12 11 11 11 10 10 10 9 9 9 8 9 8 8 8 7 7 7 7 7 7
24 24 22 21 20 19 18 18 18 18 17 17 16 17 16 16 16 15 14 14 14 13 13 12 11 11 10 10 10 8 8 8 7 7 6 6 6 6 5 5 6 6 6
24 24 23 22 20 18 18 18 18 17 16 16 15 15 14 14 14 14 14 13 13 13 12 11 11 10 10 9 9 8 7 7 6 6 6 5 5 5 5 5 4 5 5
24 24 23 22 20 19 18 18 18 17 16 15 14 14 13 14 13 13 12 12 12 11 11 10 9 9 9 9 8 7 6 6 5 5 5 5 5 4 5 4 5 5 5
23 24 23 21 20 19 18 18 18 17 15 14 13 12 12 12 12 12 11 11 10 10 10 9 9 9 8 8 8 7 6 6 6 5 4 4 4 4 5 4 4 4 4
24 23 22 21 20 19 18 17 17 15 13 13 11 11 10 12 11 11 11 10 9 9 9 8 8 8 8 8 8 7 6 5 4 5 5 4 4 4 4 3 4 4 4
24 23 22 21 19 18 16 15 15 14 13 11 10 10 12 11 11 10 10 9 9 8 8 7 7 7 7 7 7 6 5 5 5 4 4 4 4 3 3 3 3 3 3
24 23 21 19 18 17 16 15 14 12 10 10 10 12 11 11 10 10 9 9 8 7 7 7 7 6 6 6 6 5 5 4 3 3 3 2 3 2 2 3 3 3 3
23 21 20 18 17 16 15 14 11 10 10 12 12 12 11 11 10 9 9 8 7 7 6 6 6 6 5 3 3 2 2 2 2 2 2 2 2 2 2 2 2 1 1
21 20 19 18 17 15 14 12 11 11 12 12 12 11 10 10 9 8 8 7 7 6 6 6 5 3 2 2 2 2 1 1 2 2 1 2 2 1 -0 -1 -1 -1 -1
20 20 19 18 16 14 13 13 12 12 11 11 11 10 9 9 8 8 7 6 6 6 6 6 4 3 2 2 2 2 2 2 2 2 2 1 0 -1 -2 -3 -3 -3 -3
20 20 19 17 16 15 13 12 12 11 10 10 10 9 8 8 8 7 7 6 6 6 6 4 3 3 2 1 1 0 1 1 2 2 1 0 -0 -0 -2 -3 -4 -5 -5
20 19 18 16 15 14 13 12 11 10 9 9 9 8 7 7 7 7 6 6 6 5 4 3 2 2 2 -0 0 -1 -1 0 1 0 0 -0 -1 -1 -2 -3 -4 -4 -4
19 18 17 15 14 12 11 11 10 9 9 8 7 7 7 6 6 6 6 6 6 5 3 2 2 0 -0 -1 -1 -2 -2 0 0 -0 -1 -1 -1 -2 -5 -5 -5 -5 -5
18 17 15 13 13 11 11 10 9 9 8 8 7 6 6 5 5 5 5 5 5 4 2 2 2 1 -1 -1 -1 -2 -2 -1 -1 -2 -1 -2 -3 -4 -5 -7 -6 -6 -5
17 15 14 12 11 10 9 9 9 8 8 7 6 5 5 5 5 4 3 3 3 4 2 1 1 -1 -0 -2 -2 -3 -3 -3 -3 -2 -2 -2 -4 -6 -7 -7 -7 -7 -6
15 13 11 10 10 8 8 8 8 8 7 6 5 5 4 4 4 3 3 2 3 2 -0 -1 -1 -1 -1 -2 -3 -3 -4 -4 -3 -3 -3 -3 -5 -6 -7 -8 -8 -7 -8
11 10 10 9 8 7 7 7 8 7 6 5 4 4 4 4 4 3 3 3 2 1 -1 -2 -2 -1 -2 -2 -3 -3 -4 -5 -5 -4 -4 -4 -5 -7 -8 -8 -7 -8 -8
10 9 8 7 7 6 6 6 6 5 5 4 4 4 2 1 2 3 3 2 -0 -1 -1 -1 -1 -1 -2 -2 -3 -3 -4 -5 -6 -5 -5 -6 -7 -7 -7 -6 -7 -7 -6
7 5 5 7 7 6 5 5 5 4 4 4 4 3 2 0 -1 0 1 1 -0 -0 -0 -1 -1 -2 -2 -2 -2 -4 -4 -5 -5 -5 -5 -5 -6 -5 -5 -6 -5 -6 -6
3 5 7 7 6 5 5 5 4 3 3 3 3 2 2 -0 -1 -2 -1 -0 0 0 -0 -1 -1 -2 -2 -2 -3 -3 -4 -4 -4 -6 -5 -5 -4 -4 -4 -5 -5 -5 -5
5 6 6 5 5 6 5 4 4 4 3 2 2 2 1 -0 -1 -2 -2 -1 -2 -2 -2 -2 -3 -3 -4 -4 -4 -4 -4 -5 -6 -6 -5 -4 -4 -5 -5 -5 -5 -5 -6

GFSMW_925_temp_057.txt.gz
Temp
22 24 24 21 20 18 18 18 18 16 17 16 16 15 15 14 15 15 15 14 14 14 14 13 13 12 12 12 11 11 10 10 9 9 9 9 10 9 9 9 9 9 8
20 22 23 22 19 16 17 17 16 17 17 17 16 16 15 15 15 15 14 14 14 14 13 13 12 12 12 11 11 10 10 10 9 9 8 5 8 8 8 8 8 8 7
20 20 21 17 16 15 16 15 16 16 16 17 16 16 16 15 15 15 14 14 13 13 13 12 12 11 11 11 11 10 10 9 9 9 8 4 4 6 7 7 7 7 7
21 20 17 16 16 16 17 17 16 16 17 16 17 17 16 15 15 15 14 14 13 13 13 13 12 12 11 11 10 10 10 9 9 8 8 8 7 3 3 6 6 6 6
20 19 18 18 17 17 17 17 18 18 17 17 18 17 17 16 16 15 14 14 14 14 13 13 12 11 11 10 10 9 9 9 8 8 7 7 6 6 3 3 4 5 5
20 19 18 18 18 18 18 18 17 17 18 18 18 18 16 15 15 14 14 14 13 13 12 12 11 10 10 10 9 9 9 9 8 7 7 6 5 4 4 2 2 3 4
18 18 17 17 18 18 18 18 18 18 18 17 16 16 15 15 14 14 13 13 13 12 11 11 10 10 9 9 8 8 8 8 8 7 6 5 5 5 4 3 2 1 4
19 17 17 18 18 19 19 18 18 17 17 16 15 14 14 14 14 13 12 12 12 11 10 10 10 9 9 8 8 8 7 7 7 6 5 5 4 4 3 3 2 -0 1
18 18 17 18 19 18 18 18 18 17 16 15 14 14 14 13 13 12 12 10 11 10 10 9 9 8 8 7 7 7 7 6 6 5 5 4 4 4 3 3 3 2 -2
18 18 18 17 18 18 18 18 18 16 15 14 14 13 13 12 11 11 10 11 10 10 9 8 8 7 7 7 6 6 5 5 4 4 4 4 4 3 3 2 2 2 2
18 17 17 18 18 18 18 18 16 15 14 13 13 13 12 11 11 11 11 10 10 9 8 8 7 7 6 6 6 5 4 3 3 2 2 2 2 2 2 1 1 0 -1
19 18 18 19 18 17 16 15 15 13 13 13 12 12 11 11 11 11 10 10 9 8 8 7 7 6 6 6 5 4 3 2 2 2 2 2 1 2 1 1 0 -0 -1
18 18 18 17 16 16 16 14 13 12 12 12 12 12 11 10 11 10 9 9 8 8 7 7 6 6 5 5 4 4 3 2 2 2 2 1 1 1 1 0 -0 -1 -2
20 19 18 17 16 15 14 12 11 12 12 12 11 10 11 10 9 9 9 8 8 7 7 6 6 5 4 4 3 3 3 2 2 1 1 1 1 1 0 -0 -1 -2 -3
18 18 16 15 14 12 12 12 12 12 12 11 10 10 9 9 8 8 8 7 7 7 7 6 5 5 4 3 3 2 2 1 1 1 1 1 1 0 -0 -2 -2 -3 -4
18 17 15 15 13 12 12 12 12 12 11 10 9 9 9 8 7 7 7 6 6 6 6 6 5 4 3 3 2 1 1 -0 -2 0 0 0 -0 -1 -1 -2 -3 -4 -5
18 16 16 15 14 13 13 12 11 10 10 9 9 8 8 7 7 6 5 5 6 5 5 4 4 3 3 2 2 1 -0 -2 -2 -1 -1 -1 -1 -1 -2 -2 -3 -3 -4
16 15 14 13 13 13 12 10 10 10 9 8 8 7 7 7 6 5 5 5 5 4 4 3 3 2 2 2 1 0 -1 -2 -1 -1 -1 -2 -2 -2 -2 -3 -4 -4 -5
14 13 12 11 11 11 11 10 9 8 8 7 7 7 6 5 5 5 5 5 4 4 3 2 2 2 1 0 -0 -1 -1 -2 -2 -2 -2 -2 -3 -3 -3 -4 -4 -5 -6
13 11 10 9 9 9 9 8 7 7 7 7 5 6 4 4 4 5 4 4 4 3 3 2 2 1 0 -1 -1 -2 -2 -2 -2 -2 -3 -3 -3 -4 -4 -5 -5 -7 -6
10 9 7 6 6 7 7 7 7 6 6 6 5 4 4 4 4 4 3 2 2 3 2 1 0 0 -0 -0 -1 -2 -3 -2 -3 -3 -3 -4 -4 -4 -5 -5 -6 -6 -6
7 6 5 5 6 6 6 6 6 6 6 5 4 4 4 4 4 3 2 1 1 1 1 1 1 0 -0 -1 -1 -2 -2 -2 -3 -3 -3 -4 -5 -5 -5 -5 -5 -6 -6
5 5 5 5 5 5 6 6 5 5 4 4 4 4 4 4 3 3 1 0 -0 -1 -1 -1 -0 -0 -1 -1 -1 -2 -2 -2 -3 -3 -4 -4 -5 -5 -5 -5 -5 -5 -6
5 6 6 6 6 6 6 6 5 5 4 4 4 4 4 3 3 2 1 -0 -0 -1 -1 -2 -2 -2 -2 -2 -2 -2 -2 -2 -3 -4 -4 -5 -5 -5 -5 -5 -5 -5 -5
5 6 6 5 5 5 5 5 5 5 5 5 4 3 3 2 2 1 1 0 -0 -1 -1 -1 -1 -2 -3 -2 -2 -2 -3 -4 -4 -4 -5 -5 -5 -5 -5 -5 -5 -5 -5
5 5 5 6 6 6 6 6 5 5 5 4 4 4 3 2 2 1 1 0 0 -0 -1 -1 -1 -1 -1 -2 -2 -3 -3 -4 -4 -5 -5 -5 -5 -5 -5 -5 -5 -5 -5

GFSMW_925_temp_060.txt.gz
Temp
18 18 18 19 18 18 18 18 18 17 17 16 15 15 15 15 15 15 14 14 14 14 14 13 13 12 12 12 11 10 10 10 9 9 9 9 9 8 8 8 8 8 7
19 20 20 18 17 17 17 17 17 17 17 17 17 16 15 14 15 14 14 14 14 14 14 13 13 12 12 11 11 10 10 10 9 9 7 5 7 8 7 8 7 7 7
19 18 18 16 15 15 16 16 17 17 17 17 16 16 15 14 14 14 14 14 14 13 13 13 12 12 11 11 11 10 10 9 9 8 8 4 4 4 7 7 6 6 6
19 17 16 15 14 14 15 15 16 17 17 16 16 15 15 14 14 14 14 14 13 13 13 13 12 12 11 11 10 10 9 9 8 8 8 8 7 3 2 6 6 6 6
19 16 15 15 14 15 16 16 16 16 16 16 15 15 15 15 15 14 14 13 13 13 12 12 11 11 10 10 9 9 9 8 8 8 7 7 6 5 3 2 3 4 5
17 17 16 15 15 16 16 16 16 15 16 16 16 16 16 15 14 14 13 13 12 13 11 11 11 10 10 9 9 8 8 8 7 7 7 6 5 4 4 2 2 1 3
16 16 15 15 14 15 16 16 15 16 16 16 16 16 15 15 14 14 13 13 11 11 10 9 9 9 9 8 8 8 7 7 7 7 6 5 5 5 4 3 3 1 2
17 16 16 15 15 16 16 16 16 16 16 16 15 14 14 14 14 13 12 11 11 10 10 8 9 9 8 8 7 7 7 6 6 6 5 5 5 4 4 3 1 1 -0
16 16 16 16 16 17 17 17 16 15 16 15 15 14 14 14 12 12 11 10 10 10 9 9 9 9 8 7 7 6 6 6 5 5 4 4 4 4 4 3 2 0 -2
16 16 16 16 16 18 17 17 17 16 16 15 14 14 13 12 12 11 11 10 10 10 9 9 9 8 7 7 6 6 5 5 4 4 3 3 3 3 3 2 0 -1 -1
16 16 16 16 18 18 18 17 17 16 14 14 13 13 12 11 10 10 10 10 10 9 9 8 8 7 7 6 6 5 5 4 4 3 2 2 2 2 1 1 0 -1 -1
17 17 16 16 16 17 17 16 15 14 13 12 12 12 11 9 9 10 10 10 9 8 8 8 7 7 6 6 5 5 4 4 3 2 2 2 2 1 1 1 0 -0 -1
17 16 16 16 16 15 14 13 11 12 12 12 11 10 9 10 10 10 9 8 8 8 7 7 7 6 6 6 4 4 4 3 2 2 2 1 1 1 1 0 -0 -1 -2
18 16 16 16 15 12 11 11 11 12 12 11 10 10 10 10 9 8 8 8 7 7 7 7 6 6 6 4 4 3 3 2 2 1 1 1 1 1 0 -0 -1 -2 -2
16 15 14 13 11 11 11 11 11 11 11 10 10 9 9 9 8 8 8 7 7 6 6 6 6 6 4 4 3 3 2 2 2 1 0 -1 0 0 -0 -1 -2 -2 -3
15 14 13 12 11 9 9 10 11 10 10 10 9 8 8 8 8 7 7 7 6 5 5 5 5 4 4 3 3 2 2 1 0 0 -1 -1 -0 -1 -1 -2 -2 -3 -4
15 14 13 12 11 10 9 10 10 10 9 8 8 8 7 7 7 7 6 5 5 5 4 4 4 3 3 3 2 1 1 0 -1 -2 -1 -1 -1 -2 -2 -3 -3 -4 -4
13 12 12 11 11 10 10 9 9 9 8 8 7 7 7 7 6 5 5 5 5 4 4 4 3 3 2 2 1 1 -0 -1 -1 -2 -2 -2 -2 -2 -3 -3 -4 -4 -4
10 9 9 9 9 9 9 9 8 7 7 7 7 6 6 5 5 5 4 4 4 4 4 3 3 3 2 1 0 -1 -1 -2 -2 -2 -2 -2 -3 -3 -3 -4 -4 -4 -4
9 8 7 7 8 7 8 7 7 7 7 7 6 7 5 5 4 4 4 4 3 2 2 2 2 2 1 1 0 -1 -1 -2 -2 -2 -3 -3 -3 -3 -4 -5 -5 -5 -5
6 6 6 6 6 7 7 7 7 7 6 6 5 5 5 4 4 4 4 3 3 2 1 1 0 0 1 0 -1 -1 -2 -2 -3 -3 -3 -3 -3 -4 -4 -5 -5 -5 -6
5 5 5 6 7 7 7 7 6 6 5 5 5 5 4 4 4 4 3 3 2 1 0 -1 -1 -1 -1 -1 -1 -1 -2 -2 -2 -2 -3 -3 -4 -4 -5 -5 -5 -5 -6
5 5 6 6 6 6 6 6 5 5 5 5 4 4 4 4 4 3 3 2 1 0 0 -1 -1 -1 -1 -1 -1 -1 -2 -2 -2 -2 -3 -3 -4 -4 -5 -5 -5 -5 -5
5 6 6 5 5 6 6 6 6 5 5 5 5 4 4 4 3 3 2 1 1 1 -0 -0 -2 -1 -1 -2 -2 -2 -2 -3 -3 -2 -3 -4 -4 -5 -5 -5 -5 -5 -5
6 6 5 5 5 5 5 5 5 5 5 5 5 4 4 4 3 3 3 2 2 1 1 0 -0 -1 -2 -1 -1 -2 -2 -3 -3 -4 -5 -5 -5 -5 -5 -5 -5 -5 -5
6 5 5 5 5 5 4 3 3 3 2 2 2 3 3 3 3 3 3 2 2 2 1 0 -0 -0 -1 -1 -2 -2 -2 -3 -4 -5 -5 -5 -5 -5 -5 -5 -5 -5 -5

GFSMW_925_temp_063.txt.gz
Temp
17 17 17 17 17 17 17 17 17 16 16 15 15 15 15 15 15 15 15 15 14 14 14 14 13 13 13 12 11 10 10 9 9 9 8 9 8 8 7 8 7 7 7
16 17 17 17 17 17 17 16 16 16 16 16 15 15 15 15 15 14 14 14 14 14 14 14 13 12 12 11 11 10 10 9 9 8 6 4 6 7 8 7 7 6 6
17 17 17 17 17 17 17 17 16 16 16 16 15 15 14 14 13 13 14 14 14 14 14 13 13 12 11 11 10 10 9 9 8 8 8 4 3 4 7 6 6 6 6
18 18 18 15 16 17 17 17 16 16 16 15 14 15 15 13 13 14 14 13 13 14 13 12 12 11 10 10 9 9 9 8 8 8 8 7 7 3 2 6 6 5 5
18 18 17 16 15 15 16 16 15 15 15 15 15 15 15 15 14 14 13 13 12 12 12 11 10 10 10 9 9 9 8 8 7 7 7 6 6 5 2 1 3 4 4
16 16 17 16 15 15 15 15 14 15 15 15 15 15 15 14 14 13 13 12 11 11 11 10 10 10 9 9 8 8 7 7 7 6 6 5 5 4 3 -0 2 2 3
15 15 14 14 14 14 13 14 15 15 15 15 15 15 15 15 14 13 12 11 11 10 10 10 10 8 9 8 8 8 7 6 6 6 6 5 5 4 4 3 2 3 1
16 15 15 14 14 14 13 14 14 15 15 15 15 15 15 14 14 13 12 11 11 10 11 10 9 9 8 8 7 7 6 6 6 5 5 4 4 4 4 3 3 1 1
16 15 14 14 14 13 14 15 15 15 15 15 15 14 15 14 12 11 11 10 9 9 9 9 8 8 8 7 7 6 6 5 5 4 4 4 3 3 3 3 1 1 0
15 15 14 14 14 15 15 15 15 16 15 15 15 14 14 13 12 11 10 9 8 8 8 8 8 8 7 7 6 6 5 5 5 4 3 3 2 2 2 2 0 -0 -1
15 15 15 15 15 15 16 15 15 15 15 15 14 13 12 11 10 9 9 8 8 8 8 8 8 8 7 6 6 5 5 5 4 3 3 2 2 1 1 1 1 0 -1
15 15 15 15 14 15 14 14 14 14 14 13 13 12 11 10 10 10 8 9 9 8 8 8 8 7 7 6 6 5 5 4 3 3 2 2 1 1 1 1 1 -0 -1
15 14 14 14 14 14 13 13 12 11 10 11 10 9 10 10 9 9 9 9 8 8 8 7 7 7 6 6 6 5 4 3 3 2 2 2 1 1 1 0 -0 -1 -1
16 15 14 14 13 11 11 10 10 11 11 11 10 10 9 9 9 9 8 8 8 7 7 6 6 6 6 5 5 4 3 3 2 2 1 1 0 0 0 0 -0 -1 -2
15 14 12 11 10 10 10 10 11 11 11 11 10 9 9 9 8 8 8 8 7 6 6 5 5 5 5 4 4 3 3 2 2 1 1 0 -0 -1 -1 -0 -0 -2 -2
14 13 12 10 9 9 9 9 9 10 10 9 9 8 8 8 7 8 7 6 6 6 5 5 5 4 4 4 3 3 2 2 1 1 0 -1 -1 -1 -1 -1 -1 -2 -3
12 12 11 10 9 9 9 9 9 9 9 8 8 7 7 8 7 6 6 6 5 5 5 4 4 4 3 3 2 2 1 1 0 -1 -1 -1 -1 -1 -2 -2 -3 -3 -4
11 10 10 9 8 9 8 9 8 8 8 7 7 7 7 7 6 5 5 5 5 4 4 4 3 3 3 3 2 2 1 0 -0 -1 -2 -2 -2 -2 -2 -3 -4 -4 -4
7 7 8 7 8 8 7 8 7 7 7 7 7 7 6 5 5 5 5 4 4 4 3 3 2 2 2 2 1 1 0 -1 -1 -2 -3 -3 -3 -2 -3 -4 -4 -5 -5
6 5 6 6 6 6 8 7 7 7 7 6 6 6 5 5 5 5 4 4 3 3 3 2 2 2 1 0 0 -0 -1 -2 -2 -2 -3 -3 -3 -3 -3 -4 -5 -5 -5
5 5 5 5 6 7 7 7 7 6 6 6 5 5 5 5 4 4 4 3 3 3 2 2 1 0 -0 -0 -0 -1 -2 -2 -2 -2 -2 -2 -3 -4 -4 -4 -5 -5 -5
5 5 5 6 7 7 7 6 6 5 5 5 5 5 5 4 4 4 3 3 3 2 2 1 1 0 -0 -1 -1 -1 -1 -2 -2 -2 -2 -2 -2 -4 -4 -4 -5 -5 -5
5 6 6 6 6 6 6 5 5 5 5 5 5 5 4 4 4 4 3 3 3 2 2 1 0 1 1 0 -1 -1 -2 -2 -3 -3 -2 -2 -3 -3 -4 -5 -5 -5 -5
5 5 5 5 5 5 5 5 4 4 4 4 4 4 3 3 3 3 3 3 2 2 1 -0 -1 -0 0 0 -0 -1 -1 -2 -2 -2 -3 -3 -3 -4 -4 -5 -5 -5 -5
5 5 5 5 4 3 2 2 2 3 2 2 1 1 1 1 1 1 0 0 0 -0 -0 0 -0 -1 -2 1 0 -1 -2 -2 -2 -2 -3 -4 -5 -5 -5 -5 -5 -5 -5
5 4 3 3 1 1 0 0 -0 -0 -0 -1 -1 -2 -2 -2 -2 -2 -2 -2 -2 -1 -1 -1 -1 -1 -2 -1 -1 -1 -2 -2 -2 -4 -4 -5 -6 -6 -6 -5 -5 -5 -5

GFSMW_925_temp_069.txt.gz
Temp
18 17 16 16 15 15 15 16 16 16 16 15 14 13 14 13 14 14 14 15 15 14 14 14 14 13 13 12 12 12 11 9 9 9 9 8 7 7 7 7 7 7 7
18 17 16 16 16 16 16 16 16 16 15 15 15 14 14 13 14 13 14 14 14 14 14 14 13 13 12 12 12 11 9 8 9 9 8 11 10 7 7 7 6 6 6
19 18 17 16 15 16 16 16 15 16 15 15 15 14 13 13 12 13 13 13 14 14 13 13 13 12 12 12 11 10 9 9 8 8 9 10 10 9 7 6 6 6 6
18 19 18 17 16 16 15 15 15 15 15 15 15 15 13 12 12 13 13 13 13 13 13 12 12 12 11 11 10 9 9 9 9 7 7 6 7 9 9 7 6 5 5
20 18 18 17 16 15 16 15 15 15 15 15 14 14 13 13 13 13 13 13 12 12 12 12 12 11 11 10 9 9 8 8 8 7 7 6 6 6 6 8 7 6 5
20 20 18 17 16 15 15 14 14 14 14 14 14 13 14 13 13 12 12 12 11 12 12 12 11 10 10 9 9 8 8 7 7 6 6 6 6 7 6 6 6 6 5
19 19 18 17 16 14 14 14 13 13 13 14 14 12 13 13 13 13 12 11 11 11 11 10 10 9 9 8 8 8 8 7 6 5 5 5 5 5 5 5 5 5 5
19 19 19 17 16 14 14 14 14 14 13 13 12 12 14 14 13 13 13 13 12 10 10 10 10 10 9 8 8 8 7 7 6 5 5 4 4 4 4 4 4 4 5
19 19 18 17 16 15 14 15 14 14 12 12 12 12 13 13 13 13 12 11 10 10 9 9 9 8 8 7 8 7 7 6 5 5 5 4 4 3 3 3 3 3 4
18 19 18 17 16 15 15 15 14 14 12 12 12 13 14 13 12 11 10 9 10 9 9 9 8 6 7 8 7 7 6 6 5 4 4 3 3 3 2 2 2 2 3
18 18 17 16 16 15 15 14 13 13 12 12 12 13 12 12 9 8 9 10 9 9 9 8 8 7 8 8 7 6 6 5 4 3 3 3 2 2 2 2 2 2 1
19 17 17 16 15 15 14 13 12 12 12 11 11 10 10 9 8 8 9 9 10 9 9 8 8 8 7 7 6 6 5 4 3 3 2 2 2 2 2 1 1 1 1
18 17 16 16 15 14 13 13 11 11 12 10 11 10 9 8 9 9 9 9 8 7 7 8 7 7 7 6 6 5 4 3 3 3 2 2 2 2 2 1 1 1 0
17 17 17 16 15 14 13 11 10 10 9 10 9 7 7 8 8 8 7 7 7 7 7 7 6 6 6 5 5 4 4 4 3 2 2 2 2 1 1 1 1 -0 -1
17 17 17 15 13 12 10 10 9 8 8 8 7 7 8 8 7 5 6 7 6 7 6 7 6 5 5 5 4 4 3 2 2 2 2 1 1 1 0 -0 -0 -1 -1
17 16 14 13 11 10 10 8 8 8 8 7 8 8 7 5 6 6 6 5 6 6 6 6 5 4 4 4 3 3 2 2 2 2 2 1 1 -0 -0 -1 -2 -2 -1
14 14 13 12 10 9 9 8 8 8 7 7 7 6 6 6 6 6 5 6 6 6 5 4 4 4 4 3 3 3 2 2 2 2 1 1 -0 -0 -1 -1 -1 -2 -2
11 11 10 9 9 8 8 7 7 6 7 6 6 6 7 6 6 6 6 5 5 4 4 4 4 3 3 3 3 2 2 1 1 0 0 -0 -0 -1 -2 -2 -2 -2 -2
8 8 8 7 7 6 6 7 7 6 6 6 6 6 6 6 5 6 5 5 4 4 4 3 3 3 3 3 2 2 1 0 0 -0 -1 -1 -1 -1 -2 -3 -3 -3 -3
7 6 6 6 6 6 7 7 6 6 6 6 6 6 6 6 5 5 4 4 4 4 3 3 3 3 3 3 3 2 -0 -0 -0 -1 -2 -2 -1 -2 -2 -3 -4 -4 -3
5 5 6 6 6 6 6 6 6 5 6 6 5 4 4 4 3 4 3 3 2 2 2 2 2 1 1 1 1 1 -0 -1 -1 -1 -1 -3 -3 -2 -2 -2 -4 -4 -3
5 6 6 5 6 6 6 5 5 4 4 4 3 3 3 3 3 2 2 1 0 -0 -0 -1 -1 -1 -1 -2 -2 -2 -2 -2 -3 -3 -2 -2 -4 -2 -2 -3 -3 -3 -3
6 6 5 4 4 4 4 3 3 3 4 3 2 2 2 1 1 -0 -1 -1 -1 -2 -2 -2 -2 -2 -2 -2 -2 -3 -3 -3 -3 -3 -3 -3 -4 -3 -4 -4 -3 -3 -4
5 4 4 3 1 1 1 1 2 2 2 1 0 -0 -1 -1 -2 -2 -3 -3 -3 -3 -3 -3 -3 -4 -3 -4 -4 -4 -4 -4 -4 -3 -3 -3 -3 -4 -4 -4 -4 -4 -4
4 3 2 1 -0 -1 -1 -1 0 1 -0 -1 -2 -3 -3 -4 -4 -4 -5 -5 -5 -5 -5 -5 -5 -5 -5 -5 -5 -5 -4 -4 -4 -3 -3 -3 -4 -4 -4 -4 -4 -4 -4
2 1 0 -1 -2 -2 -3 -3 -2 -1 -2 -3 -4 -5 -5 -5 -5 -6 -5 -6 -6 -6 -6 -6 -6 -7 -7 -7 -6 -6 -5 -4 -4 -3 -3 -4 -3 -4 -4 -4 -5 -4 -5

GFSMW_925_temp_072.txt.gz
Temp
21 19 19 18 18 17 18 17 17 16 16 15 16 16 15 14 14 13 13 13 14 14 14 14 13 14 14 13 13 13 12 13 12 12 14 13 11 10 10 10 10 10 10
21 21 19 18 18 18 17 17 17 16 16 17 17 17 16 14 14 15 12 12 13 13 14 14 13 13 13 12 12 12 13 12 11 12 13 15 14 11 10 10 10 10 9
22 21 20 19 19 18 18 18 18 18 17 17 17 16 16 14 14 14 12 12 14 13 14 13 13 13 13 13 12 12 12 13 11 10 12 14 15 13 12 10 10 9 9
25 23 22 21 20 19 19 19 19 18 17 17 17 16 17 16 15 14 12 12 13 13 13 13 13 13 13 12 12 11 11 11 12 11 10 10 10 12 12 12 11 9 9
25 25 23 22 21 20 19 19 19 18 17 16 16 16 17 16 13 12 12 12 12 13 13 12 12 12 12 11 10 10 10 11 11 11 11 10 10 10 10 11 11 10 10
26 25 24 23 22 20 19 17 17 17 16 15 15 16 16 14 12 12 11 12 13 13 12 12 12 11 10 10 9 9 8 9 9 10 9 9 10 10 10 10 10 9 9
26 26 25 23 22 20 18 17 17 18 17 15 15 14 14 14 13 12 12 14 13 13 12 12 11 10 10 10 9 7 8 9 9 9 9 8 8 8 8 8 8 8 8
27 26 26 24 22 20 18 18 18 18 17 16 14 14 14 14 14 13 13 14 14 13 12 11 11 10 10 9 7 7 8 8 8 8 7 8 8 7 7 7 7 7 8
26 26 26 25 22 20 19 18 19 19 17 15 14 14 14 13 13 13 13 14 14 13 11 10 8 10 9 8 7 8 8 8 7 7 7 7 7 7 6 6 6 6 7
25 25 25 24 23 21 20 19 19 19 17 16 15 13 14 13 12 13 14 13 12 11 9 8 9 9 8 7 7 8 8 7 7 7 7 6 6 6 6 6 5 5 6
24 24 24 23 22 21 20 19 19 20 18 16 14 13 14 12 12 12 12 11 10 9 8 10 9 8 7 8 8 8 8 7 7 7 6 6 6 6 6 5 5 5 5
25 25 24 23 22 21 20 20 19 19 18 16 15 13 13 11 10 9 9 9 8 8 9 8 7 8 9 8 8 8 8 7 7 7 6 6 6 5 5 5 5 5 5
26 24 23 22 21 21 20 20 18 17 16 14 12 10 10 9 8 7 7 7 7 7 7 7 8 8 8 8 8 7 7 7 6 6 6 6 6 5 5 5 5 5 5
25 25 24 23 21 20 19 18 17 15 13 11 10 9 8 7 7 7 7 7 7 6 7 6 7 7 8 7 7 7 6 6 6 6 5 5 5 5 5 4 4 4 4
25 24 24 23 21 19 17 16 13 11 10 10 8 8 6 7 8 7 7 7 6 7 6 7 8 7 7 7 6 6 6 5 5 5 5 5 4 4 3 3 3 3 3
23 23 22 21 19 17 15 13 11 11 10 10 8 7 6 7 6 5 5 6 6 5 7 7 7 7 6 6 4 4 4 5 5 5 5 5 4 3 2 1 1 0 0
20 20 20 19 17 15 13 11 10 10 9 8 6 5 6 6 5 5 6 6 6 7 7 6 6 6 6 5 4 4 3 4 4 4 4 4 4 3 2 2 1 -0 -1
17 17 17 15 15 14 13 12 11 10 8 8 6 6 5 6 6 6 6 6 7 6 6 6 6 5 5 4 4 3 2 3 4 4 4 3 3 3 3 2 2 1 1
15 15 14 14 13 12 12 11 9 8 8 7 6 5 6 6 6 6 6 7 6 6 6 6 5 5 5 4 3 2 2 3 3 3 3 3 3 3 2 1 -0 -0 -0
13 12 12 11 11 11 11 9 8 8 7 6 6 7 7 6 6 7 6 6 5 5 5 5 4 4 3 3 2 0 0 0 1 1 1 1 1 0 -0 -1 -1 -1 -1
11 11 11 11 11 11 10 10 8 7 6 6 5 5 6 6 6 5 5 5 5 4 3 1 1 1 1 1 -0 -1 -2 -1 -1 -1 -1 -1 -1 -1 -2 -3 -3 -2 -1
11 11 11 10 10 9 9 9 8 6 6 6 6 5 4 4 4 4 4 4 3 3 1 -1 -0 0 -0 -1 -1 -2 -3 -3 -2 -2 -2 -1 -1 -2 -2 -3 -3 -3 -3
11 10 10 9 9 8 7 7 7 6 6 5 4 3 3 2 2 3 3 2 2 1 0 -0 -0 -1 -1 -1 -2 -3 -3 -3 -3 -3 -3 -3 -2 -3 -3 -3 -3 -3 -3
10 9 8 8 7 7 6 6 5 4 4 3 2 2 1 2 1 2 1 1 -0 -1 -1 -1 -2 -2 -2 -2 -5 -5 -5 -4 -4 -3 -3 -3 -3 -3 -3 -3 -3 -3 -3
9 8 7 6 5 4 3 3 3 3 2 2 1 1 0 -0 -0 -1 -2 -2 -3 -4 -4 -3 -4 -5 -5 -6 -7 -7 -7 -6 -5 -4 -3 -2 -1 -2 -2 -3 -3 -3 -3
8 7 6 5 3 2 1 1 1 1 1 1 0 -2 -1 -2 -2 -2 -2 -4 -5 -6 -7 -7 -7 -7 -8 -9 -8 -8 -8 -7 -6 -4 -3 -3 -2 -2 -2 -2 -3 -3 -3

GFSMW_925_temp_075.txt.gz
Temp
20 19 18 18 19 18 18 18 17 16 16 16 17 18 18 15 15 15 16 15 16 16 16 16 15 16 16 15 14 14 14 15 14 14 16 15 13 12 12 13 12 12 12
22 20 19 19 20 19 19 18 19 17 17 18 18 19 19 16 16 16 15 14 14 14 16 16 15 16 16 14 14 14 15 15 13 14 14 16 16 13 13 12 12 12 11
23 23 22 21 20 19 19 19 19 18 17 19 19 19 18 17 15 16 15 14 14 15 16 16 15 15 15 14 14 14 14 15 14 12 13 15 16 14 14 13 12 11 11
25 24 23 21 20 20 20 20 20 19 18 18 20 19 18 17 17 17 15 13 13 13 15 15 15 14 15 15 14 14 13 13 14 13 13 12 12 13 13 13 13 12 11
26 25 24 23 21 21 20 20 20 21 20 19 18 19 19 19 18 16 14 13 13 13 15 15 14 14 14 14 14 12 11 12 11 11 13 13 12 12 12 12 12 12 12
28 27 25 24 23 22 21 21 21 21 21 18 18 19 19 19 17 15 13 12 12 13 14 14 14 14 13 13 11 11 11 10 10 11 11 11 12 12 12 12 11 11 11
28 28 28 26 25 24 22 21 21 21 21 19 18 18 18 18 16 14 13 13 13 14 14 14 14 13 12 11 11 11 10 9 10 10 10 11 11 10 10 10 10 10 10
29 28 28 27 26 25 23 21 21 20 20 19 18 17 17 17 15 15 14 13 13 14 14 13 13 12 11 10 10 10 9 9 9 9 9 9 10 10 9 9 9 9 9
29 29 29 28 27 25 24 22 21 21 21 20 18 17 16 16 16 16 14 13 14 14 14 13 13 11 9 9 9 8 8 9 9 9 9 8 9 9 9 8 8 8 8
28 29 29 28 27 26 24 21 21 21 21 20 19 16 16 16 15 15 14 13 14 14 14 12 11 8 9 8 8 7 9 10 9 9 9 8 8 8 8 8 8 8 8
28 28 29 28 27 26 24 22 21 22 22 21 19 16 15 15 14 13 13 13 12 13 11 10 9 8 9 8 8 9 9 10 9 9 8 8 8 8 8 8 8 7 7
29 28 28 27 27 26 25 23 22 22 22 21 19 15 14 14 13 12 11 11 10 10 9 8 7 7 7 8 8 9 9 9 9 9 8 8 8 8 7 7 7 7 7
29 28 28 27 26 25 24 23 22 22 22 20 15 13 13 13 12 12 12 11 9 8 7 7 7 6 7 8 9 9 9 9 9 8 8 8 8 8 7 7 7 7 7
29 29 28 27 25 25 23 23 22 21 19 13 12 11 11 9 8 8 8 8 8 7 7 7 6 6 8 9 9 9 9 8 8 8 7 7 7 7 7 7 7 6 6
28 28 28 27 25 24 22 22 20 18 16 13 11 9 8 8 8 8 8 8 7 7 6 7 7 7 9 9 9 8 8 7 7 7 7 7 7 6 6 5 5 5 4
27 27 27 27 25 22 21 19 16 14 13 10 8 7 7 6 6 6 6 6 6 7 7 7 9 9 8 8 7 6 5 6 6 6 6 6 6 6 6 5 4 3 3
24 24 25 24 22 20 16 13 12 11 10 9 7 7 6 5 6 6 6 6 7 7 8 8 8 8 7 7 6 5 4 4 5 5 5 5 6 5 5 5 5 4 3
22 22 22 21 19 16 13 11 11 9 8 7 7 6 6 6 6 7 8 8 8 8 8 8 7 7 7 6 5 4 3 3 4 4 5 5 5 5 4 4 4 3 3
20 20 19 18 17 14 12 11 9 9 8 8 9 8 8 7 7 7 8 7 8 8 8 7 7 7 6 5 4 3 3 3 3 3 3 3 3 3 2 1 2 2 1
18 17 17 16 15 14 13 12 11 11 11 10 9 8 7 8 8 7 8 8 7 7 7 7 6 5 4 4 2 1 0 0 0 1 1 1 0 0 0 -0 -1 -1 -1
17 16 16 15 15 13 12 11 11 11 10 9 9 9 8 7 8 8 7 7 7 6 5 3 2 2 3 2 0 -1 -1 -1 -1 -1 -1 -1 -1 -1 -1 -1 -2 -2 -2
15 15 15 15 14 13 13 12 11 10 9 8 8 8 8 7 7 7 6 6 6 5 3 0 1 2 1 0 -1 -2 -3 -3 -3 -3 -2 -1 -1 -2 -2 -2 -3 -3 -3
16 15 14 13 12 12 12 12 10 8 8 8 7 7 6 6 6 6 5 5 4 3 2 1 1 1 -0 0 -1 -3 -5 -5 -5 -4 -4 -3 -3 -2 -2 -2 -2 -2 -3
15 14 13 12 11 10 10 10 9 8 8 7 6 5 5 5 4 4 3 3 2 1 1 1 -0 -1 -1 -1 -4 -5 -5 -5 -5 -4 -5 -3 -3 -2 -1 -1 -2 -3 -3
14 13 12 11 10 10 9 8 7 7 6 5 5 4 3 3 2 2 0 0 -3 -3 -2 -2 -3 -3 -4 -5 -8 -7 -7 -7 -7 -7 -5 -3 -3 -2 -2 -2 -1 -2 -3
12 11 10 9 8 7 6 6 6 5 4 4 3 2 2 1 1 1 -1 -2 -3 -4 -5 -6 -6 -7 -8 -9 -9 -8 -9 -8 -7 -6 -4 -4 -5 -5 -5 -4 -4 -3 -2

GFSMW_925_temp_078.txt.gz
Temp
16 15 14 15 13 13 12 13 13 13 13 13 14 16 16 16 17 17 16 16 15 16 16 17 16 16 16 16 16 15 15 15 14 14 15 15 14 14 13 13 12 12 12
19 17 18 17 15 13 13 14 14 14 14 14 16 17 17 17 17 16 16 17 16 16 16 16 15 15 16 15 15 14 15 15 14 14 14 11 13 13 13 13 12 12 12
20 19 19 18 17 16 16 16 15 15 16 16 17 18 18 17 16 16 16 16 16 16 16 16 16 16 16 15 14 14 15 15 14 13 13 11 11 12 14 13 13 12 12
22 21 20 19 19 18 18 18 19 17 17 17 19 19 19 17 16 16 15 15 14 15 15 16 16 15 15 14 14 14 14 14 13 12 12 12 12 9 9 13 12 12 12
23 22 21 21 20 19 19 19 19 19 18 18 19 20 19 18 17 16 16 15 14 14 15 15 15 15 15 15 14 14 13 13 13 12 12 13 12 12 10 8 11 12 12
25 24 23 22 21 20 19 19 20 19 19 18 19 19 19 18 17 16 15 14 13 13 13 15 15 15 14 14 14 13 12 12 11 11 11 11 11 11 11 8 10 10 10
26 24 24 23 22 21 20 20 20 20 20 18 19 19 19 19 18 16 14 14 12 12 14 14 15 14 14 13 13 12 12 11 10 10 10 11 11 11 10 10 9 9 9
27 26 24 24 23 22 21 20 20 20 21 19 18 19 18 19 18 16 14 14 13 13 14 14 14 14 13 12 11 11 10 9 9 10 10 9 9 9 10 9 9 5 8
28 28 28 25 24 24 22 21 21 21 21 21 18 18 18 18 17 15 14 14 13 13 13 14 14 13 12 11 11 10 9 9 8 8 9 9 9 9 9 9 8 8 4
28 29 28 27 26 24 24 22 22 22 22 21 20 18 18 17 17 15 15 14 14 13 14 13 13 12 11 10 9 8 8 7 8 9 9 9 9 8 8 8 8 8 8
28 28 28 29 27 26 25 23 22 22 22 21 20 19 17 17 16 16 15 14 13 13 12 11 10 9 9 8 9 8 8 9 9 9 9 9 9 8 8 8 8 8 8
29 28 28 28 28 27 25 24 22 22 22 22 21 18 17 16 15 14 14 13 13 12 11 11 9 8 8 8 7 7 7 7 9 9 9 9 8 8 8 8 7 7 7
29 28 27 27 27 27 26 24 22 21 22 22 20 16 15 15 13 13 13 12 11 11 10 10 9 8 7 7 6 7 7 8 9 9 9 8 8 8 8 8 7 7 7
29 28 27 27 27 26 26 25 23 22 21 19 15 13 13 13 12 11 10 10 10 10 10 9 8 8 8 7 7 8 9 9 9 8 8 8 7 7 7 7 7 6 6
29 28 28 26 26 25 25 24 19 16 15 14 12 10 10 10 10 10 10 9 9 9 9 7 7 8 7 8 8 9 8 8 7 7 7 7 7 7 7 6 6 6 5
28 27 27 28 25 24 23 17 15 13 11 9 9 9 9 9 8 8 7 8 8 7 7 7 7 8 8 9 8 8 7 7 6 5 5 6 6 6 6 6 5 5 5
27 25 25 25 23 17 15 13 11 11 9 8 8 8 8 7 6 6 6 7 7 7 7 7 8 8 8 8 7 7 6 5 4 4 4 4 5 5 5 5 4 3 3
24 23 24 21 16 14 12 11 11 9 8 8 7 7 6 5 6 7 7 7 7 7 8 8 8 8 7 7 6 5 4 4 3 3 3 3 3 3 2 2 1 1 0
22 22 21 18 15 13 11 10 9 8 8 7 6 6 6 6 6 7 7 8 8 8 8 8 8 7 6 4 4 3 2 2 2 2 1 1 1 1 0 0 -0 -1 -1
21 20 19 14 13 12 10 9 9 8 8 7 7 7 8 8 8 8 8 8 8 8 8 7 6 5 4 3 2 2 1 -0 -1 -1 -1 -1 -1 -1 -1 -1 -2 -2 -2
19 18 18 16 13 11 11 10 9 9 9 10 9 8 8 8 8 8 8 8 8 7 6 5 4 3 3 1 1 0 -1 -2 -3 -3 -3 -3 -2 -2 -2 -2 -3 -3 -3
17 17 17 16 15 14 12 12 12 11 10 9 9 9 8 8 8 8 7 7 6 5 4 3 2 2 1 0 -0 -2 -3 -3 -4 -5 -5 -4 -4 -3 -3 -3 -2 -2 -2
17 17 16 15 14 13 13 13 11 10 10 9 9 8 7 7 7 7 6 6 5 4 2 1 1 1 -0 -1 -2 -3 -4 -5 -5 -5 -5 -5 -4 -3 -3 -2 -2 -2 -2
17 16 15 14 13 13 13 11 10 9 9 8 7 7 6 6 5 5 4 3 3 2 1 1 0 -1 -1 -2 -3 -4 -5 -7 -7 -7 -6 -5 -4 -3 -4 -4 -4 -3 -3
16 15 14 12 11 11 10 10 9 9 8 7 6 5 4 4 3 2 1 1 -0 -0 -1 -2 -3 -3 -4 -6 -7 -8 -8 -8 -8 -8 -7 -6 -4 -5 -6 -6 -5 -5 -5
15 13 12 11 10 9 8 8 8 7 6 5 3 2 2 2 2 0 -1 -1 -2 -2 -3 -3 -4 -6 -6 -7 -8 -9 -8 -8 -8 -7 -7 -5 -5 -6 -7 -7 -7 -7 -7

GFSMW_925_temp_084.txt.gz
Temp
14 13 12 12 11 11 11 11 12 12 12 12 12 12 13 14 16 16 18 16 16 16 16 16 16 16 16 16 16 16 16 15 15 14 14 14 14 14 13 13 13 12 12
14 13 12 12 11 11 11 11 11 11 11 12 12 13 14 15 16 17 16 15 16 16 16 16 16 16 16 16 16 16 15 15 14 14 12 10 12 12 13 13 13 12 12
14 13 12 12 11 11 11 11 11 12 13 13 13 14 15 15 15 15 15 16 17 17 16 16 16 15 16 16 16 16 15 15 14 14 14 8 9 10 12 12 12 12 12
14 13 13 12 11 11 11 11 11 12 13 13 13 13 14 14 14 16 17 17 18 17 16 16 16 15 15 16 16 16 15 15 14 13 14 13 13 8 9 11 12 12 12
14 13 13 14 12 11 11 11 12 12 12 13 13 13 13 14 16 16 17 17 16 16 16 16 15 15 15 16 15 15 15 15 14 13 12 12 11 11 9 7 10 11 11
14 14 14 14 12 12 12 11 12 12 12 12 13 13 13 14 14 15 15 15 16 16 16 16 15 15 15 15 15 15 15 14 14 14 13 12 11 10 9 6 7 8 10
16 15 15 14 13 13 12 12 13 13 13 13 13 13 13 14 15 15 15 14 15 15 16 15 15 15 15 15 15 15 14 13 13 12 11 11 11 11 10 9 7 6 8
17 16 16 15 15 14 14 13 13 14 14 13 13 14 14 14 15 15 15 16 16 16 16 16 15 15 15 15 14 14 13 11 10 9 9 8 8 10 10 9 8 4 5
18 17 17 17 16 15 15 14 14 14 15 14 14 14 14 15 15 15 16 17 17 16 16 15 14 14 14 14 14 13 11 10 9 9 8 7 9 8 8 8 8 7 3
19 18 18 17 17 17 16 15 15 15 16 16 15 15 15 16 16 16 16 16 16 15 14 14 14 14 13 13 13 11 10 10 10 9 9 8 8 8 7 8 8 8 7
20 20 19 18 18 17 17 16 16 16 16 17 16 16 16 16 16 16 16 16 15 14 12 13 12 12 12 12 12 11 10 10 9 9 7 8 8 7 8 8 8 8 7
21 21 20 20 19 19 18 17 16 16 16 17 17 17 16 16 16 15 14 13 12 12 13 13 12 12 12 12 11 11 10 9 8 8 7 7 7 7 8 8 8 7 7
19 20 20 20 20 20 19 18 18 16 17 17 17 17 17 16 15 14 13 14 15 13 12 13 12 12 12 11 11 10 9 8 8 8 7 8 8 8 8 7 7 7 7
21 19 18 19 21 21 19 18 18 18 17 17 18 17 17 16 15 13 13 14 12 12 12 12 12 11 9 9 8 8 8 8 7 7 7 7 8 7 7 6 6 5 5
21 20 19 18 18 19 19 19 19 18 17 17 17 17 15 14 14 13 14 14 12 12 13 10 9 8 8 7 8 8 7 7 7 6 7 7 6 5 5 5 5 4 4
23 21 20 18 18 18 18 18 17 17 17 16 16 15 13 12 12 12 10 11 10 9 9 8 8 8 7 8 7 7 7 6 6 6 6 6 5 5 4 3 2 2 2
21 20 20 17 16 15 15 13 12 13 14 13 11 11 10 10 11 11 11 9 9 8 8 8 8 7 7 6 6 6 6 6 6 5 5 4 3 3 2 2 2 1 0
18 16 13 11 11 11 11 10 10 10 10 9 10 11 11 10 9 9 8 8 7 7 7 7 7 7 5 5 6 5 5 5 4 3 3 2 2 1 0 -0 -0 -1 -1
16 13 12 11 10 9 9 9 9 10 10 9 9 9 9 9 8 7 7 7 7 7 7 7 6 6 5 4 5 5 4 4 3 2 1 1 0 -0 -1 -2 -3 -3 -2
13 11 10 10 9 9 10 9 8 8 8 8 8 8 8 8 7 6 6 6 7 6 6 6 6 5 3 4 4 3 3 2 1 0 -0 -1 -2 -2 -3 -4 -4 -4 -4
11 11 10 9 9 9 9 8 8 7 8 8 7 7 7 7 7 6 6 6 6 6 5 5 3 2 2 2 2 1 1 0 -1 -2 -2 -2 -3 -4 -4 -4 -4 -5 -5
10 10 9 9 9 10 10 8 7 7 7 7 7 6 6 6 6 6 6 6 5 4 2 1 0 -0 -0 -0 -1 -1 -2 -2 -2 -3 -4 -4 -4 -4 -4 -5 -5 -5 -5
11 10 9 9 9 10 9 8 7 7 7 7 7 6 7 6 6 6 5 3 2 2 0 -0 -1 -2 -3 -3 -3 -3 -3 -3 -4 -4 -5 -5 -5 -5 -6 -6 -6 -7 -7
10 10 9 8 8 9 9 8 8 7 7 5 4 4 4 3 3 3 3 2 2 1 0 -2 -3 -4 -4 -4 -4 -4 -5 -5 -5 -6 -6 -6 -6 -6 -7 -7 -8 -8 -9
9 8 5 2 2 5 6 6 5 6 4 2 2 1 1 1 0 -0 -1 -0 -1 -1 -1 -2 -2 -3 -4 -5 -6 -6 -6 -7 -8 -8 -7 -7 -7 -8 -8 -9 -9 -10 -10
4 2 1 1 0 0 1 2 3 4 2 -0 -1 -1 -1 -2 -2 -3 -3 -2 -2 -2 -3 -3 -3 -4 -4 -5 -6 -7 -7 -7 -8 -7 -8 -8 -9 -9 -10 -10 -11 -11 -11

GFSMW_925_temp_087.txt.gz
Temp
13 13 12 11 11 11 11 11 11 12 13 13 13 14 14 15 15 16 16 16 17 16 16 16 16 16 16 16 16 15 15 15 15 14 13 13 13 13 13 13 12 12 12
13 13 12 12 11 11 11 11 11 11 12 12 13 13 14 13 14 16 16 18 17 16 16 16 16 16 16 16 15 15 15 15 14 14 12 9 11 12 12 12 12 12 12
13 14 13 12 11 11 11 11 11 12 12 12 13 13 12 13 14 16 15 15 16 16 16 16 16 16 15 16 16 15 16 15 14 14 14 8 9 9 11 11 12 12 12
13 14 13 12 11 11 11 11 11 12 12 12 12 12 13 13 14 14 15 15 16 16 16 16 15 15 15 15 15 16 15 15 15 13 14 13 13 8 9 11 11 11 10
13 13 12 11 11 11 11 11 11 11 11 11 12 12 13 14 14 15 15 15 16 16 16 15 15 15 15 15 15 15 15 15 15 14 13 11 11 11 8 7 9 11 11
13 13 12 12 11 11 11 11 11 11 12 12 12 13 13 14 14 15 15 15 16 15 16 16 16 16 16 15 15 15 15 15 15 15 14 12 11 9 9 7 7 9 10
13 13 12 12 12 11 10 11 11 11 12 12 12 13 13 13 14 14 15 15 16 16 17 17 16 16 15 15 15 14 14 14 14 14 12 12 11 10 9 8 7 7 8
15 14 13 13 13 12 11 11 11 11 11 11 11 12 12 13 13 14 15 15 16 17 17 17 16 16 15 15 14 14 14 13 12 12 11 10 10 10 9 7 8 5 5
15 15 15 14 13 13 12 12 12 12 12 11 12 12 12 12 13 14 14 15 15 15 16 16 16 16 15 14 14 13 13 12 12 11 11 10 10 10 9 8 8 7 5
16 16 16 15 15 14 13 13 12 12 12 12 12 12 13 13 13 13 13 13 14 14 14 15 15 15 14 13 13 12 12 11 11 11 10 10 10 9 8 8 7 7 6
17 17 16 17 16 15 14 13 13 13 13 13 13 13 13 13 13 13 13 14 14 14 14 14 13 13 12 12 12 13 13 11 10 10 10 10 9 8 8 8 7 7 6
18 17 17 17 16 16 15 14 13 13 14 14 14 14 14 14 14 13 13 13 13 13 13 13 13 12 12 13 11 12 11 10 10 10 9 9 8 8 7 8 7 7 7
17 18 18 17 17 16 16 15 14 14 14 14 15 15 15 14 14 14 13 14 13 12 12 13 12 12 12 11 11 11 11 10 9 9 8 8 7 7 7 7 7 7 6
18 18 17 18 18 18 17 16 16 15 15 14 15 15 15 15 15 14 13 13 12 13 14 12 11 12 11 10 9 9 9 8 8 8 8 7 7 7 6 6 6 6 6
19 17 18 18 18 18 18 17 16 16 15 15 15 15 15 14 14 14 14 13 13 14 14 11 10 11 10 9 8 8 8 7 8 7 6 6 6 5 6 6 6 5 4
19 18 18 17 16 17 17 17 17 16 16 15 15 15 15 14 14 13 13 12 12 11 11 10 10 10 9 9 8 8 7 7 6 5 5 4 4 5 5 4 4 3 2
19 19 17 18 18 16 17 16 15 15 15 15 13 12 12 12 12 12 12 12 11 11 10 9 9 8 8 7 7 7 7 6 5 5 3 3 3 3 2 2 2 1 1
18 16 14 12 11 11 12 12 11 11 12 11 10 11 11 12 12 11 11 11 10 9 8 7 7 7 7 7 6 6 5 5 4 3 3 3 2 1 1 0 -0 -1 -1
15 13 12 10 10 10 10 10 10 10 10 10 10 10 10 10 10 9 8 8 7 7 6 6 6 6 5 5 5 4 3 3 2 2 1 1 0 -1 -2 -1 -2 -2 -2
11 10 9 9 9 9 10 10 9 10 9 9 9 9 9 9 8 8 7 6 6 6 6 5 5 4 3 2 2 3 2 2 1 -0 -1 -1 -1 -2 -3 -3 -4 -4 -5
9 9 9 8 8 8 9 8 8 8 8 8 8 8 8 7 7 6 6 6 5 4 3 2 1 1 1 0 0 -1 -1 -1 -2 -2 -2 -3 -3 -3 -3 -4 -5 -6 -6
9 9 8 8 8 9 9 7 7 7 7 7 6 6 6 5 5 5 4 4 4 2 -0 -1 -2 -2 -3 -3 -3 -3 -3 -2 -2 -3 -4 -4 -4 -5 -5 -5 -6 -6 -6
9 9 8 7 8 9 9 7 6 7 6 5 5 5 5 4 4 3 2 2 1 -1 -2 -3 -4 -4 -4 -4 -4 -4 -4 -3 -4 -5 -5 -5 -5 -5 -6 -6 -7 -7 -7
9 8 7 5 5 6 7 6 5 6 5 3 3 3 3 2 2 1 1 0 -1 -1 -2 -3 -4 -4 -4 -5 -5 -5 -5 -5 -5 -7 -7 -7 -6 -6 -7 -7 -8 -8 -9
5 4 3 3 3 4 4 4 5 6 3 1 -0 -1 -2 -2 -2 -2 -2 -2 -2 -2 -2 -2 -3 -4 -5 -6 -7 -7 -7 -7 -7 -7 -7 -7 -8 -8 -8 -9 -9 -10 -11
2 1 1 0 -0 0 1 1 2 2 0 -2 -2 -3 -3 -2 -2 -2 -4 -4 -4 -4 -4 -4 -4 -4 -5 -6 -7 -7 -7 -8 -8 -8 -8 -8 -9 -9 -10 -10 -11 -11 -12

GFSMW_925_temp_090.txt.gz
Temp
14 13 12 12 11 11 12 11 11 11 12 12 12 13 14 15 15 16 16 16 16 15 16 16 16 16 15 15 15 15 15 14 14 13 12 12 13 13 13 13 12 12 12
13 13 12 11 12 11 11 11 11 11 12 12 13 12 13 14 14 16 17 17 17 16 16 16 16 16 15 15 15 15 14 14 14 13 12 10 11 12 12 12 12 12 12
12 14 13 12 11 11 11 11 11 11 12 12 13 12 13 13 14 14 16 15 15 16 17 17 16 16 15 15 15 15 15 14 13 14 14 8 9 9 11 12 12 12 12
12 13 14 12 11 11 11 11 12 11 12 12 13 13 13 13 15 15 15 15 15 15 16 16 16 15 15 15 15 15 15 15 14 13 13 12 12 9 9 10 11 11 11
12 12 14 13 12 11 11 11 11 11 12 12 13 13 13 13 14 15 15 15 15 15 15 15 15 15 15 15 15 15 14 14 14 14 13 11 11 11 9 8 9 10 11
12 12 13 12 12 12 11 11 11 11 11 12 12 13 13 13 13 14 14 14 15 15 15 15 15 16 15 15 15 14 14 14 14 14 14 13 12 10 9 8 8 8 9
12 12 11 11 11 11 11 10 10 10 10 11 12 12 13 13 13 14 14 14 14 15 16 16 16 16 15 15 15 15 14 14 13 13 13 13 14 13 12 10 7 7 8
13 12 12 11 11 10 10 10 10 10 10 10 11 11 12 12 13 13 13 14 14 15 16 16 16 16 15 15 15 14 13 13 13 13 13 13 12 12 11 10 8 5 6
14 13 12 12 12 11 10 10 10 10 11 11 11 11 11 12 12 12 13 13 14 14 15 15 15 15 15 15 14 14 14 13 13 13 12 12 11 11 10 11 10 8 5
14 14 13 13 13 12 11 10 11 11 11 12 12 12 12 12 12 12 12 13 13 14 14 15 15 14 14 14 13 13 13 11 11 12 11 11 11 11 10 10 9 8 8
15 15 15 15 14 13 12 11 11 11 12 12 12 12 12 12 13 13 13 13 13 14 15 15 15 14 14 14 12 12 12 11 10 10 10 10 10 10 9 8 8 7 7
15 15 14 15 14 13 13 12 12 12 12 13 13 12 12 12 12 13 13 13 13 14 14 13 13 12 12 12 12 12 11 13 9 9 9 9 9 9 8 8 7 7 7
15 15 14 15 15 15 14 13 13 12 13 13 13 13 13 12 13 13 13 13 13 13 13 12 12 12 12 12 13 12 11 11 9 8 8 9 8 7 7 7 7 7 6
16 15 14 15 15 15 15 14 14 14 13 13 14 13 13 13 13 13 13 13 13 13 13 12 14 12 11 12 12 11 10 9 8 8 8 7 7 7 7 6 6 6 5
18 16 15 15 15 15 15 15 15 14 14 13 13 14 13 13 13 13 13 13 13 12 12 12 12 11 11 10 10 10 9 9 8 7 7 6 6 6 6 6 6 5 4
19 18 17 15 15 16 16 15 15 14 14 13 13 13 13 14 13 13 13 13 12 12 12 12 12 11 10 9 10 10 9 8 7 6 6 6 5 5 5 4 3 3 3
18 17 17 16 15 15 16 15 15 15 15 13 13 13 13 14 13 13 12 12 12 12 12 12 11 11 10 10 9 8 7 6 5 5 4 2 2 3 2 2 2 2 1
17 17 15 11 10 10 12 12 12 13 13 12 11 11 11 11 12 12 12 12 12 11 10 10 9 8 8 8 7 6 6 5 4 3 3 2 0 1 1 1 1 0 -0
15 12 10 10 10 9 9 10 10 10 10 10 10 10 11 11 11 10 9 9 8 8 7 6 6 6 5 6 6 6 4 3 1 0 0 -0 -1 -2 -1 -2 -2 -2 -2
10 9 9 9 10 10 10 10 9 9 9 9 9 9 9 8 8 7 7 6 7 6 5 4 4 3 2 3 3 3 1 -1 -2 -2 -2 -3 -3 -4 -3 -3 -3 -4 -5
9 8 8 8 9 10 10 8 8 7 7 7 7 7 7 7 6 6 5 5 4 3 1 1 -1 -1 -1 -1 -0 -0 -0 -2 -3 -4 -5 -5 -4 -3 -3 -4 -5 -5 -6
9 8 8 8 8 9 8 7 6 6 6 6 5 5 5 5 5 5 4 3 2 -0 -2 -2 -3 -3 -3 -2 -2 -2 -3 -3 -4 -5 -6 -5 -4 -5 -5 -5 -6 -6 -6
8 8 8 6 6 7 7 6 5 6 6 5 4 3 4 3 3 2 2 1 0 -1 -3 -4 -5 -5 -5 -4 -4 -4 -4 -6 -6 -7 -5 -5 -6 -7 -6 -7 -7 -7 -7
7 6 5 5 4 5 5 5 5 5 4 1 0 -0 -0 -1 -1 -1 -1 -2 -2 -2 -3 -3 -4 -4 -5 -6 -6 -6 -6 -6 -7 -7 -7 -8 -7 -7 -7 -8 -8 -9 -10
3 3 3 2 1 1 1 2 2 2 -1 -2 -2 -3 -3 -3 -3 -2 -2 -2 -2 -2 -3 -3 -4 -5 -6 -6 -6 -6 -7 -7 -7 -8 -8 -8 -8 -8 -8 -9 -10 -10 -11
1 0 -1 -1 -2 -2 -1 -1 -0 0 -1 -2 -2 -3 -3 -3 -4 -4 -5 -4 -4 -4 -4 -4 -4 -5 -6 -7 -7 -7 -7 -7 -8 -8 -8 -9 -9 -9 -10 -10 -10 -11 -12

GFSMW_925_temp_093.txt.gz
Temp
16 14 13 12 12 12 12 12 12 12 12 12 12 12 13 13 14 15 17 16 17 17 16 16 16 15 14 15 16 15 14 13 13 12 11 12 12 12 13 12 12 12 12
15 15 13 12 11 11 11 12 12 12 12 12 12 12 12 13 14 15 16 17 17 17 16 16 16 15 15 15 15 15 13 13 13 13 13 14 13 12 12 12 12 12 11
16 15 14 12 12 11 11 11 11 11 12 12 12 12 13 13 13 14 15 16 17 17 17 15 16 16 16 15 15 15 14 13 13 14 14 13 15 13 10 11 11 12 11
16 16 15 13 12 12 11 11 11 11 11 12 13 13 13 13 13 14 15 16 16 16 16 16 16 17 16 15 15 15 14 13 13 12 14 13 13 15 15 10 10 9 10
16 16 16 14 13 12 11 11 11 11 11 12 13 13 13 13 14 14 15 16 16 16 16 15 15 15 16 16 15 14 14 14 13 13 11 10 10 11 14 16 12 9 11
16 16 15 14 13 12 12 11 11 11 11 11 12 13 13 13 14 14 15 16 16 16 15 15 16 16 16 15 14 14 14 14 13 12 13 13 13 11 10 11 9 10 11
16 16 15 15 13 12 12 11 11 11 11 12 12 13 13 13 13 14 14 14 14 14 14 14 14 15 15 15 15 14 14 13 12 12 12 13 12 12 11 12 10 9 10
17 16 16 15 13 13 12 12 12 12 11 11 11 12 12 12 13 13 14 14 14 14 14 14 15 15 15 15 15 15 15 14 14 13 12 11 10 12 13 12 10 6 7
17 17 16 14 13 12 12 11 11 11 11 11 11 11 11 12 12 12 13 13 13 13 14 15 15 15 15 14 14 14 14 14 13 12 12 11 10 10 11 12 11 10 9
17 17 16 15 14 13 11 10 10 10 11 11 11 11 11 11 12 12 12 12 12 12 13 14 14 13 14 14 14 14 13 12 12 11 10 10 10 9 9 9 11 9 10
18 17 17 16 15 14 12 11 11 11 11 11 11 11 11 11 11 11 12 12 12 12 12 13 13 14 14 14 14 13 12 11 11 10 10 11 9 8 8 8 10 8 8
19 18 17 16 15 14 13 13 12 12 12 12 12 11 11 11 11 11 11 12 12 12 13 13 12 12 12 13 13 12 11 11 11 11 10 10 9 8 7 7 8 7 7
19 18 17 17 16 15 14 14 13 13 13 12 12 12 11 11 12 12 12 12 13 13 13 12 12 13 13 14 13 12 11 10 10 10 10 11 10 8 7 7 7 6 6
20 19 18 18 17 16 15 15 14 13 13 13 13 13 13 12 12 12 12 12 12 12 12 12 12 12 12 12 12 11 11 10 10 10 11 10 9 8 7 7 6 5 5
21 19 20 19 18 17 16 15 15 14 13 13 13 13 13 13 12 12 12 12 12 12 12 12 12 12 12 12 12 11 10 10 10 9 9 9 8 8 7 6 5 5 4
22 22 20 19 18 17 16 16 15 14 13 13 13 13 13 12 12 12 12 12 12 12 12 12 12 12 12 12 12 11 10 10 9 8 7 7 6 6 6 5 5 5 4
21 21 20 19 18 17 16 16 15 14 13 13 13 13 12 13 13 12 12 12 12 12 12 12 12 11 11 10 10 10 9 8 7 6 5 5 4 4 4 2 1 0 0
21 20 17 15 13 12 13 13 13 13 13 13 12 12 12 12 12 12 11 11 11 11 10 9 9 9 8 8 8 8 7 5 4 3 2 2 1 -0 0 -0 -1 -2 -2
17 15 13 12 11 10 10 10 10 10 10 10 11 11 11 11 10 10 9 9 9 8 7 6 6 5 3 4 5 6 3 1 -1 -1 -1 -2 -2 -3 -2 -2 -3 -4 -4
11 11 11 10 10 10 10 10 9 9 8 8 9 9 9 9 8 7 7 6 6 4 4 2 1 1 0 1 2 3 0 -1 -2 -3 -3 -4 -4 -5 -5 -5 -4 -4 -4
10 10 10 10 9 9 9 8 7 7 6 7 7 7 7 7 6 6 5 5 3 2 0 -1 -2 -2 -1 -1 -1 -1 -1 -3 -4 -4 -5 -5 -6 -6 -6 -5 -5 -5 -5
9 9 8 8 8 7 7 6 5 4 5 5 4 3 3 3 3 2 1 0 -1 -2 -3 -4 -4 -4 -4 -2 -2 -2 -2 -3 -4 -5 -6 -7 -7 -6 -6 -6 -6 -6 -7
8 7 7 6 6 6 6 4 3 3 3 2 0 -0 0 -0 -0 -0 -1 -1 -2 -2 -3 -4 -4 -5 -5 -5 -4 -4 -4 -4 -5 -6 -6 -7 -7 -6 -6 -6 -7 -8 -8
6 5 4 3 2 3 3 3 2 1 0 -0 -1 -2 -2 -2 -2 -2 -2 -2 -2 -3 -3 -4 -5 -5 -6 -6 -6 -6 -6 -7 -7 -7 -7 -7 -7 -7 -7 -7 -8 -9 -9
3 3 2 1 0 -0 -0 0 -0 0 -0 -1 -2 -2 -3 -3 -4 -4 -4 -4 -4 -3 -4 -4 -4 -4 -5 -6 -7 -7 -7 -7 -7 -7 -7 -7 -7 -7 -8 -8 -9 -9 -10
1 0 0 -1 -1 -1 -1 -1 -1 -1 -1 -2 -2 -3 -3 -4 -4 -5 -5 -6 -6 -6 -6 -6 -6 -6 -7 -7 -8 -8 -8 -8 -8 -7 -7 -7 -8 -8 -8 -8 -9 -10 -11

GFSMW_925_temp_096.txt.gz
Temp
23 20 17 15 13 13 12 12 12 12 13 13 13 13 13 13 13 13 14 14 13 14 15 15 15 16 16 16 15 15 15 16 15 16 15 14 13 12 13 13 13 13 13
23 20 17 15 13 13 13 12 12 12 12 13 13 13 13 13 13 13 13 13 13 14 14 15 15 16 16 15 14 15 15 14 13 15 16 16 15 14 13 13 13 14 13
23 21 18 15 14 13 14 13 12 12 12 13 13 13 12 12 12 13 13 13 14 14 14 15 15 15 16 15 14 14 14 15 12 14 16 18 18 18 15 14 14 14 13
24 22 20 16 13 13 14 13 13 12 12 12 12 13 12 12 13 12 13 13 14 14 15 15 15 15 15 15 14 14 14 15 15 13 14 14 15 18 17 15 14 13 13
24 23 21 18 14 13 13 13 13 11 12 12 12 12 12 13 13 14 14 14 15 15 15 16 16 14 14 14 14 14 14 15 16 15 14 14 14 15 15 17 15 13 13
24 23 21 20 17 14 14 13 13 12 11 13 13 13 14 13 12 13 13 14 14 15 16 16 16 16 14 15 14 14 14 14 14 15 14 14 15 15 15 12 11 11 13
24 23 22 21 19 16 15 14 13 12 12 13 13 13 13 14 13 13 14 15 14 14 16 16 15 15 16 15 15 14 14 14 13 13 13 12 13 14 13 12 11 10 11
24 23 23 22 19 17 15 14 14 13 12 12 12 14 15 13 14 15 15 14 15 15 15 15 16 16 16 15 15 15 15 14 14 13 13 13 13 12 12 12 10 10 11
24 24 23 21 20 18 16 14 14 14 13 13 13 13 14 14 15 15 15 16 16 16 15 15 15 15 15 15 15 15 15 14 14 14 13 12 12 11 11 10 9 10 11
25 24 24 22 20 18 17 15 15 15 14 14 14 14 14 14 15 15 15 15 16 16 16 15 15 15 15 15 15 15 15 14 14 14 14 13 12 11 11 10 10 10 10
25 24 24 22 20 18 17 15 14 15 15 15 14 14 14 14 14 15 15 15 15 15 15 15 15 15 15 15 15 15 15 15 15 14 13 12 12 11 10 10 9 8 8
26 25 24 23 21 19 18 15 13 13 14 15 15 15 15 15 14 14 15 15 15 15 15 15 15 15 15 15 15 15 14 13 14 12 11 11 11 10 10 9 8 8 8
26 25 24 23 22 20 19 18 15 14 15 15 15 15 15 15 14 14 14 14 14 14 14 14 15 15 15 15 15 14 12 13 12 12 11 11 10 9 9 9 8 8 8
25 25 24 24 23 21 20 19 18 17 16 16 16 16 15 15 15 14 14 14 14 14 14 14 15 15 15 15 15 13 12 12 12 12 11 11 10 9 9 9 8 8 8
27 26 25 25 24 22 21 20 19 18 17 17 17 16 16 15 15 14 14 14 14 14 14 15 15 15 15 14 14 13 12 12 11 11 10 10 10 10 9 9 8 7 7
28 28 26 25 25 23 21 20 20 18 17 17 17 17 16 16 15 15 15 15 15 15 15 15 15 15 14 12 12 12 11 11 10 10 9 9 8 7 8 7 7 6 5
27 27 27 25 25 23 21 21 19 18 17 17 17 17 16 16 16 15 15 15 14 14 14 13 13 12 11 11 11 10 9 9 7 6 5 4 3 3 2 2 2 1 1
26 26 26 23 22 22 21 20 19 18 17 17 17 16 16 15 15 15 15 14 12 11 10 8 8 7 6 7 8 7 6 4 2 1 0 -0 -1 -1 -1 -1 -1 -2 -2
22 23 23 20 18 18 18 18 18 17 16 13 13 13 13 12 11 10 8 7 7 6 3 2 2 2 1 2 3 4 1 -0 -2 -2 -2 -2 -2 -2 -1 -1 -2 -3 -3
18 18 17 15 14 14 14 12 11 9 8 8 8 8 8 7 6 5 4 3 2 0 -0 -1 -1 -2 -1 -0 0 1 -1 -2 -3 -3 -3 -3 -3 -3 -3 -3 -4 -4 -4
12 12 12 11 11 10 9 8 7 6 5 5 5 4 4 4 3 2 1 0 -1 -1 -2 -3 -3 -3 -2 -2 -1 -1 -1 -2 -3 -4 -5 -5 -4 -4 -5 -5 -5 -4 -5
9 10 9 9 9 9 7 6 4 3 3 2 2 2 2 1 1 1 -1 -1 -1 -2 -3 -4 -4 -4 -4 -3 -3 -3 -3 -3 -4 -5 -5 -6 -6 -6 -6 -5 -6 -6 -6
7 6 5 6 5 5 5 3 3 2 2 2 1 0 -0 -1 -1 -1 -1 -2 -2 -3 -4 -4 -5 -5 -5 -5 -5 -5 -5 -5 -5 -6 -6 -6 -6 -6 -6 -6 -6 -7 -6
6 5 4 4 3 3 3 3 3 2 2 1 1 0 -0 -1 -2 -3 -3 -2 -2 -3 -3 -4 -4 -4 -4 -4 -5 -5 -5 -5 -5 -5 -5 -6 -6 -6 -6 -6 -7 -7 -7
4 4 3 3 3 3 3 4 4 3 2 1 0 -1 -2 -3 -4 -4 -4 -5 -5 -3 -3 -4 -4 -4 -5 -7 -7 -7 -7 -7 -7 -6 -5 -5 -6 -6 -6 -6 -6 -7 -8
2 2 2 2 2 2 2 2 3 2 1 0 0 -1 -1 -2 -3 -5 -6 -6 -7 -7 -6 -6 -6 -7 -8 -8 -8 -8 -9 -9 -8 -6 -7 -7 -8 -8 -8 -8 -9 -9 -9

GFSMW_925_temp_102.txt.gz
Temp
30 26 25 22 19 16 15 14 14 14 14 14 14 14 14 14 15 15 14 15 15 16 16 18 18 18 18 18 18 18 18 18 18 18 17 17 17 17 17 17 16 16 15
29 25 24 21 17 16 15 14 14 14 13 14 13 13 14 14 14 15 14 14 14 15 16 17 18 18 18 17 18 18 18 18 18 18 17 14 16 16 16 16 16 16 15
29 25 23 21 17 16 16 14 14 14 14 14 13 13 13 14 14 14 14 14 14 14 15 16 17 17 17 17 17 17 17 18 17 17 17 14 14 15 15 15 15 15 15
31 26 24 21 18 16 16 16 14 14 13 13 13 14 13 14 14 14 14 13 13 13 14 15 16 17 15 16 17 17 17 17 16 16 17 16 16 14 13 15 14 15 14
30 26 24 22 20 17 15 16 14 14 13 13 13 13 13 13 13 13 13 13 13 13 14 14 14 15 15 16 16 15 16 16 16 15 16 16 15 15 14 13 14 14 14
30 28 25 23 21 17 16 16 15 14 13 13 13 13 13 13 13 13 12 12 12 11 12 13 14 14 14 14 14 15 16 16 16 16 16 15 15 14 14 12 13 14 15
28 27 25 23 21 17 16 15 14 13 13 13 13 13 13 13 13 12 12 12 12 12 12 12 13 13 13 13 15 15 15 15 15 16 16 15 15 16 15 14 13 12 14
28 27 26 23 21 18 16 15 14 14 13 13 13 13 13 13 12 12 12 12 12 12 12 12 12 13 14 15 15 14 15 15 15 15 15 16 15 15 15 15 13 12 12
28 27 26 24 21 18 16 16 15 15 13 13 13 13 13 13 13 13 13 13 12 12 12 12 13 14 15 15 15 15 15 15 16 16 16 16 15 15 15 14 14 13 12
28 28 27 24 22 20 18 17 16 16 14 14 14 13 14 14 13 13 13 13 13 14 13 14 14 14 15 15 15 15 15 15 15 15 15 15 15 15 15 14 14 13 12
29 28 27 25 24 21 20 18 17 17 16 15 15 15 14 15 14 14 14 14 14 14 14 14 15 14 14 15 15 15 15 15 15 15 14 15 15 14 14 14 14 13 12
30 28 27 25 24 22 20 19 19 19 17 16 15 15 15 15 15 14 14 15 15 15 15 15 14 14 15 15 15 15 15 15 15 15 15 15 15 15 14 14 13 12 12
29 29 28 26 25 23 22 19 19 19 18 17 16 15 16 16 16 16 16 16 16 16 16 16 15 15 15 16 16 16 16 16 16 16 16 16 15 15 14 13 12 12 12
28 28 28 27 25 24 22 21 19 20 19 18 17 16 16 16 16 16 16 16 16 16 16 16 16 16 16 16 16 16 16 16 16 15 14 13 12 10 10 9 9 9 9
27 28 28 27 26 25 23 22 20 20 20 19 18 17 17 16 16 16 16 16 16 16 16 16 16 16 16 16 16 16 16 14 13 11 9 6 4 4 4 6 5 5 5
27 28 29 28 27 25 24 23 21 19 19 19 19 19 18 17 17 17 17 16 16 16 16 16 16 14 12 10 14 14 13 11 9 7 3 2 1 1 1 1 2 3 2
26 26 28 28 27 26 25 23 22 20 19 19 19 19 18 18 17 17 17 16 16 12 12 10 10 8 6 7 10 11 8 6 3 1 1 -0 -0 0 0 0 -0 0 -0
26 26 26 26 28 27 25 25 23 21 19 19 19 19 19 18 18 16 11 11 10 8 6 4 3 3 2 3 4 4 3 1 -0 -1 -1 -1 -1 -1 -1 -1 -1 -2 -2
25 23 23 24 26 26 25 25 23 22 21 20 20 20 19 10 9 7 6 5 5 3 1 1 0 -0 -1 0 1 2 0 -1 -2 -3 -3 -3 -3 -2 -2 -3 -3 -3 -3
19 22 22 22 21 16 23 24 21 17 10 9 8 8 7 6 4 2 2 1 0 -1 -2 -2 -2 -2 -2 -1 -1 -0 -1 -2 -3 -4 -4 -4 -4 -4 -4 -4 -4 -5 -5
14 16 13 13 12 10 9 8 6 5 4 4 4 4 3 2 0 -0 -1 -1 -2 -3 -3 -3 -4 -3 -3 -3 -3 -3 -3 -3 -4 -4 -5 -4 -5 -5 -4 -5 -5 -5 -5
10 10 10 9 9 8 6 4 3 3 2 2 1 0 0 -0 -0 -1 -2 -2 -3 -3 -4 -4 -4 -5 -5 -4 -4 -4 -4 -4 -4 -5 -5 -5 -4 -5 -5 -5 -6 -6 -6
8 7 6 5 4 5 4 3 2 2 1 1 0 -0 -1 -1 -2 -2 -2 -3 -3 -3 -3 -4 -4 -4 -5 -5 -5 -5 -5 -5 -5 -5 -5 -5 -5 -5 -6 -6 -7 -7 -8
6 5 4 4 3 3 2 2 1 1 0 -1 -1 -2 -2 -3 -3 -2 -2 -2 -2 -3 -4 -4 -6 -6 -7 -7 -7 -6 -6 -6 -5 -5 -6 -6 -6 -6 -7 -7 -8 -8 -9
4 4 4 3 3 2 2 1 0 -0 -1 -2 -3 -4 -4 -5 -5 -6 -5 -6 -5 -5 -6 -6 -7 -7 -8 -8 -8 -8 -7 -6 -6 -6 -7 -8 -8 -8 -9 -9 -10 -10 -11
2 3 3 3 2 2 1 1 0 -0 -1 -2 -3 -4 -5 -6 -6 -7 -8 -8 -8 -8 -8 -9 -9 -9 -9 -9 -8 -8 -8 -7 -7 -8 -9 -10 -10 -10 -10 -11 -11 -12 -12

GFSMW_925_temp_105.txt.gz
Temp
24 22 21 19 18 17 16 16 15 15 15 15 15 15 15 15 15 15 15 16 16 17 16 17 17 17 16 17 17 18 18 18 17 17 17 17 17 17 17 15 15 15 14
23 21 18 17 17 16 15 15 14 15 15 14 14 14 15 15 15 14 15 15 16 16 16 16 17 17 17 17 17 18 18 18 17 16 16 12 15 16 16 16 15 15 15
22 20 18 16 16 15 16 14 14 15 14 14 14 14 14 14 14 15 14 14 15 15 16 16 17 17 17 17 17 18 18 18 17 17 16 12 13 13 16 16 16 16 15
22 20 18 15 14 15 16 15 14 14 14 14 14 13 13 13 13 14 14 14 14 15 15 17 17 17 16 16 16 17 18 18 17 17 17 17 16 12 12 15 15 15 15
22 20 19 16 15 16 16 15 15 14 14 13 13 13 13 13 14 14 14 13 13 13 14 16 16 16 15 16 15 17 17 17 17 16 16 16 15 15 12 11 13 14 15
22 21 19 16 15 16 16 16 15 14 14 13 13 13 13 13 13 14 13 13 13 13 13 15 15 15 15 16 16 16 16 15 15 16 17 16 15 14 13 11 12 13 15
22 20 19 17 15 14 15 15 15 14 14 13 13 13 13 13 13 13 13 12 12 12 12 13 14 15 15 16 15 15 15 14 14 16 17 16 16 16 16 14 12 12 14
22 21 19 18 15 14 15 15 14 14 14 13 13 13 13 13 13 13 12 12 12 12 12 12 12 13 14 14 13 14 14 15 15 15 15 15 15 15 16 15 14 10 11
22 21 20 18 15 15 14 15 14 15 14 14 13 13 13 13 13 12 12 12 12 12 12 12 12 12 13 13 13 13 14 15 14 15 16 16 16 15 16 16 15 13 12
23 22 20 18 16 15 15 15 14 14 14 13 13 13 13 13 13 12 12 12 12 12 12 12 11 12 12 13 13 13 14 14 15 15 15 15 15 16 16 15 15 14 13
24 22 21 19 17 16 15 15 14 15 14 13 12 13 13 13 13 13 12 12 12 12 11 11 11 12 13 14 13 13 14 15 14 15 15 15 15 15 15 15 14 13 12
23 23 22 19 17 16 15 15 14 14 14 14 13 13 13 13 13 13 13 13 12 12 13 12 12 12 13 13 14 14 15 14 14 15 15 15 15 15 15 14 13 12 12
24 24 22 20 18 18 16 16 16 15 14 15 15 14 14 14 13 13 13 13 13 13 13 13 13 13 13 13 14 14 14 14 15 15 15 14 14 13 12 12 11 11 11
23 20 21 22 19 19 17 17 16 16 15 14 15 15 14 14 14 14 14 14 14 14 14 14 14 14 14 14 14 14 15 15 14 13 12 12 11 9 8 8 8 7 7
23 24 19 19 20 19 18 17 17 17 16 15 14 14 15 15 15 15 15 14 14 15 15 15 15 15 14 14 14 15 15 14 12 9 7 5 4 4 4 5 4 4 5
24 25 24 19 20 20 19 18 18 18 17 16 15 14 14 15 15 15 15 15 15 15 15 15 14 14 12 12 14 14 12 10 7 4 2 1 1 1 0 0 0 2 1
18 22 24 24 17 20 21 19 18 18 17 17 16 15 15 15 15 15 15 15 14 13 12 11 10 9 7 9 10 11 9 6 2 1 -0 -1 -1 -1 -1 -1 -1 -2 -2
16 16 18 18 22 23 21 20 18 18 18 17 17 16 16 15 15 14 11 10 8 8 6 5 5 5 3 4 5 6 3 0 -1 -1 -2 -2 -2 -2 -2 -2 -3 -3 -3
14 14 12 12 11 14 19 18 18 17 17 17 17 18 17 12 10 7 5 4 4 2 1 0 -0 -0 -1 0 1 2 -0 -2 -3 -3 -3 -3 -3 -4 -4 -3 -4 -4 -4
11 12 10 10 9 8 17 18 16 13 9 10 10 11 9 8 5 3 2 1 1 -1 -2 -2 -2 -2 -2 -2 -1 -1 -2 -4 -5 -5 -5 -4 -4 -4 -4 -5 -5 -6 -6
9 8 7 7 7 6 6 5 5 4 4 4 5 6 5 4 2 1 -0 -1 -2 -3 -3 -3 -3 -3 -3 -3 -3 -3 -3 -4 -5 -5 -5 -5 -5 -6 -6 -6 -6 -7 -6
7 7 6 5 5 5 4 4 3 2 2 2 1 1 0 -0 -1 -1 -2 -2 -3 -4 -4 -4 -5 -5 -4 -4 -4 -4 -4 -4 -5 -5 -5 -5 -6 -6 -7 -8 -8 -8 -8
6 5 5 4 3 3 3 3 2 2 1 1 -0 -1 -1 -2 -2 -2 -3 -3 -3 -3 -4 -4 -5 -6 -6 -6 -5 -5 -5 -5 -5 -6 -6 -7 -7 -8 -8 -9 -10 -10 -11
4 4 4 3 2 2 1 1 1 0 -0 -1 -1 -2 -2 -2 -2 -2 -3 -3 -4 -4 -5 -6 -7 -8 -7 -7 -6 -6 -5 -6 -6 -6 -7 -8 -9 -9 -10 -11 -12 -12 -12
3 3 3 2 1 1 0 -0 -1 -2 -2 -3 -3 -4 -5 -5 -6 -6 -6 -6 -6 -6 -7 -7 -8 -8 -8 -8 -8 -7 -6 -7 -8 -8 -9 -10 -11 -12 -12 -12 -13 -13 -14
-1 1 1 1 1 0 -1 -1 -2 -3 -3 -4 -5 -5 -6 -7 -7 -7 -8 -8 -8 -9 -9 -9 -8 -8 -8 -8 -8 -8 -8 -9 -9 -11 -12 -12 -12 -13 -13 -14 -14 -14 -14

GFSMW_925_temp_108.txt.gz
Temp
21 21 18 17 16 17 18 17 16 16 16 15 15 15 14 14 14 15 14 14 15 14 14 14 15 15 15 16 16 15 16 16 17 17 15 14 15 15 15 15 14 14 14
19 18 16 16 16 16 17 16 15 15 15 15 15 15 15 14 14 14 14 15 15 14 14 14 15 15 15 16 16 16 15 16 17 16 15 12 14 13 14 14 15 15 14
19 17 16 14 14 14 15 15 15 15 15 15 15 14 14 14 14 14 14 14 14 14 14 15 15 15 15 15 15 16 16 16 16 17 16 11 12 13 14 14 14 14 14
20 19 17 14 14 14 15 15 15 15 15 14 14 14 14 14 14 14 14 14 14 14 14 15 15 15 15 15 15 16 16 16 15 16 17 17 16 12 12 15 15 14 14
20 19 17 16 14 14 14 14 14 15 14 14 14 14 14 14 14 14 14 14 14 14 14 14 15 14 15 15 15 16 17 17 15 16 15 15 15 14 12 11 13 16 15
21 20 18 15 13 13 14 14 14 14 14 14 14 14 13 13 13 13 13 13 14 13 14 14 14 14 14 15 16 16 16 15 15 16 16 15 15 13 13 10 11 13 17
21 19 15 15 13 13 13 13 14 13 14 14 13 13 13 13 13 13 14 14 13 13 13 13 14 14 14 15 15 14 13 13 13 15 15 15 16 17 15 15 13 11 15
22 19 16 15 14 14 13 14 13 13 13 14 13 13 13 13 13 13 13 13 13 13 12 12 12 13 14 13 13 12 12 13 14 14 14 14 15 15 16 16 13 10 10
20 19 17 15 15 14 13 13 13 13 13 13 13 13 13 13 13 13 13 13 13 13 12 12 12 13 13 13 12 12 13 13 13 13 14 15 15 15 15 15 15 14 13
20 19 18 15 15 14 14 13 14 14 14 13 13 13 13 13 13 13 12 12 12 12 12 12 12 12 12 11 12 12 13 13 13 14 14 15 15 15 15 15 15 14 13
19 19 19 16 15 14 13 13 14 14 14 13 13 13 13 13 13 13 13 13 12 12 12 12 11 11 12 12 12 12 13 13 13 14 14 15 15 15 15 15 14 13 12
19 18 19 16 15 14 13 13 13 14 14 13 13 13 13 13 13 13 13 12 12 12 12 11 12 12 11 12 12 12 12 13 13 14 14 14 15 14 14 13 13 12 12
18 19 18 17 15 14 14 13 13 13 13 13 12 12 12 13 12 13 13 12 12 12 11 11 11 11 12 12 13 13 13 13 13 13 13 13 13 12 11 11 10 10 9
19 19 17 17 15 15 14 14 13 13 13 13 13 12 12 12 12 12 12 12 12 12 12 12 12 12 12 12 13 13 13 13 12 12 12 10 9 9 8 8 7 6 6
20 19 18 17 16 15 15 15 14 13 13 14 14 13 12 13 13 12 12 13 12 12 13 13 12 12 12 12 12 12 12 12 11 8 7 5 3 3 4 4 3 3 3
16 15 18 17 17 16 15 15 15 14 14 13 14 14 13 13 13 13 13 13 13 12 12 12 12 12 11 12 12 13 12 10 7 4 2 2 1 1 0 0 1 1 0
14 14 14 13 12 18 17 16 15 15 14 14 13 13 14 13 13 13 13 12 12 12 11 10 9 9 8 9 11 11 9 6 2 1 0 -1 -1 -1 -1 -1 -1 -2 -3
13 12 11 11 10 10 17 16 16 15 14 14 14 13 13 13 13 13 12 10 9 9 8 6 6 6 3 5 7 8 4 1 -1 -1 -2 -2 -2 -3 -3 -3 -3 -4 -4
11 10 9 8 8 7 12 16 16 16 15 15 14 14 14 12 11 9 7 6 6 4 3 2 2 2 -0 1 2 4 -0 -2 -3 -4 -3 -3 -4 -4 -4 -4 -5 -5 -5
8 8 7 7 6 6 8 15 15 15 11 12 12 13 11 9 7 5 3 2 2 1 0 -0 -1 -1 -2 -2 -1 -1 -2 -4 -5 -5 -6 -6 -6 -6 -5 -6 -6 -7 -7
7 6 5 5 5 5 6 5 5 4 5 6 7 7 7 7 6 3 2 1 -1 -2 -2 -3 -3 -3 -3 -3 -3 -3 -4 -5 -5 -5 -6 -6 -6 -7 -7 -7 -8 -9 -8
5 5 4 4 4 4 4 4 4 3 3 3 3 2 2 1 0 -0 -1 -2 -3 -3 -4 -4 -4 -4 -4 -4 -4 -4 -4 -5 -5 -6 -6 -7 -7 -8 -9 -10 -9 -9 -9
4 4 3 3 2 2 3 3 2 2 1 1 0 -0 -1 -1 -2 -2 -3 -3 -3 -4 -4 -5 -6 -6 -5 -5 -5 -6 -6 -6 -7 -7 -8 -9 -9 -10 -11 -11 -11 -11 -12
4 3 3 2 1 0 0 1 1 0 -0 -1 -1 -1 -2 -2 -3 -3 -3 -4 -4 -5 -6 -6 -7 -7 -7 -6 -6 -7 -7 -7 -8 -9 -10 -10 -11 -11 -12 -12 -13 -13 -14
2 2 1 1 -0 -1 -1 -1 -2 -2 -2 -3 -3 -4 -5 -5 -6 -6 -6 -6 -6 -6 -7 -7 -7 -7 -7 -7 -7 -7 -8 -9 -10 -10 -11 -11 -12 -13 -14 -14 -14 -15 -15
-0 -0 1 0 -1 -1 -2 -3 -3 -4 -4 -5 -5 -6 -6 -7 -7 -7 -7 -7 -7 -7 -8 -8 -8 -7 -7 -7 -8 -9 -10 -11 -9 -11 -13 -13 -14 -14 -15 -15 -15 -15 -16

GFSMW_925_temp_111.txt.gz
Temp
21 21 19 17 16 17 17 17 16 16 16 15 15 14 14 14 14 14 14 13 14 14 14 13 14 14 15 15 15 15 16 15 15 14 12 12 13 14 14 13 14 14 14
19 18 15 15 16 15 16 16 16 16 16 16 15 15 15 14 14 14 14 14 14 14 14 14 13 14 14 15 14 14 15 16 15 14 13 10 12 12 13 12 14 15 14
20 17 15 14 15 14 15 15 16 15 15 16 15 14 15 14 14 14 14 14 14 14 13 14 14 14 14 14 15 15 15 15 14 16 15 11 12 12 12 13 13 15 14
20 18 15 14 14 14 14 15 15 15 15 15 15 15 14 14 14 14 14 14 14 14 14 14 14 14 14 14 14 15 15 15 14 15 16 17 15 12 12 13 13 14 14
20 18 16 15 14 14 14 14 15 15 15 14 14 15 15 15 14 14 14 14 14 14 14 14 13 13 14 14 14 14 15 16 14 15 15 15 15 14 12 11 12 13 15
20 18 18 16 14 13 13 14 14 14 15 15 14 14 14 14 14 14 14 14 14 14 14 14 14 14 14 14 14 14 15 15 15 15 16 16 15 13 13 11 11 13 15
19 19 17 14 13 12 13 13 13 14 14 14 14 14 15 15 15 14 13 13 14 14 14 14 14 13 14 14 14 14 15 15 15 15 15 15 16 16 15 14 12 11 15
18 19 18 15 14 13 12 13 13 13 13 14 14 14 14 14 14 14 14 13 13 14 13 13 13 13 13 14 14 14 14 14 14 13 13 14 14 13 13 14 14 10 11
17 19 17 15 14 13 13 13 13 13 13 14 14 14 14 13 13 13 14 13 13 13 13 13 13 13 13 13 13 12 13 13 12 12 12 12 13 13 13 13 14 13 12
16 18 16 15 14 14 13 13 13 13 12 14 13 13 13 12 12 13 13 13 13 13 13 13 13 13 13 13 12 12 13 12 12 12 12 12 12 12 12 13 13 13 12
15 16 17 15 15 14 13 12 12 12 12 14 14 13 13 13 12 12 13 13 13 12 12 12 12 12 12 12 12 12 12 12 11 12 12 12 12 12 13 13 13 13 12
15 16 17 15 13 13 13 12 12 12 12 13 14 13 13 13 12 12 12 12 12 12 12 12 12 12 12 12 12 11 12 11 11 12 12 12 12 12 12 12 12 12 11
15 16 17 15 14 14 13 13 12 12 13 13 14 13 12 13 12 12 12 12 12 12 12 12 12 11 11 11 12 12 11 11 12 11 11 11 12 12 11 11 10 10 10
14 16 16 15 14 14 13 13 13 13 12 13 13 13 12 12 12 12 12 12 12 12 12 11 11 12 11 12 11 11 12 11 11 11 11 10 10 10 9 8 7 6 6
14 15 14 15 14 14 14 13 13 13 12 12 12 12 13 13 13 12 12 12 11 11 11 11 11 11 11 11 11 12 12 11 10 9 7 6 6 6 5 5 3 3 2
13 14 13 13 13 13 14 14 13 13 12 12 12 12 11 12 12 12 12 12 12 12 11 11 11 11 11 12 12 12 11 10 9 6 3 1 1 1 1 1 1 1 1
12 12 11 11 11 10 11 14 13 13 12 13 13 13 12 11 12 12 12 12 12 11 11 11 11 11 11 11 11 11 10 7 4 2 0 -1 -1 -1 -1 -2 -2 -2 -3
11 11 10 9 9 8 9 13 14 13 13 13 13 13 12 11 11 11 11 11 10 10 9 8 8 8 7 9 11 10 6 2 -0 -1 -1 -2 -2 -2 -2 -3 -4 -5 -5
9 9 8 7 7 6 7 13 14 13 13 13 13 13 13 12 11 10 9 8 8 6 5 4 4 5 2 3 6 8 1 -1 -2 -2 -3 -3 -4 -4 -3 -3 -5 -7 -8
7 7 6 5 6 5 7 10 12 13 13 13 13 13 12 11 9 8 6 5 5 3 2 1 0 -1 -2 -2 -1 0 -1 -4 -5 -4 -5 -5 -5 -5 -5 -5 -7 -8 -9
5 5 4 3 4 5 6 6 6 5 6 9 11 11 10 8 7 6 5 4 2 0 -1 -2 -2 -3 -3 -3 -4 -4 -5 -5 -5 -6 -7 -7 -7 -8 -8 -8 -8 -9 -9
4 4 4 3 2 3 4 5 4 3 4 5 5 5 4 3 2 2 0 -1 -1 -3 -3 -4 -4 -4 -4 -4 -4 -4 -4 -5 -6 -7 -7 -8 -9 -10 -10 -10 -11 -9 -9
4 3 3 2 1 1 2 2 2 2 2 1 1 0 0 0 -0 -1 -2 -3 -3 -3 -4 -4 -4 -5 -5 -5 -5 -5 -6 -6 -7 -8 -9 -10 -10 -11 -12 -12 -11 -11 -11
3 2 2 1 0 -1 -1 0 0 0 -0 -1 -1 -2 -2 -3 -3 -3 -3 -3 -4 -5 -5 -5 -6 -6 -7 -7 -7 -7 -8 -8 -9 -10 -10 -11 -12 -12 -13 -13 -13 -14 -14
1 1 0 -0 -1 -2 -2 -2 -2 -2 -3 -4 -4 -5 -5 -6 -6 -6 -6 -6 -6 -6 -6 -6 -6 -6 -7 -7 -7 -7 -9 -10 -11 -11 -12 -13 -13 -13 -14 -14 -15 -15 -15
-1 -0 -0 -1 -2 -2 -3 -3 -4 -4 -4 -5 -5 -6 -6 -6 -6 -6 -7 -7 -6 -7 -6 -6 -6 -7 -7 -7 -8 -9 -10 -11 -10 -11 -13 -14 -14 -15 -15 -16 -16 -16 -16

GFSMW_925_temp_114.txt.gz
Temp
19 20 21 21 19 17 16 17 16 17 17 15 14 14 14 14 14 14 14 14 13 14 14 14 13 14 14 15 14 15 14 14 13 12 11 11 12 13 13 13 13 13 13
20 20 18 16 16 15 16 16 16 17 16 15 14 14 14 14 14 14 14 13 13 13 13 13 13 13 13 14 14 13 12 13 14 13 12 10 11 11 12 13 13 13 13
18 19 17 14 14 14 14 14 15 17 16 15 14 14 14 14 14 14 13 13 14 14 14 14 14 13 14 14 14 14 14 13 13 14 14 11 11 11 12 12 12 13 13
17 18 17 13 14 14 14 14 15 15 15 15 14 14 14 14 14 14 14 14 14 14 14 14 13 14 14 14 14 14 14 14 13 14 15 16 15 11 11 12 13 13 13
16 16 17 15 14 14 14 14 14 14 14 14 14 14 14 14 14 14 14 14 14 14 13 14 14 14 13 14 14 14 14 15 14 14 14 15 15 15 12 11 12 13 14
15 16 17 17 14 13 14 13 13 13 14 14 14 14 14 14 14 14 14 14 14 14 13 14 14 13 14 14 15 14 14 15 15 15 15 16 15 13 13 11 11 12 14
14 15 16 16 13 13 13 13 13 13 13 14 14 14 14 14 14 14 14 14 14 14 14 14 13 13 14 14 14 13 14 15 15 15 15 16 17 16 15 15 11 12 14
14 15 15 17 14 14 13 13 13 13 13 13 14 14 14 14 14 14 14 14 14 14 14 14 13 13 13 13 13 13 14 15 15 15 15 15 15 15 14 13 13 11 11
14 15 15 16 14 13 13 13 13 13 13 14 14 14 14 14 14 14 14 14 14 14 14 14 14 13 13 13 13 13 13 14 14 13 13 14 13 12 13 13 13 12 11
14 15 15 16 16 13 13 13 13 13 13 13 13 13 14 15 15 14 13 13 13 13 13 13 14 13 13 12 12 12 13 13 12 11 11 11 12 12 12 12 12 11 11
12 14 15 15 16 13 13 12 12 13 13 13 13 13 14 14 14 13 13 13 13 13 13 13 13 13 13 12 12 12 12 12 12 11 11 11 11 11 12 12 12 11 11
13 14 14 15 14 13 13 12 12 12 12 13 13 12 13 13 13 13 12 13 13 13 13 13 13 13 12 12 12 12 12 12 11 11 11 11 11 11 11 11 11 11 11
13 13 14 14 13 13 13 12 12 12 12 13 13 12 12 13 13 13 12 12 12 12 12 12 12 13 12 12 12 12 12 12 12 12 11 11 11 11 11 11 11 11 10
13 12 13 13 13 13 13 13 12 12 12 12 13 13 12 12 12 13 12 12 12 12 12 12 12 12 12 12 12 12 11 11 11 11 11 11 10 10 10 10 9 8 7
13 12 12 12 12 12 13 13 12 12 12 12 13 13 12 12 12 12 12 12 12 12 12 12 12 11 11 11 11 11 11 11 10 9 9 8 8 8 8 7 6 5 4
13 12 12 12 11 11 10 13 12 12 12 12 12 13 12 12 12 12 12 12 12 11 11 11 11 11 11 11 11 11 11 10 9 6 4 3 4 4 4 3 3 3 2
12 11 10 10 9 8 8 9 12 12 12 12 12 13 12 11 12 12 12 11 11 11 11 11 11 11 11 11 11 11 10 8 6 5 2 0 -1 0 0 -0 -0 -1 -1
10 9 8 8 7 6 7 7 10 12 11 11 12 12 11 11 11 11 11 11 10 10 10 9 9 9 9 10 11 10 7 3 1 -0 -1 -2 -2 -3 -2 -3 -4 -5 -6
8 7 6 6 5 6 6 7 9 12 12 12 12 12 13 11 10 10 10 9 8 7 7 6 7 7 3 5 7 9 2 -1 -2 -2 -2 -3 -4 -4 -4 -4 -6 -8 -9
6 5 5 4 4 4 5 7 12 12 12 12 12 12 11 11 10 10 8 6 6 4 3 2 1 1 -0 -0 1 3 -0 -3 -4 -5 -5 -5 -6 -6 -5 -5 -7 -9 -10
4 4 4 3 2 3 4 6 5 5 7 11 11 10 10 9 9 7 6 4 2 1 -1 -2 -2 -2 -2 -3 -3 -3 -3 -5 -6 -7 -7 -7 -6 -7 -7 -7 -8 -9 -10
4 3 3 2 1 1 3 3 3 2 4 7 7 6 5 4 4 3 1 0 -1 -2 -3 -3 -4 -4 -4 -4 -5 -5 -5 -6 -7 -8 -8 -9 -9 -10 -11 -11 -11 -10 -10
3 2 2 1 -0 -0 0 1 1 1 0 2 1 1 1 0 1 -1 -2 -2 -3 -3 -3 -4 -4 -4 -5 -5 -6 -6 -6 -6 -8 -9 -9 -10 -10 -11 -12 -12 -10 -9 -10
2 1 1 -0 -1 -2 -2 -1 -1 -1 -1 -2 -2 -2 -2 -2 -1 -2 -2 -3 -3 -3 -4 -5 -6 -6 -7 -7 -7 -7 -8 -9 -9 -10 -10 -12 -12 -13 -13 -12 -12 -12 -13
0 0 -0 -1 -2 -2 -3 -3 -3 -2 -3 -4 -4 -4 -5 -5 -5 -5 -5 -5 -5 -5 -5 -6 -6 -7 -8 -8 -8 -8 -9 -10 -10 -11 -12 -13 -13 -14 -14 -14 -15 -14 -14
-1 -1 -2 -2 -3 -3 -4 -4 -4 -4 -4 -4 -5 -5 -5 -5 -5 -5 -6 -5 -5 -4 -5 -6 -5 -7 -8 -8 -8 -8 -9 -9 -9 -11 -13 -14 -14 -14 -15 -15 -16 -15 -15

GFSMW_925_temp_117.txt.gz
Temp
23 21 20 19 19 18 17 16 15 15 15 14 14 14 13 13 13 13 13 13 14 14 14 14 14 13 13 13 13 13 13 13 14 13 12 12 12 12 12 13 13 12 12
21 21 20 19 17 17 16 15 15 14 15 15 14 14 14 14 14 14 14 14 14 14 14 14 13 13 13 12 13 14 14 14 13 15 15 14 13 12 12 12 12 12 12
20 20 19 19 17 16 15 15 15 14 15 15 14 14 14 14 14 14 14 14 14 13 13 14 13 12 12 12 13 13 14 14 13 14 17 15 16 14 12 12 12 12 12
19 19 18 18 18 17 15 15 14 14 14 14 15 14 14 14 14 14 14 14 13 13 13 13 13 12 12 12 13 13 14 13 13 13 14 16 15 17 14 12 12 12 12
18 18 18 17 18 15 15 15 14 14 14 14 14 15 14 14 14 14 14 13 13 12 13 13 13 12 12 13 13 13 14 14 14 14 14 14 14 15 16 16 14 12 13
18 18 17 17 17 14 13 14 14 13 14 14 14 14 14 14 14 14 14 14 13 13 13 13 13 13 12 13 13 13 13 14 14 15 15 15 16 16 16 16 16 16 14
17 17 17 18 17 16 13 13 13 13 13 14 14 14 14 14 14 14 14 14 13 13 13 13 13 13 13 13 13 13 13 14 14 14 14 15 16 16 15 15 13 14 13
17 17 17 17 17 16 15 13 13 13 13 13 13 13 14 14 14 14 14 14 14 14 13 13 13 13 13 13 13 13 13 13 14 14 14 16 16 17 16 15 14 13 14
16 16 16 16 16 16 16 13 13 13 13 13 13 13 13 14 14 14 14 14 14 14 14 13 13 13 13 13 13 12 12 13 13 14 14 15 15 15 15 15 14 13 12
16 16 16 16 15 15 15 14 13 13 13 13 13 14 13 13 14 14 14 13 14 14 14 14 13 13 13 13 12 12 12 13 13 13 13 14 14 13 14 13 13 12 12
15 15 16 16 15 14 15 13 13 13 13 13 14 14 13 14 14 14 14 13 13 13 13 13 14 13 13 12 12 12 12 12 12 13 14 13 13 12 12 11 11 11 12
15 15 15 16 15 13 13 13 12 13 13 13 14 13 14 14 14 14 13 12 13 13 13 13 13 13 13 12 12 11 11 12 11 13 13 12 12 12 11 10 10 11 11
15 15 15 14 14 13 12 13 12 13 12 13 13 13 13 14 13 13 13 13 12 12 13 13 13 13 13 13 12 12 11 11 11 11 11 11 11 11 11 11 11 11 11
15 15 14 13 13 12 11 10 12 12 12 12 14 13 13 13 13 13 13 13 12 12 12 12 12 12 12 12 12 12 11 11 11 11 11 11 11 11 11 11 11 10 10
15 15 14 13 11 11 10 9 11 12 12 12 13 13 12 13 13 13 13 12 12 12 12 12 12 12 12 12 12 12 11 11 11 11 10 10 10 11 10 10 8 8 7
14 13 13 12 10 9 9 8 8 12 12 12 13 13 12 12 12 13 12 12 12 12 11 11 11 11 11 11 11 11 12 9 8 7 6 6 6 6 6 6 5 4 3
12 11 10 9 8 7 7 7 7 8 12 12 13 12 12 12 12 12 12 11 11 11 11 11 11 11 11 11 10 10 8 8 6 6 3 2 0 2 2 1 1 -0 -0
10 9 8 8 7 6 6 5 6 8 11 12 12 12 12 12 11 12 11 11 10 11 10 9 9 9 7 10 10 9 6 3 1 0 -0 -1 -2 -2 -1 -1 -3 -5 -5
7 7 6 6 6 5 4 5 7 9 11 12 12 12 12 11 11 11 10 10 9 7 7 6 7 6 3 4 8 8 2 -1 -2 -2 -2 -2 -3 -4 -3 -3 -7 -9 -9
5 5 5 5 4 3 3 5 5 7 12 12 12 12 11 10 10 9 7 6 6 4 3 2 2 2 1 1 2 5 1 -3 -4 -5 -5 -5 -4 -5 -4 -5 -7 -9 -10
5 4 4 3 2 1 2 3 3 2 3 8 11 11 10 9 8 6 5 4 2 1 -0 -1 -1 -1 -1 -2 -1 -2 -3 -5 -6 -6 -7 -7 -6 -5 -6 -5 -7 -9 -11
4 3 2 1 0 0 0 1 1 1 2 4 6 7 7 6 5 4 1 1 0 -1 -3 -3 -3 -4 -4 -4 -5 -5 -5 -6 -7 -8 -8 -8 -9 -9 -10 -10 -11 -11 -11
2 2 1 0 -1 -1 -1 -1 -1 -1 0 1 0 1 2 1 1 0 -1 -1 -2 -2 -3 -3 -4 -5 -5 -6 -6 -5 -5 -5 -8 -9 -9 -10 -10 -11 -11 -12 -11 -10 -11
1 1 0 -1 -1 -2 -2 -3 -3 -2 -1 -2 -1 -0 -1 -1 -1 -1 -2 -2 -3 -3 -4 -4 -5 -6 -6 -7 -7 -8 -8 -8 -9 -10 -11 -11 -12 -11 -12 -11 -11 -13 -13
-1 -0 -1 -2 -2 -3 -4 -4 -3 -3 -3 -3 -3 -3 -3 -4 -4 -4 -3 -3 -4 -3 -5 -5 -6 -6 -7 -8 -8 -8 -9 -10 -10 -11 -12 -13 -13 -13 -13 -13 -13 -13 -13
-3 -2 -2 -3 -4 -4 -4 -5 -4 -4 -4 -4 -4 -4 -4 -4 -4 -5 -5 -5 -5 -4 -5 -6 -6 -7 -8 -8 -9 -9 -9 -9 -10 -11 -11 -12 -12 -13 -13 -14 -14 -14 -15

GFSMW_925_temp_123.txt.gz
Temp
30 29 28 27 26 25 25 25 24 24 23 23 22 22 20 17 16 16 19 18 17 16 16 16 15 15 15 14 14 14 15 18 19 17 17 17 17 17 18 18 18 18 17
29 28 27 26 25 24 24 24 24 24 23 23 22 22 19 16 16 16 17 18 17 16 15 16 15 15 14 14 14 13 14 17 18 17 17 16 16 17 17 17 17 18 17
27 27 26 25 24 24 22 23 24 24 23 23 22 18 16 15 15 15 16 17 16 16 15 15 15 14 14 14 13 13 14 17 18 17 18 17 17 16 16 16 17 17 17
26 26 26 26 25 23 21 22 23 23 22 21 20 17 16 17 15 15 15 16 16 16 16 16 15 14 14 14 13 13 14 16 17 17 18 19 19 18 16 16 16 17 17
25 25 25 25 24 22 21 20 21 22 21 19 20 17 17 18 18 18 16 15 16 16 17 15 15 14 14 13 13 13 13 16 16 17 18 19 20 19 19 17 17 16 17
24 24 24 24 24 22 21 21 19 19 17 16 17 17 17 19 20 19 17 17 16 16 16 15 14 14 14 13 13 13 13 15 16 18 19 20 20 19 20 20 19 17 18
23 24 24 24 23 22 21 21 22 19 17 16 16 16 17 19 20 18 17 17 14 14 14 14 13 13 13 13 13 13 13 14 16 17 18 20 20 20 21 21 20 19 18
23 23 23 23 22 21 20 19 21 21 17 16 15 16 17 18 19 19 18 18 15 14 13 13 13 13 13 13 13 13 13 13 15 16 18 19 19 20 20 21 19 18 17
22 23 23 22 22 22 21 18 18 21 17 16 15 15 16 17 19 19 17 18 16 14 13 13 12 12 12 12 12 12 13 13 14 14 16 18 18 19 20 20 20 19 17
22 23 23 22 22 21 20 18 17 18 18 16 15 14 14 16 18 18 18 17 17 15 14 13 12 12 12 12 12 12 12 13 13 14 16 17 18 18 19 19 19 18 17
22 22 22 22 21 20 19 18 17 15 16 16 15 14 14 15 17 18 17 17 16 16 14 13 12 12 11 11 11 12 12 13 14 15 16 16 17 18 17 16 16 16 16
22 23 22 22 21 19 18 18 16 16 14 14 15 14 14 15 16 16 17 17 16 15 14 14 13 12 12 11 11 11 12 12 13 14 15 16 16 15 14 13 14 15 16
21 22 23 22 21 20 18 17 16 14 13 13 14 14 14 14 15 16 16 15 15 16 15 14 13 13 12 11 11 11 11 12 13 13 14 15 16 14 13 13 14 14 14
21 22 22 22 21 19 16 15 13 13 12 10 13 13 14 14 15 16 15 15 15 15 15 15 15 14 13 12 12 12 12 12 12 12 14 15 14 13 12 13 14 13 12
21 21 21 21 19 17 16 15 12 12 10 9 11 13 14 14 15 15 15 14 14 14 13 13 13 13 13 13 12 12 12 12 12 12 13 13 12 12 11 13 12 12 10
20 21 19 18 17 16 14 13 11 9 9 8 11 12 13 14 15 15 14 14 14 13 12 12 12 12 12 12 12 12 12 12 11 11 11 11 11 11 11 11 11 10 10
18 18 16 16 14 13 12 11 10 9 7 8 9 10 13 14 15 14 14 14 13 12 12 11 11 11 10 11 12 12 10 7 7 7 6 6 5 7 7 9 8 7 6
16 15 15 14 13 11 9 7 8 8 7 7 7 9 12 14 15 14 13 12 11 11 10 9 9 8 6 9 10 10 6 4 2 3 3 5 4 4 6 5 2 0 -0
13 12 12 11 10 7 6 6 6 6 6 5 5 6 12 14 15 13 11 11 10 8 7 6 6 5 2 4 8 8 2 1 0 0 0 1 1 -0 3 3 -3 -7 -8
9 9 9 8 6 4 3 4 4 4 3 2 2 5 6 14 13 10 9 7 7 5 4 3 2 2 1 1 4 6 2 -2 -3 -3 -3 -3 -4 -3 -1 -0 -5 -8 -9
7 7 7 5 3 2 1 3 3 2 0 0 1 3 6 11 11 9 8 6 4 2 1 -0 -1 -1 -1 -1 -1 0 -0 -3 -5 -5 -6 -6 -6 -6 -5 -4 -6 -7 -8
6 6 7 5 3 1 -0 0 1 -1 -1 -0 1 2 7 8 8 7 3 3 2 -0 -1 -2 -2 -2 -2 -2 -3 -2 -3 -4 -5 -6 -7 -7 -7 -7 -6 -6 -8 -8 -8
6 6 6 5 4 1 -2 -2 -2 -2 -2 -1 0 1 3 4 5 3 1 0 -0 -1 -2 -3 -3 -4 -4 -4 -5 -5 -5 -6 -7 -7 -7 -7 -8 -8 -8 -9 -9 -8 -8
4 4 4 4 3 0 -2 -3 -3 -2 -2 -2 -0 -0 1 -0 0 0 0 -0 -1 -2 -3 -3 -4 -5 -6 -6 -6 -7 -7 -7 -8 -8 -9 -9 -9 -9 -9 -8 -8 -7 -7
2 1 1 1 1 -0 -3 -4 -4 -3 -3 -2 -2 -1 -1 -1 -3 -3 -2 -2 -2 -2 -3 -4 -5 -5 -6 -6 -7 -7 -8 -9 -10 -10 -9 -9 -9 -9 -9 -8 -8 -7 -7
-1 -2 -2 -2 -2 -2 -3 -5 -5 -4 -3 -3 -3 -3 -3 -3 -4 -4 -4 -4 -5 -5 -5 -6 -6 -7 -7 -8 -8 -9 -9 -9 -9 -8 -8 -8 -8 -7 -7 -7 -8 -8 -8